[[{"header":{"parameterUnit":"m.s-1","parameterCategory":1,"la1":31.0,"la2":29.5877,"lo1":-88.7671,"lo2":-86.6584,"dy":0.0162,"dx":0.0185,"nx":115,"ny":88,"refTime":"2023-06-18T06:00:00:Z","depth":0,"parameterNumber":2,"parameterNumberName":"U-component_of_WINDS"},"data":[0.0,0.0,0.0,0.0,0.0,0.0,0.0,0.0,0.0,0.0,0.0,0.0,0.0,0.0,0.0,0.0,0.0,0.0,0.0,0.0,0.0,0.0,0.0,0.0,0.0,0.0,0.0,0.0,0.0,0.0,0.0,0.0,0.0,0.0,0.0,0.0,0.0,0.0,0.0,0.0,0.0,0.0,0.0,0.0,0.0,0.0,0.0,0.0,0.0,0.0,0.0,0.0,0.0,0.0,0.0,0.0,0.0,0.0,0.0,0.0,0.0,0.0,0.0,0.0,0.0,0.0,0.0,0.0,0.0,0.0,0.0,0.0,0.0,0.0,0.0,0.0,0.0,0.0,0.0,0.0,0.0,0.0,0.0,0.0,0.0,0.0,0.0,0.0,0.0,0.0,0.0,0.0,0.0,0.0,0.0,0.0,0.0,0.0,0.0,0.0,0.0,0.0,0.0,0.0,0.0,0.0,0.0,0.0,0.0,0.0,0.0,0.0,0.0,0.0,0.0,0.0,0.0,0.0,0.0,0.0,0.0,0.0,0.0,0.0,0.0,0.0,0.0,0.0,0.0,0.0,0.0,0.0,0.0,0.0,0.0,0.0,0.0,0.0,0.0,0.0,0.0,0.0,0.0,0.0,0.0,0.0,0.0,0.0,0.0,0.0,0.0,0.0,0.0,0.0,0.0,0.0,0.0,0.0,0.0,0.0,0.0,0.0,0.0,0.0,0.0,0.0,0.0,0.0,0.0,0.0,0.0,0.0,0.0,0.0,0.0,0.0,0.0,0.0,0.0,0.0,0.0,0.0,0.0,0.0,0.0,0.0,0.0,0.0,0.0,0.0,0.0,0.0,0.0,0.0,0.0,0.0,0.0,0.0,0.0,0.0,0.0,0.0,0.0,0.0,0.0,0.0,0.0,0.0,0.0,0.0,0.0,0.0,0.0,0.0,0.0,0.0,0.0,0.0,0.0,0.0,0.0,0.0,0.0,0.0,0.0,0.0,0.0,0.0,0.0,0.0,0.0,0.0,0.0,0.0,0.0,0.0,0.0,0.0,0.0,0.0,0.0,0.0,0.0,0.0,0.0,0.0,0.0,0.0,0.0,0.0,0.0,0.0,0.0,0.0,0.0,0.0,0.0,0.0,0.0,0.0,0.0,0.0,0.0,0.0,0.0,0.0,0.0,0.0,0.0,0.0,0.0,0.0,0.0,0.0,0.0,0.0,0.0,0.0,0.0,0.0,0.0,0.0,0.0,0.0,0.0,0.0,0.0,0.0,0.0,0.0,0.0,0.0,0.0,0.0,0.0,0.0,0.0,0.0,0.0,0.0,0.0,0.0,0.0,0.0,0.0,0.0,0.0,0.0,0.0,0.0,0.0,0.0,0.0,0.0,0.0,0.0,0.0,0.0,0.0,0.0,0.0,0.0,0.0,0.0,0.0,0.0,0.0,0.0,0.0,0.0,0.0,0.0,0.0,0.0,0.0,0.0,0.0,0.0,0.0,0.0,0.0,0.0,0.0,0.0,0.0,0.0,0.0,0.0,0.0,0.0,0.0,0.0,0.0,0.0,0.0,0.0,0.0,0.0,0.0,0.0,0.0,0.0,0.0,0.0,0.0,0.0,0.0,0.0,0.0,0.0,0.0,0.0,0.0,0.0,0.0,0.0,0.0,0.0,0.0,0.0,0.0,0.0,0.0,0.0,0.0,0.0,0.0,0.0,0.0,0.0,0.0,0.0,0.0,0.0,0.0,0.0,0.0,0.0,0.0,0.0,0.0,0.0,0.0,0.0,0.0,0.0,0.0,0.0,0.0,0.0,0.0,0.0,0.0,0.0,0.0,0.0,0.0,0.0,0.0,0.0,0.0,0.0,0.0,0.0,0.0,0.0,0.0,0.0,0.0,0.0,0.0,0.0,0.0,0.0,0.0,0.0,0.0,0.0,0.0,0.0,0.0,0.0,0.0,0.0,0.0,0.0,0.0,0.0,0.0,0.0,0.0,0.0,0.0,0.0,0.0,0.0,0.0,0.0,0.0,0.0,0.0,0.0,0.0,0.0,0.0,0.0,0.0,0.0,0.0,0.0,0.0,0.0,0.0,0.0,0.0,0.0,0.0,0.0,0.0,0.0,0.0,0.0,0.0,0.0,0.0,0.0,0.0,0.0,0.0,0.0,0.0,0.0,0.0,0.0,0.0,0.0,0.0,0.0,0.0,0.0,0.0,0.0,0.0,0.0,0.0,0.0,0.0,0.0,0.0,0.0,0.0,0.0,0.0,0.0,0.0,0.0,0.0,0.0,0.0,0.0,0.0,0.0,0.0,0.0,0.0,0.0,0.0,0.0,0.0,0.0,0.0,0.0,0.0,0.0,0.0,0.0,0.0,0.0,0.0,0.0,0.0,0.0,0.0,0.0,0.0,0.0,0.0,0.0,0.0,0.0,0.0,0.0,0.0,0.0,0.0,0.0,0.0,0.0,0.0,0.0,0.0,0.0,0.0,0.0,0.0,0.0,0.0,0.0,0.0,0.0,0.0,0.0,0.0,0.0,0.0,0.0,0.0,0.0,0.0,0.0,0.0,0.0,0.0,0.0,0.0,0.0,0.0,0.0,0.0,0.0,0.0,0.0,0.0,0.0,0.0,0.0,0.0,0.0,0.0,0.0,0.0,0.0,0.0,0.0,0.0,0.0,0.0,0.0,0.0,0.0,0.0,0.0,0.0,0.0,0.0,0.0,0.0,0.0,0.0,0.0,0.0,0.0,0.0,0.0,0.0,0.0,0.0,0.0,0.0,0.0,0.0,0.0,0.0,0.0,0.0,0.0,0.0,0.0,0.0,0.0,0.0,0.0,0.0,0.0,0.0,0.0,0.0,0.0,0.0,0.0,0.0,0.0,0.0,0.0,0.0,0.0,0.0,0.0,0.0,0.0,0.0,0.0,0.0,0.0,0.0,0.0,0.0,0.0,0.0,0.0,0.0,0.0,0.0,0.0,0.0,0.0,0.0,0.0,0.0,0.0,0.0,0.0,0.0,0.0,0.0,0.0,0.0,0.0,0.0,0.0,0.0,0.0,0.0,0.0,0.0,0.0,0.0,0.0,0.0,0.0,0.0,0.0,0.0,0.0,0.0,0.0,0.0,0.0,0.0,0.0,0.0,0.0,0.0,0.0,0.0,0.0,0.0,0.0,0.0,0.0,0.0,0.0,0.0,0.0,0.0,0.0,0.0,0.0,0.0,0.0,0.0,0.0,0.0,0.0,0.0,0.0,0.0,0.0,0.0,0.0,0.0,0.0,0.0,0.0,0.0,0.0,0.0,0.0,0.0,0.0,0.0,0.0,0.0,0.0,0.0,0.0,0.0,0.0,0.0,0.0,0.0,0.0,0.0,0.0,0.0,0.0,0.0,0.0,0.0,0.0,0.0,0.0,0.0,0.0,0.0,0.0,0.0,0.0,0.0,0.0,0.0,0.0,0.0,0.0,0.0,0.0,0.0,0.0,0.0,0.0,0.0,0.0,0.0,0.0,0.0,0.0,0.0,0.0,0.0,0.0,0.0,0.0,0.0,0.0,0.0,0.0,0.0,0.0,0.0,0.0,0.0,0.0,0.0,0.0,0.0,0.0,0.0,0.0,0.0,0.0,0.0,0.0,0.0,0.0,0.0,0.0,0.0,0.0,0.0,0.0,0.0,0.0,0.0,0.0,0.0,0.0,0.0,0.0,0.0,0.0,0.0,0.0,0.0,0.0,0.0,0.0,0.0,0.0,0.0,0.0,0.0,0.0,0.0,0.0,0.0,0.0,0.0,0.0,0.0,0.0,0.0,0.0,0.0,0.0,0.0,0.0,0.0,0.0,0.0,0.0,0.0,0.0,0.0,0.0,0.0,0.0,0.0,0.0,0.0,0.0,0.0,0.0,0.0,0.0,0.0,0.0,0.0,0.0,0.0,0.0,0.0,0.0,0.0,0.0,0.0,0.0,0.0,0.0,0.0,0.0,0.0,0.0,0.0,0.0,0.0,0.0,0.0,0.0,0.0,0.0,0.0,0.0,0.0,0.0,0.0,0.0,0.0,0.0,0.0,0.0,0.0,0.0,0.0,0.0,0.0,0.0,0.0,0.0,0.0,0.0,0.0,0.0,0.0,0.0,0.0,0.0,0.0,0.0,0.0,0.0,0.0,0.0,0.0,0.0,0.0,0.0,0.0,0.0,0.0,0.0,0.0,0.0,0.0,0.0,0.0,0.0,0.0,0.0,0.0,0.0,0.0,0.0,0.0,0.0,0.0,0.0,3.5647,0.0,0.0,0.0,0.0,0.0,0.0,0.0,0.0,0.0,0.0,0.0,0.0,0.0,0.0,0.0,0.0,0.0,0.0,0.0,0.0,0.0,0.0,0.0,0.0,0.0,0.0,0.0,0.0,0.0,0.0,0.0,0.0,0.0,0.0,0.0,0.0,0.0,0.0,0.0,0.0,0.0,0.0,0.0,0.0,0.0,0.0,0.0,0.0,0.0,0.0,0.0,0.0,0.0,0.0,0.0,0.0,0.0,0.0,0.0,0.0,0.0,0.0,0.0,0.0,0.0,0.0,0.0,0.0,0.0,0.0,0.0,0.0,0.0,0.0,0.0,0.0,0.0,0.0,0.0,0.0,0.0,0.0,0.0,0.0,0.0,0.0,0.0,0.0,0.0,0.0,0.0,0.0,0.0,0.0,0.0,0.0,0.0,0.0,0.0,0.0,0.0,0.0,0.0,0.0,0.0,0.0,0.0,0.0,0.0,0.0,3.5994,3.6088,3.5651,3.5292,3.4991,0.0,0.0,0.0,0.0,0.0,0.0,0.0,0.0,0.0,0.0,0.0,0.0,0.0,0.0,0.0,0.0,0.0,0.0,0.0,0.0,0.0,0.0,0.0,0.0,0.0,0.0,0.0,0.0,0.0,0.0,0.0,0.0,0.0,0.0,0.0,0.0,0.0,0.0,0.0,0.0,0.0,0.0,0.0,0.0,0.0,0.0,0.0,0.0,0.0,0.0,0.0,0.0,0.0,0.0,0.0,0.0,0.0,0.0,0.0,0.0,0.0,0.0,0.0,0.0,0.0,0.0,0.0,0.0,0.0,0.0,0.0,0.0,0.0,0.0,0.0,0.0,0.0,0.0,0.0,0.0,0.0,0.0,0.0,0.0,0.0,0.0,0.0,0.0,0.0,0.0,0.0,0.0,0.0,0.0,0.0,0.0,0.0,0.0,0.0,0.0,0.0,0.0,0.0,0.0,0.0,0.0,0.0,0.0,0.0,0.0,0.0,0.0,3.4624,3.4167,3.3955,0.0,0.0,0.0,0.0,0.0,0.0,0.0,0.0,0.0,0.0,0.0,0.0,0.0,0.0,0.0,0.0,0.0,0.0,0.0,0.0,0.0,0.0,0.0,0.0,0.0,0.0,0.0,0.0,0.0,0.0,0.0,0.0,0.0,0.0,0.0,0.0,0.0,0.0,0.0,0.0,0.0,0.0,0.0,0.0,0.0,0.0,0.0,0.0,0.0,0.0,0.0,0.0,0.0,0.0,0.0,0.0,0.0,0.0,0.0,0.0,0.0,0.0,0.0,0.0,0.0,0.0,0.0,0.0,0.0,0.0,0.0,0.0,0.0,0.0,0.0,0.0,0.0,0.0,0.0,0.0,0.0,0.0,0.0,0.0,0.0,0.0,0.0,0.0,0.0,0.0,0.0,0.0,0.0,0.0,0.0,0.0,0.0,0.0,0.0,0.0,0.0,0.0,0.0,0.0,0.0,0.0,0.0,0.0,0.0,0.0,3.4027,3.4163,3.3295,0.0,3.1808,0.0,0.0,0.0,0.0,0.0,0.0,0.0,0.0,0.0,0.0,0.0,0.0,0.0,0.0,0.0,0.0,0.0,0.0,0.0,0.0,0.0,0.0,0.0,0.0,0.0,0.0,0.0,0.0,0.0,0.0,0.0,0.0,0.0,0.0,0.0,0.0,0.0,0.0,0.0,0.0,0.0,0.0,0.0,0.0,0.0,0.0,0.0,0.0,0.0,0.0,0.0,0.0,0.0,0.0,0.0,0.0,0.0,0.0,0.0,0.0,0.0,0.0,0.0,0.0,0.0,0.0,0.0,0.0,0.0,0.0,0.0,0.0,0.0,0.0,0.0,0.0,0.0,0.0,0.0,0.0,0.0,0.0,0.0,0.0,0.0,0.0,0.0,0.0,0.0,0.0,0.0,0.0,0.0,0.0,0.0,0.0,0.0,0.0,0.0,0.0,0.0,0.0,0.0,0.0,0.0,0.0,0.0,0.0,0.0,0.0,3.2994,3.2232,3.1681,3.1005,0.0,0.0,0.0,0.0,0.0,0.0,0.0,0.0,0.0,0.0,0.0,0.0,0.0,0.0,0.0,0.0,0.0,0.0,0.0,0.0,0.0,0.0,0.0,0.0,0.0,0.0,0.0,0.0,0.0,0.0,0.0,0.0,0.0,0.0,0.0,0.0,0.0,0.0,0.0,0.0,0.0,0.0,0.0,0.0,0.0,0.0,0.0,0.0,0.0,0.0,0.0,0.0,0.0,0.0,0.0,0.0,0.0,0.0,0.0,0.0,0.0,0.0,0.0,0.0,0.0,0.0,0.0,0.0,0.0,0.0,0.0,0.0,0.0,0.0,0.0,0.0,0.0,0.0,0.0,0.0,0.0,0.0,0.0,0.0,0.0,0.0,0.0,0.0,0.0,0.0,0.0,0.0,0.0,0.0,0.0,0.0,0.0,0.0,0.0,0.0,0.0,0.0,0.0,0.0,0.0,0.0,0.0,0.0,0.0,0.0,3.274,3.1614,3.0386,3.0038,2.958,2.8951,0.0,0.0,0.0,0.0,0.0,0.0,0.0,0.0,0.0,0.0,0.0,0.0,0.0,0.0,0.0,0.0,0.0,0.0,0.0,0.0,0.0,0.0,0.0,0.0,0.0,0.0,0.0,0.0,0.0,0.0,0.0,0.0,0.0,0.0,0.0,0.0,0.0,0.0,0.0,0.0,0.0,0.0,0.0,0.0,0.0,0.0,0.0,0.0,0.0,0.0,0.0,0.0,0.0,0.0,0.0,0.0,0.0,0.0,0.0,0.0,0.0,0.0,0.0,0.0,0.0,0.0,0.0,0.0,0.0,0.0,0.0,0.0,0.0,0.0,0.0,0.0,0.0,0.0,0.0,0.0,0.0,0.0,0.0,0.0,0.0,0.0,0.0,0.0,0.0,0.0,0.0,0.0,0.0,0.0,0.0,0.0,0.0,0.0,0.0,0.0,0.0,0.0,0.0,0.0,0.0,0.0,0.0,0.0,3.1549,3.0623,2.9641,2.8667,2.8446,2.8271,0.0,0.0,0.0,0.0,0.0,0.0,0.0,0.0,0.0,0.0,0.0,0.0,0.0,0.0,0.0,0.0,0.0,0.0,0.0,0.0,0.0,0.0,0.0,0.0,0.0,0.0,0.0,0.0,0.0,0.0,0.0,0.0,0.0,0.0,0.0,0.0,0.0,0.0,0.0,0.0,0.0,0.0,0.0,0.0,0.0,0.0,0.0,0.0,0.0,0.0,0.0,0.0,0.0,0.0,0.0,0.0,0.0,0.0,0.0,0.0,0.0,0.0,0.0,0.0,0.0,0.0,0.0,0.0,0.0,0.0,0.0,0.0,0.0,0.0,0.0,0.0,0.0,0.0,0.0,0.0,0.0,0.0,0.0,0.0,0.0,0.0,0.0,0.0,0.0,0.0,0.0,0.0,0.0,0.0,0.0,0.0,0.0,0.0,0.0,0.0,0.0,0.0,0.0,0.0,0.0,0.0,0.0,0.0,0.0,3.0376,2.8851,2.7936,2.7615,2.7449,2.7246,0.0,0.0,0.0,0.0,0.0,0.0,0.0,0.0,0.0,0.0,0.0,0.0,0.0,0.0,0.0,0.0,0.0,0.0,0.0,0.0,0.0,0.0,0.0,0.0,0.0,0.0,0.0,0.0,0.0,0.0,0.0,0.0,0.0,0.0,0.0,0.0,0.0,0.0,0.0,0.0,0.0,0.0,0.0,0.0,0.0,0.0,0.0,0.0,0.0,0.0,0.0,0.0,0.0,0.0,0.0,0.0,0.0,0.0,0.0,0.0,0.0,0.0,0.0,0.0,0.0,0.0,0.0,0.0,0.0,0.0,0.0,0.0,0.0,0.0,0.0,0.0,0.0,0.0,0.0,0.0,0.0,0.0,0.0,0.0,0.0,0.0,0.0,0.0,0.0,0.0,0.0,0.0,0.0,0.0,0.0,0.0,0.0,0.0,0.0,0.0,0.0,0.0,0.0,0.0,0.0,0.0,0.0,0.0,0.0,2.8728,0.0,2.6651,2.6573,2.6414,2.6147,0.0,0.0,0.0,0.0,0.0,0.0,0.0,0.0,0.0,0.0,0.0,0.0,0.0,0.0,0.0,0.0,0.0,0.0,0.0,0.0,0.0,0.0,0.0,0.0,0.0,0.0,0.0,0.0,0.0,0.0,0.0,0.0,0.0,0.0,0.0,0.0,0.0,0.0,0.0,0.0,0.0,0.0,0.0,0.0,0.0,0.0,0.0,0.0,0.0,0.0,0.0,0.0,0.0,0.0,0.0,0.0,0.0,0.0,0.0,0.0,0.0,0.0,0.0,0.0,0.0,0.0,0.0,0.0,0.0,0.0,0.0,0.0,0.0,0.0,0.0,0.0,0.0,0.0,0.0,0.0,0.0,0.0,0.0,0.0,0.0,0.0,0.0,0.0,0.0,0.0,0.0,0.0,0.0,0.0,0.0,0.0,0.0,0.0,0.0,0.0,0.0,0.0,0.0,0.0,0.0,0.0,0.0,0.0,2.7853,2.6568,2.6176,2.5756,2.5412,2.5258,2.5021,0.0,0.0,0.0,0.0,0.0,0.0,0.0,0.0,0.0,0.0,0.0,0.0,0.0,0.0,0.0,0.0,0.0,0.0,0.0,0.0,0.0,0.0,0.0,0.0,0.0,0.0,0.0,0.0,0.0,0.0,0.0,0.0,0.0,0.0,0.0,0.0,0.0,0.0,0.0,0.0,0.0,0.0,0.0,0.0,0.0,0.0,0.0,0.0,0.0,0.0,0.0,0.0,0.0,0.0,0.0,0.0,0.0,0.0,0.0,0.0,0.0,0.0,0.0,0.0,0.0,0.0,0.0,0.0,0.0,0.0,0.0,0.0,0.0,0.0,0.0,0.0,0.0,0.0,0.0,0.0,0.0,0.0,0.0,0.0,0.0,0.0,0.0,0.0,0.0,0.0,0.0,0.0,0.0,0.0,0.0,0.0,0.0,0.0,0.0,0.0,0.0,0.0,0.0,0.0,0.0,0.0,0.0,0.0,0.0,2.5391,2.521,2.4754,2.3981,2.3773,2.3427,0.0,0.0,0.0,0.0,0.0,0.0,0.0,0.0,0.0,0.0,0.0,0.0,0.0,0.0,0.0,0.0,0.0,0.0,0.0,0.0,0.0,0.0,0.0,0.0,0.0,0.0,0.0,0.0,0.0,0.0,0.0,0.0,0.0,0.0,0.0,0.0,0.0,0.0,0.0,0.0,0.0,0.0,0.0,0.0,0.0,0.0,0.0,0.0,0.0,0.0,0.0,0.0,0.0,0.0,0.0,0.0,0.0,0.0,0.0,0.0,0.0,0.0,0.0,0.0,0.0,0.0,0.0,0.0,0.0,0.0,0.0,0.0,0.0,0.0,0.0,0.0,0.0,0.0,0.0,0.0,0.0,0.0,0.0,0.0,0.0,0.0,0.0,0.0,0.0,0.0,0.0,0.0,0.0,0.0,0.0,0.0,0.0,0.0,0.0,0.0,0.0,0.0,0.0,0.0,0.0,0.0,0.0,0.0,0.0,2.2941,2.3251,2.306,2.2294,2.1978,2.1758,2.1481,0.0,0.0,0.0,0.0,0.0,0.0,0.0,0.0,0.0,0.0,0.0,0.0,0.0,0.0,0.0,0.0,0.0,0.0,0.0,0.0,0.0,0.0,0.0,0.0,0.0,0.0,0.0,0.0,0.0,0.0,0.0,0.0,0.0,0.0,0.0,0.0,0.0,0.0,0.0,0.0,0.0,0.0,0.0,0.0,0.0,0.0,0.0,0.0,0.0,0.0,0.0,0.0,0.0,0.0,0.0,0.0,0.0,0.0,0.0,0.0,0.0,0.0,0.0,0.0,0.0,0.0,0.0,0.0,0.0,0.0,0.0,0.0,0.0,0.0,0.0,0.0,0.0,0.0,0.0,0.0,0.0,0.0,0.0,0.0,0.0,0.0,0.0,0.0,0.0,0.0,0.0,0.0,0.0,0.0,0.0,0.0,0.0,0.0,0.0,0.0,0.0,0.0,0.0,0.0,0.0,0.0,0.0,0.0,1.9429,2.0494,2.0762,2.0326,1.999,1.9897,0.0,0.0,0.0,0.0,0.0,0.0,0.0,0.0,0.0,0.0,0.0,0.0,0.0,0.0,0.0,0.0,0.0,0.0,0.0,0.0,0.0,0.0,0.0,0.0,0.0,0.0,0.0,0.0,0.0,0.0,0.0,0.0,0.0,0.0,0.0,0.0,0.0,0.0,0.0,0.0,0.0,0.0,0.0,0.0,0.0,0.0,0.0,0.0,0.0,0.0,0.0,0.0,0.0,0.0,0.0,0.0,0.0,0.0,0.0,0.0,0.0,0.0,0.0,0.0,0.0,0.0,0.0,0.0,0.0,0.0,0.0,0.0,0.0,0.0,0.0,0.0,0.0,0.0,0.0,0.0,0.0,0.0,0.0,0.0,0.0,0.0,0.0,0.0,0.0,0.0,0.0,0.0,0.0,0.0,0.0,0.0,0.0,0.0,0.0,0.0,0.0,0.0,0.0,0.0,0.0,0.0,0.0,0.0,0.0,1.7098,1.6601,1.6877,1.8015,1.7471,1.7288,0.0,0.0,0.0,0.0,0.0,0.0,0.0,0.0,0.0,0.0,0.0,0.0,0.0,0.0,0.0,0.0,0.0,0.0,0.0,0.0,0.0,0.0,0.0,0.0,0.0,0.0,0.0,0.0,0.0,0.0,0.0,0.0,0.0,0.0,0.0,0.0,0.0,0.0,0.0,0.0,0.0,0.0,0.0,0.0,0.0,0.0,0.0,0.0,0.0,0.0,0.0,0.0,0.0,0.0,0.0,0.0,0.0,0.0,0.0,0.0,0.0,0.0,0.0,0.0,0.0,0.0,0.0,0.0,0.0,0.0,0.0,0.0,0.0,0.0,0.0,0.0,0.0,0.0,0.0,0.0,0.0,0.0,0.0,0.0,0.0,0.0,0.0,0.0,0.0,0.0,0.0,0.0,0.0,0.0,0.0,0.0,0.0,0.0,0.0,0.0,0.0,0.0,0.0,0.0,0.0,0.0,0.0,0.0,1.536,1.4349,1.3185,1.3082,1.3917,1.4529,1.49,0.0,0.0,0.0,0.0,0.0,0.0,0.0,0.0,0.0,0.0,0.0,0.0,0.0,0.0,0.0,0.0,0.0,0.0,0.0,0.0,0.0,0.0,0.0,0.0,0.0,0.0,0.0,0.0,0.0,0.0,0.0,0.0,0.0,0.0,0.0,0.0,0.0,0.0,0.0,0.0,0.0,0.0,0.0,0.0,0.0,0.0,0.0,0.0,0.0,0.0,0.0,0.0,0.0,0.0,0.0,0.0,0.0,0.0,0.0,0.0,0.0,0.0,0.0,0.0,0.0,0.0,0.0,0.0,0.0,0.0,0.0,0.0,0.0,0.0,0.0,0.0,0.0,0.0,0.0,0.0,0.0,0.0,0.0,0.0,0.0,0.0,0.0,0.0,0.0,0.0,0.0,0.0,0.0,0.0,0.0,0.0,0.0,0.0,0.0,0.0,0.0,0.0,0.0,0.0,0.0,0.0,0.0,0.0,1.2502,1.14,1.0255,0.9528,0.914,1.1324,1.2628,0.0,0.0,0.0,0.0,0.0,0.0,0.0,0.0,0.0,0.0,0.0,0.0,0.0,0.0,0.0,0.0,0.0,0.0,0.0,0.0,0.0,0.0,0.0,0.0,0.0,0.0,0.0,0.0,0.0,0.0,0.0,0.0,0.0,0.0,0.0,0.0,0.0,0.0,0.0,0.0,0.0,0.0,0.0,0.0,0.0,0.0,0.0,0.0,0.0,0.0,0.0,0.0,0.0,0.0,0.0,0.0,0.0,0.0,0.0,0.0,0.0,0.0,0.0,0.0,0.0,0.0,0.0,0.0,0.0,0.0,0.0,0.0,0.0,0.0,0.0,0.0,0.0,0.0,0.0,0.0,0.0,0.0,0.0,0.0,0.0,0.0,0.0,0.0,0.0,0.0,0.0,0.0,0.0,0.0,0.0,0.0,0.0,0.0,0.0,0.0,0.0,0.0,0.0,0.0,0.0,0.0,0.0,0.0,1.0267,0.8785,0.8585,0.7746,0.6288,0.8215,0.9505,0.0,0.0,0.0,0.0,0.0,0.0,0.0,0.0,0.0,0.0,0.0,0.0,0.0,0.0,0.0,0.0,0.0,0.0,0.0,0.0,0.0,0.0,0.0,0.0,0.0,0.0,0.0,0.0,0.0,0.0,0.0,0.0,0.0,0.0,0.0,0.0,0.0,0.0,0.0,0.0,0.0,0.0,0.0,0.0,0.0,0.0,0.0,0.0,1.2053,0.0,0.0,0.0,0.0,0.0,0.0,0.0,0.0,0.0,0.0,0.0,0.0,0.0,0.0,0.0,0.0,0.0,0.0,0.0,0.0,0.0,0.0,0.0,0.0,0.0,0.0,0.0,0.0,0.0,0.0,0.0,0.0,0.0,0.0,0.0,0.0,0.0,0.0,0.0,0.0,0.0,0.0,0.0,0.0,0.0,0.0,0.0,0.0,0.0,0.0,0.0,0.0,0.0,0.0,0.0,0.0,0.0,0.0,0.0,0.8168,0.6021,0.5405,0.455,0.3554,0.4612,0.6039,0.0,0.0,0.0,0.0,0.0,0.0,0.0,0.0,0.0,0.0,0.0,0.0,0.0,0.0,0.0,0.0,0.0,0.0,0.0,0.0,0.0,0.0,0.0,0.0,0.0,0.0,0.0,0.0,0.0,0.0,0.0,0.0,0.0,0.0,0.0,0.0,0.0,0.0,0.0,0.0,0.0,0.0,0.0,0.0,0.0,0.0,0.0,0.0,0.0,0.0,0.0,0.0,0.0,0.0,0.0,0.0,0.0,0.0,0.0,0.0,0.0,0.0,0.0,0.0,0.0,0.0,0.0,0.0,0.0,0.0,0.0,0.0,0.0,0.0,0.0,0.0,0.0,0.0,0.0,0.0,0.0,0.0,0.0,0.0,0.0,0.0,0.0,0.0,0.0,0.0,0.0,0.0,0.0,0.0,0.0,0.0,0.0,0.0,0.0,0.0,0.0,0.0,0.0,0.0,0.0,0.0,0.0,0.7597,0.5886,0.3348,0.1807,0.0912,0.0808,0.0978,0.2255,0.4674,0.0,0.0,0.0,0.0,0.0,0.0,0.0,0.0,0.0,0.0,0.0,0.0,0.0,0.0,0.0,0.0,0.0,0.0,0.0,0.0,0.0,0.0,0.0,0.0,0.0,0.0,0.0,0.0,0.0,0.0,0.0,0.0,0.0,0.0,0.0,0.0,0.0,0.0,1.7613,1.5988,0.0,0.0,0.0,0.0,0.0,0.0,0.0,0.0,0.6718,0.0,0.0,0.0,0.0,0.0,0.0,0.0,0.0,0.0,0.0,0.0,0.0,0.0,0.0,0.0,0.0,0.0,0.0,0.0,0.0,0.0,0.0,0.0,0.0,0.0,0.0,0.0,0.0,0.0,0.0,0.0,0.0,0.0,0.0,0.0,0.0,0.0,0.0,0.0,0.0,0.0,0.0,0.0,0.0,0.0,0.0,0.0,0.0,0.0,0.0,0.0,0.0,0.0,0.0,0.0,0.0,0.797,0.4947,0.2619,0.1024,-0.0835,-0.1569,-0.1236,-0.2118,-0.1567,0.0564,0.0,0.0,0.0,0.0,0.0,0.0,0.0,0.0,0.0,0.0,0.0,0.0,0.0,0.0,0.0,0.0,0.0,0.0,0.0,0.0,0.0,0.0,0.0,0.0,0.0,0.0,0.0,0.0,0.0,0.0,0.0,0.0,0.0,0.0,0.0,0.0,0.0,0.0,0.0,1.2246,1.0968,0.0,0.0,0.0,0.0,0.0,0.0,0.0,0.0,0.2161,0.0,0.0,0.0,0.0,0.0,0.0,0.0,0.0,0.0,0.0,0.0,0.0,0.0,0.0,0.0,0.0,0.0,0.0,0.0,0.0,0.0,0.0,0.0,0.0,0.0,0.0,0.0,0.0,0.0,0.0,0.0,0.0,0.0,0.0,0.0,0.0,0.0,0.0,0.0,0.0,0.0,0.0,0.0,0.0,0.0,0.0,0.0,0.0,0.0,0.0,0.0,0.0,0.0,0.0,0.0,0.4933,0.2188,0.0103,-0.1362,-0.3384,-0.4322,-0.393,-0.4067,-0.3446,0.0,0.0,0.0,0.0,0.0,0.0,0.0,0.0,0.0,0.0,0.0,0.0,0.0,0.0,0.0,0.0,0.0,0.0,0.0,0.0,0.0,0.0,0.0,0.0,0.0,0.0,0.0,0.0,0.0,0.0,0.0,0.0,0.0,0.0,0.0,0.0,0.0,0.0,0.0,0.0,1.0205,0.9193,0.8821,0.0,0.0,0.0,0.0,0.0,0.0,-0.1819,-0.2229,0.0,0.0,0.0,0.0,0.0,0.0,0.0,0.0,0.0,0.0,0.0,0.0,0.0,0.0,0.0,0.0,0.0,0.0,0.0,0.0,0.0,0.0,0.0,0.0,0.0,0.0,0.0,0.0,0.0,0.0,0.0,0.0,0.0,0.0,0.0,0.0,0.0,0.0,0.0,0.0,0.0,0.0,0.0,0.0,0.0,0.0,0.0,0.0,0.0,0.0,0.0,0.0,0.0,0.0,0.0,0.1767,-0.0306,-0.2201,-0.4053,-0.579,-0.6489,-0.6246,-0.5641,-0.4948,0.0,0.0,0.0,0.0,0.0,0.0,0.0,0.0,0.0,0.0,0.0,0.0,0.0,0.0,0.0,0.0,0.0,0.0,0.0,0.0,0.0,0.0,0.0,0.0,0.0,0.0,0.0,0.0,0.0,0.0,0.0,0.0,0.0,0.0,0.0,0.0,0.0,0.0,0.0,0.0,0.0,0.7386,0.6981,0.451,0.0,0.0,0.0,0.0,-0.382,-0.4951,0.0,0.0,0.0,0.0,0.0,0.0,0.0,0.0,0.0,0.0,0.0,0.0,0.0,0.0,0.0,0.0,0.0,0.0,0.0,0.0,0.0,0.0,0.0,0.0,0.0,0.0,0.0,0.0,0.0,0.0,0.0,0.0,0.0,0.0,0.0,0.0,0.0,0.0,0.0,0.0,0.0,0.0,0.0,0.0,0.0,0.0,0.0,0.0,0.0,0.0,0.0,0.0,0.0,0.0,0.0,0.0,-0.03,-0.2183,-0.4488,-0.6964,-0.7388,-0.7437,-0.741,-0.7386,-0.6628,0.0,0.0,0.0,0.0,0.0,0.0,0.0,0.0,0.0,0.0,0.0,0.0,0.0,0.0,0.0,0.0,0.0,0.0,0.0,0.0,0.0,0.0,0.0,0.0,0.0,0.0,0.0,0.0,0.0,0.0,0.0,0.0,0.0,0.0,0.0,0.0,0.0,0.0,0.0,0.0,0.0,0.4123,0.2968,0.0966,-0.0867,0.0,0.0,-0.4555,-0.6798,-0.6549,0.0,0.0,0.0,0.0,0.0,0.0,0.0,0.0,0.0,0.0,0.0,0.0,0.0,0.0,0.0,0.0,0.0,0.0,0.0,0.0,0.0,0.0,0.0,0.0,0.0,0.0,0.0,0.0,0.0,0.0,0.0,0.0,0.0,0.0,0.0,0.0,0.0,0.0,0.0,0.0,0.0,0.0,0.0,0.0,0.0,0.0,0.0,0.0,0.0,0.0,0.0,0.0,0.0,0.0,0.0,-0.0098,-0.2348,-0.4126,-0.5976,-0.7844,-0.8452,-0.8821,-0.8718,-0.8523,-0.7683,0.0,0.0,0.0,0.0,0.0,0.0,0.0,0.0,0.0,0.0,0.0,0.0,0.0,0.0,0.0,0.0,0.0,0.0,0.0,0.0,0.0,0.0,0.0,0.0,0.0,0.0,0.0,0.0,0.0,0.0,0.0,0.0,0.0,0.0,0.0,0.0,0.0,0.0,0.0,0.0,0.0,0.0,0.0218,-0.1664,0.0,0.0,0.0,-0.7364,-0.9168,0.0,0.0,0.0,0.0,0.0,0.0,0.0,0.0,0.0,0.0,0.0,0.0,0.0,0.0,0.0,0.0,0.0,0.0,0.0,0.0,0.0,0.0,0.0,0.0,0.0,0.0,0.0,0.0,0.0,0.0,0.0,0.0,0.0,0.0,0.0,0.0,0.0,0.0,0.0,0.0,0.0,0.0,0.0,0.0,0.0,0.0,0.0,0.0,0.0,0.0,0.0,0.0,0.0,0.0,0.0,0.0,0.0,-0.4579,-0.5899,-0.7242,-0.8472,-0.9585,-1.0066,-1.0,-0.9655,0.0,0.0,0.0,0.0,0.0,0.0,0.0,0.0,0.0,0.0,0.0,0.0,0.0,0.0,0.0,0.0,0.0,0.0,0.0,0.0,0.0,0.0,0.0,0.0,0.0,0.0,0.0,0.7434,0.0,0.0,0.0,0.0,0.0,0.0,0.0,0.0,0.0,0.0,0.0,0.0,0.0,0.0,0.0538,-0.2353,-0.3981,-0.5735,0.0,0.0,-0.9672,-1.0922,-1.0379,-1.0073,0.0,0.0,0.0,0.0,0.0,0.0,0.0,0.0,0.0,0.0,0.0,0.0,0.0,0.0,0.0,0.0,0.0,0.0,0.0,0.0,0.0,0.0,0.0,0.0,0.0,0.0,0.0,0.0,0.0,0.0,0.0,0.0,0.0,0.0,0.0,0.0,0.0,0.0,0.0,0.0,0.0,0.0,0.0,0.0,0.0,0.0,0.0,0.0,0.0,0.0,0.0,0.0,0.0,0.0,-0.4021,-0.7211,-0.7657,-0.855,-1.0021,-1.0692,-1.1042,-1.1189,-1.0625,-0.9827,0.0,0.0,0.0,0.0,0.0,0.0,0.0,0.0,0.0,0.0,0.0,0.0,0.0,0.0,0.0,0.0,0.0,0.0,0.0,0.0,0.0,0.0,0.0,0.0,0.0,0.0,0.0,0.0,0.0,0.0,0.0,0.0,0.0,0.0,0.0,0.0,0.0,0.0,0.0,0.0,0.0,-0.1732,-0.5015,-0.5959,-0.7021,0.0,-1.0065,-1.1176,-1.1962,-1.1799,-1.1658,-1.1964,0.0,0.0,0.0,0.0,0.0,0.0,0.0,0.0,0.0,0.0,0.0,0.0,0.0,0.0,0.0,0.0,0.0,0.0,0.0,0.0,0.0,0.0,0.0,0.0,0.0,0.0,0.0,0.0,0.0,0.0,0.0,0.0,0.0,0.0,0.0,0.0,0.0,0.0,0.0,0.0,0.0,0.0,0.0,0.0,0.0,0.0,0.0,0.0,0.0,0.0,0.0,0.0,0.0,-0.5906,-0.7957,-0.8122,-0.9189,-1.118,-1.1845,-1.2265,-1.2188,-1.1629,-1.0703,0.0,0.0,0.0,0.0,0.0,0.0,0.0,0.0,0.0,0.0,0.0,0.0,0.0,0.0,0.0,0.0,0.0,0.0,0.0,0.0,0.0,0.0,0.0,0.0,0.0,0.0,0.0,0.0,0.2158,0.2066,0.2324,0.0,0.0,0.0,0.0,0.0,0.0,0.0,0.0,0.0,0.0,-0.3105,-0.5486,-0.699,0.0,0.0,-1.1537,-1.2698,-1.3565,-1.3329,-1.3192,-1.372,-1.2,0.0,0.0,0.0,0.0,0.0,0.0,0.0,0.0,0.0,0.0,0.0,0.0,0.0,0.0,0.0,0.0,0.0,0.0,0.0,0.0,0.0,0.0,0.0,0.0,0.0,0.0,0.0,0.0,0.0,0.0,0.0,0.0,0.0,0.0,0.0,0.0,0.0,0.0,0.0,0.0,0.0,0.0,0.0,0.0,0.0,0.0,0.0,0.0,0.0,0.0,0.0,0.0,-0.7147,-0.8711,-0.904,-1.0257,-1.2271,-1.2861,-1.3207,-1.2955,-1.2372,-1.145,0.0,0.0,0.0,0.0,0.0,0.0,0.0,0.0,0.0,0.0,0.0,0.0,0.0,0.0,0.0,0.0,0.0,0.0,0.0,0.0,0.0,0.0,0.0,0.0,0.0,0.0,0.0,0.0,-0.0,0.0209,0.1106,0.0,0.0,0.0,0.0,0.0,0.0,0.0,0.0,0.0,0.0,-0.4734,-0.6327,-0.802,-0.972,-1.1197,-1.2631,-1.3799,-1.4629,-1.4447,-1.4311,-1.4898,0.0,0.0,0.0,0.0,0.0,0.0,0.0,0.0,0.0,0.0,0.0,0.0,0.0,0.0,0.0,0.0,0.0,0.0,0.0,0.0,0.0,0.0,0.0,0.0,0.0,0.0,0.0,0.1423,0.0,0.0,0.3233,0.0,0.0,0.0,0.0,0.0,0.0,0.0,0.0,0.0,0.0,0.0,0.0,0.0,0.0,0.0,0.0,0.0,0.0,0.0,0.0,0.0,0.0,-0.783,-0.9889,-1.085,-1.1946,-1.3055,-1.3645,-1.3878,-1.3517,-1.2936,-1.2063,-1.0794,0.0,0.0,0.0,0.0,0.0,0.0,0.0,0.0,0.0,0.0,0.0,0.0,0.0,0.0,0.0,0.0,0.0,0.0,0.0,0.0,0.0,0.0,0.0,0.0,0.0,0.0,-0.1626,-0.2042,-0.167,0.0,0.0,0.0,0.0,0.0,0.0,0.0,0.0,0.0,-0.3066,-0.5261,-0.7032,-0.7472,-0.9023,-1.0603,-1.196,-1.332,-1.4411,-1.4997,-1.4928,-1.4898,0.0,0.0,0.0,0.0,0.0,0.0,0.0,0.0,0.0,0.0,0.0,0.0,0.0,0.0,0.0,0.0,0.0,0.0,0.0,0.0,0.0,0.0,0.0,0.0,0.0,0.0,0.0,-0.1776,-0.1876,0.0,0.0,0.0,0.0,0.0,0.0,0.0,0.0,0.0,0.0,0.0,-0.1838,-0.3137,0.0,0.0,0.0,0.0,0.0,0.0,0.0,0.0,0.0,0.0,0.0,0.0,-0.8685,-1.0672,-1.1764,-1.2817,-1.3843,-1.4696,-1.4823,-1.4325,-1.3616,-1.2091,-1.004,0.0,0.0,0.0,0.0,0.0,0.0,0.0,0.0,0.0,0.0,0.0,0.0,0.0,0.0,0.0,0.0,0.0,0.0,0.0,0.0,0.0,0.0,0.0,0.0,0.0,-0.2023,0.0,0.0,0.0,0.0,0.0,0.0,0.0,0.0,0.0,0.0,0.0,-0.4291,-0.4717,-0.6173,-0.7546,-0.8564,-0.9765,-1.1086,0.0,0.0,0.0,0.0,0.0,0.0,0.0,0.0,0.0,0.0,0.0,0.0,0.0,0.0,-1.1554,-1.0597,-1.0597,-1.0816,-1.0928,0.0,0.0,0.0,0.0,0.0,0.0,0.0,0.0,0.0,0.0,0.0,0.0,0.0,0.0,-0.4488,0.0,-0.3242,0.0,0.0,0.0,0.0,0.0,0.0,0.0,0.0,-0.3277,-0.3529,-0.3755,-0.5129,-0.5932,0.0,-0.609,-0.5068,0.0,0.0,0.0,0.0,0.0,0.0,0.0,0.0,-0.9544,-1.1535,-1.2416,-1.3374,-1.43,-1.5037,-1.529,-1.4917,-1.3649,-1.2022,-0.9964,-0.8582,-0.7248,0.0,0.0,0.0,0.0,0.0,0.0,0.0,0.0,0.0,0.0,0.0,0.0,0.0,0.0,0.0,0.0,0.0,0.0,0.0,0.0,0.0,0.0,0.0,-0.3789,0.0,0.0,0.0,0.0,0.0,0.0,0.0,0.0,0.0,-0.3562,-0.4749,-0.589,-0.6245,-0.7166,-0.8289,-0.9357,0.0,0.0,0.0,0.0,0.0,0.0,0.0,-1.6492,-1.688,-1.7206,-1.7153,-1.68,-1.592,-1.5259,-1.5023,0.0,0.0,-1.3063,-1.2865,-1.3116,-1.3184,-1.3315,-1.333,-1.3409,-1.3643,-1.3785,0.0,0.0,0.0,0.0,0.0,0.0,0.0,0.0,-0.6995,-0.6927,0.0,-0.5706,0.0,0.0,0.0,0.0,0.0,-0.5096,0.0,0.0,-0.5031,-0.5185,-0.5781,-0.5785,-0.6014,-0.6244,-0.6598,-0.6823,-0.7018,-0.553,0.0,0.0,0.0,0.0,0.0,0.0,-1.0424,-1.2144,-1.291,-1.3702,-1.4262,-1.4753,-1.5007,-1.4903,-1.3026,-1.1504,-1.0535,-0.9071,-0.7949,-0.726,-0.5649,0.0,0.0,0.0,0.0,0.0,0.0,0.0,0.0,0.0,0.0,0.0,0.0,0.0,0.0,0.0,0.0,0.0,0.0,0.0,0.0,-0.4614,0.0,0.0,0.0,0.0,0.0,0.0,0.0,0.0,0.0,-0.5487,-0.516,-0.5727,-0.6473,-0.7494,0.0,0.0,0.0,0.0,-1.3102,-1.4062,-1.5017,-1.5861,-1.6453,-1.6766,-1.692,-1.6937,0.0,0.0,-1.7919,-1.7538,-1.7262,-1.7291,-1.724,-1.6746,-1.4986,-1.5069,-1.5482,-1.5808,-1.5969,-1.628,-1.6615,-1.6402,-1.6594,-1.4477,0.0,0.0,0.0,0.0,-1.0765,-1.0747,-1.0529,-1.0007,-0.9669,-0.9124,-0.8177,0.0,0.0,0.0,0.0,0.0,0.0,-0.6758,-0.689,-0.7182,-0.7521,-0.7902,-0.79,-0.8021,-0.8013,-0.8301,-0.8337,-0.8119,-0.7744,-0.7392,-0.7188,0.0,0.0,0.0,0.0,-1.0599,-1.1983,-1.2754,-1.3348,-1.3918,-1.4406,-1.4411,-1.3693,-1.2312,-1.1268,-1.0558,-0.9241,-0.8226,-0.7607,-0.6286,0.0,0.0,0.0,0.0,0.0,0.0,0.0,0.0,0.0,0.0,0.0,0.0,0.0,0.0,0.0,0.0,0.0,0.0,0.0,-0.5127,-0.5816,-0.5985,0.0,0.0,0.0,0.0,0.0,0.0,0.0,0.0,0.0,-0.693,-0.7067,-0.7562,0.0,0.0,-1.0641,-1.174,-1.2882,-1.4004,-1.5243,-1.5852,0.0,-1.6958,-1.7497,-1.7976,-1.8167,-1.8759,-1.9175,-1.9436,-1.8902,-1.8404,-1.8416,-1.8165,-1.7812,-1.7317,-1.7109,-1.7241,-1.7552,-1.7751,-1.7745,-1.7889,-1.7845,-1.8015,-1.7161,-1.5214,-1.4291,-1.3703,-1.3343,-1.347,-1.3424,-1.3182,-1.2706,-1.2213,-1.1638,-1.0532,-0.9677,-0.8992,-0.7951,0.0,0.0,0.0,-0.8013,-0.827,-0.854,-0.8736,-0.9,-0.9,-0.8997,-0.8988,-0.9166,-0.9084,-0.9004,-0.9048,-0.9048,-0.8875,0.0,0.0,-0.9924,-1.0219,-1.0845,-1.2065,-1.2623,-1.3116,-1.3554,-1.392,-1.3639,-1.2721,-1.1983,-1.1175,-1.0296,-0.9394,-0.8531,-0.7718,-0.6754,-0.5822,0.0,0.0,0.0,0.0,0.0,0.0,0.0,0.0,0.0,0.0,0.0,-0.1548,-0.2078,0.0,0.0,0.0,-0.4345,-0.5641,-0.6567,-0.6869,0.0,0.0,0.0,0.0,0.0,0.0,0.0,-0.6526,-0.6882,-0.7367,-0.8225,-0.845,-0.8738,-0.9421,-1.0471,-1.1499,-1.2747,0.0,-1.4928,-1.6058,-1.6791,-1.728,-1.779,-1.8489,-1.8889,-1.9173,-1.9462,-1.9707,-1.9833,-1.9325,-1.8976,-1.8845,-1.8726,-1.8601,-1.8726,-1.8595,-1.8553,-1.8456,-1.8477,-1.86,-1.8672,-1.8607,-1.8744,-1.9187,-1.8834,-1.7596,-1.6695,-1.6161,-1.6032,-1.5908,-1.5535,-1.4932,-1.4558,-1.4418,-1.2805,-1.1921,-1.1404,-1.0012,0.0,-0.8872,-0.9261,-0.9395,-0.9395,-0.9404,-0.941,-0.941,-0.9413,-0.9413,-0.9413,-0.941,-0.9535,-0.9774,-0.9774,-1.0025,-1.0263,-0.949,-0.9449,-1.0273,-1.0535,-1.1164,-1.216,-1.2703,-1.3119,-1.3403,-1.3148,-1.2699,-1.2056,-1.1929,-1.1229,-0.9846,-0.9346,-0.8668,-0.7806,-0.6997,-0.6269,-0.5514,0.0,0.0,0.0,0.0,0.0,0.0,0.0,0.0,0.0,0.0,0.0,0.0,0.0,0.0,-0.4278,-0.5803,0.0,-0.7562,-0.7679,0.0,0.0,0.0,-0.6655,-0.6561,-0.664,-0.6937,-0.7522,0.0,0.0,-0.9374,-0.9606,-0.9982,-1.0228,-1.1206,-1.2182,-1.3321,-1.4596,-1.5732,-1.6756,-1.7725,-1.8465,-1.8649,-1.9181,-1.9657,-1.9903,-1.9845,-1.9693,-1.9693,-1.9437,-1.9194,-1.917,-1.9066,-1.9182,-1.9444,-1.9413,-1.9376,-1.8878,-1.8781,-1.8955,-1.9091,-1.9261,-1.9242,-2.0087,-1.9783,-1.9398,-1.8775,-1.7778,-1.7778,-1.7655,-1.7173,-1.6991,-1.6343,-1.5441,-1.4726,-1.3436,-1.166,-1.0644,-0.9882,-0.9506,-0.9745,-0.9793,-0.9802,-1.0169,-1.0349,-1.0349,-1.0349,-1.0349,-1.0349,-1.0349,-1.029,-1.031,-1.0307,-1.0385,-1.0276,-1.0137,-1.0191,-1.0688,-1.0974,-1.1385,-1.1924,-1.2595,-1.2884,-1.2909,-1.267,-1.228,-1.1736,-1.098,-1.0399,-1.0002,-0.9094,-0.8491,-0.8065,-0.7192,-0.6643,-0.6281,-0.5318,0.0,0.0,0.0,0.0,0.0,0.0,0.0,0.0,0.0,-0.3773,-0.5019,0.0,-0.5056,0.0,-0.7059,-0.7803,-0.7929,-0.8415,0.0,0.0,-0.8406,-0.8254,-0.8193,-0.8352,-0.8526,-0.8877,-0.8973,-0.9154,-0.9658,-0.9813,-1.0297,-1.1162,-1.1954,-1.2884,-1.4162,-1.5455,-1.6589,-1.7463,-1.8227,-1.8637,-1.9,-1.9308,-1.9751,-2.0094,-1.9979,-1.9979,-1.9973,-1.9717,-1.945,-1.945,-1.9328,-1.9206,-1.92,-1.92,-1.9182,-1.9121,-1.9351,-1.9745,-1.9839,-1.987,-1.9883,-2.0736,-2.0609,-2.0482,-2.0168,-1.9629,-1.9256,-1.9013,-1.8638,-1.841,-1.7632,-1.6509,-1.5485,-1.4047,-1.2278,-1.1501,-1.0855,-1.0473,-1.0297,-1.033,-1.0336,-1.0548,-1.0721,-1.0721,-1.0721,-1.0721,-1.0721,-1.0721,-1.0677,-1.0595,-1.0592,-1.0555,-1.0477,-1.0477,-1.0606,-1.0729,-1.0984,-1.1329,-1.1652,-1.2114,-1.2278,-1.227,-1.202,-1.1603,-1.114,-1.0503,-0.9921,-0.9397,-0.8887,-0.8443,-0.7943,-0.7439,-0.7021,-0.6793,-0.593,-0.533,0.0,0.0,0.0,0.0,0.0,0.0,0.0,0.0,0.0,0.0,0.0,-0.6124,-0.6927,-0.7681,-0.8259,-0.8635,-0.9013,-0.9136,-0.9139,-0.9074,-0.9059,-0.9007,-0.9139,-0.9289,-0.9497,-0.956,-0.9726,-1.0111,-1.0237,-1.0595,-1.1508,-1.2291,-1.3198,-1.4632,-1.5774,-1.6882,-1.7776,-1.8431,-1.895,-1.9462,-1.9717,-1.9839,-1.9839,-1.9845,-1.9845,-1.9717,-1.9456,-1.9322,-1.9328,-1.92,-1.9072,-1.9072,-1.9072,-1.9072,-1.92,-1.9334,-1.959,-1.959,-1.9621,-1.9627,-2.1102,-2.1102,-2.1102,-2.1102,-2.1109,-2.0482,-1.9973,-1.9711,-1.9334,-1.8559,-1.7405,-1.5714,-1.4277,-1.2968,-1.2572,-1.1909,-1.1247,-1.0986,-1.0721,-1.0721,-1.0721,-1.0721,-1.0721,-1.0721,-1.0721,-1.0721,-1.0721,-1.0721,-1.0721,-1.0721,-1.0721,-1.0721,-1.0721,-1.0721,-1.0707,-1.0722,-1.1038,-1.1557,-1.1706,-1.1648,-1.1648,-1.1251,-1.0788,-1.0397,-1.013,-0.9546,-0.8773,-0.8639,-0.8372,-0.7845,-0.7714,-0.7541,-0.7197,-0.6478,-0.6224,0.0,-0.5362,0.0,0.0,0.0,0.0,0.0,0.0,0.0,0.0,-0.6659,-0.7024,-0.7702,-0.813,-0.8659,-0.9279,-0.9422,-0.9557,-0.9813,-0.9685,-0.9432,-0.9432,-0.9432,-0.9557,-0.994,-1.0055,-1.026,-1.0527,-1.0639,-1.0986,-1.1637,-1.2285,-1.3202,-1.466,-1.5709,-1.6753,-1.7781,-1.8553,-1.9084,-1.9596,-1.9851,-1.9845,-1.9577,-1.9577,-1.945,-1.9206,-1.9072,-1.9072,-1.9072,-1.9072,-1.9072,-1.9072,-1.9072,-1.9072,-1.9072,-1.9206,-1.92,-1.92,-1.9206,-1.9072,-2.1102,-2.1102,-2.1102,-2.1102,-2.1109,-2.0729,-2.0361,-1.9979,-1.9979,-1.895,-1.74,-1.5964,-1.4926,-1.401,-1.3099,-1.2309,-1.1648,-1.1247,-1.0982,-1.0721,-1.0721,-1.0721,-1.0721,-1.0721,-1.0721,-1.0721,-1.0721,-1.0721,-1.0721,-1.0721,-1.0721,-1.0721,-1.0721,-1.0721,-1.0717,0.0,0.0,0.0,-1.1497,-1.1247,-1.0853,-1.0588,-1.0177,-0.9886,-0.9483,0.0,-0.8906,-0.8643,-0.8337,-0.8111,-0.7845,0.0,0.0,0.0,0.0,0.0,0.0,0.0,0.0,0.0,0.0,0.0,-0.6869,-0.7001,-0.6827,-0.7605,-0.8036,-0.8116,-0.8666,-0.9136,-0.9429,-0.978,-1.0109,-1.0501,-1.0504,-1.0373,-1.0504,-1.0366,-1.0504,-1.0501,-1.0524,-1.0541,-1.0673,-1.0704,-1.0986,-1.1648,-1.2177,-1.296,-1.4272,-1.5318,-1.6359,-1.7136,-1.8039,-1.8705,-1.8828,-1.9206,-1.9334,-1.92,-1.92,-1.92,-1.9072,-1.9072,-1.9072,-1.9072,-1.9072,-1.9072,-1.9072,-1.9072,-1.9072,-1.9072,-1.9072,-1.9072,-1.9072,-1.9072,-1.9072,-2.1102,-2.1109,-2.0862,-2.0856,0.0,-2.0482,-2.0106,-1.959,-1.959,-1.8693,-1.7017,-1.5979,-1.5062,-1.4141,-1.349,-1.27,-1.178,-1.1383,-1.0982,-1.0721,-1.0721,-1.0721,-1.0721,-1.0721,-1.0721,-1.0721,-1.0721,-1.0721,-1.0721,-1.0721,-1.0721,-1.0721,-1.0721,-1.0721,-1.0717,-1.0588,-1.0588,-1.0986,-1.0588,-1.0323,-1.0193,-0.9921,-0.9522,-0.9389,-0.8987,0.0,0.0,0.0,0.0,0.0,0.0,0.0,0.0,-0.7775,0.0,-0.7253,-0.7029,-0.6822,-0.6773,-0.6817,-0.6869,-0.7048,-0.7529,-0.7696,-0.7643,-0.8057,-0.8416,-0.8413,-0.8651,-0.9094,-0.9569,-0.9754,-1.0193,-1.0588,-1.0721,-1.0721,-1.0721,-1.0721,-1.0721,-1.0721,-1.0721,-1.0721,-1.0721,-1.0721,-1.085,-1.138,-1.1909,-1.2572,-1.349,-1.4665,-1.5844,-1.6872,-1.7781,-1.8425,-1.8553,-1.8944,-1.9072,-1.9072,-1.9072,-1.9072,-1.9072,-1.9072,-1.9072,-1.9072,-1.9072,-1.9072,-1.9072,-1.9072,-1.9072,-1.9072,-1.9072,-1.9072,-1.9072,-1.9072,-1.9072,-2.1109,-2.0982,-2.0736,-2.0609,-2.0482,-2.0106,-1.9462,-1.8688,0.0,0.0,0.0,-1.5854,-1.4941,-1.401,-1.3617,-1.2832,-1.178,-1.1516,-1.1118,-1.0721,-1.0721,-1.0721,-1.0721,-1.0721,-1.0721,-1.0721,-1.0721,-1.0721,-1.0721,-1.0721,-1.0721,-1.0588,-1.0588,-1.0588,-1.0455,-1.019,-1.0057,-1.0057,-0.9791,-0.9528,-0.9528,-0.9253,-0.8984,-0.8984,-0.872,-0.8587,-0.8587,-0.8587,-0.8587,-0.8587,-0.8587,-0.8587,-0.8584,-0.8231,-0.8039,-0.8016,-0.7672,-0.7486,-0.7466,-0.7483,-0.7503,-0.752,-0.7865,-0.8173,-0.8421,-0.8437,-0.8486,-0.8579,-0.8587,-0.8853,-0.9525,-0.9661,-0.9924,-1.0588,-1.0588,-1.0585,-1.0717,-1.0721,-1.0721,-1.0721,-1.0721,-1.0721,-1.0721,-1.0721,-1.0853,-1.1247,-1.1648,-1.2305,-1.2836,-1.4015,-1.5318,-1.6359,-1.713,-1.7899,-1.8267,-1.8676,-1.895,-1.8944,-1.9072,-1.9072,-1.9072,-1.9072,-1.9072,-1.9072,-1.9072,-1.9072,-1.9072,-1.9072,-1.9072,-1.9072,-1.9072,-1.9072,-1.9072,-1.9072,-1.9072,-2.0989,-2.0609,-2.0609,-2.0482,-2.0106,-1.9462,-1.8553,-1.7265,-1.7265,-1.713,-1.6877,-1.5583,-1.48,-1.4277,-1.3625,-1.2836,-1.178,-1.178,-1.1383,-1.0721,-1.0721,-1.0721,-1.0721,-1.0721,-1.0721,-1.0721,-1.0721,-1.0721,-1.0721,-1.0717,-1.0588,-1.0323,-1.0323,-1.019,-0.9794,-0.9522,-0.925,-0.9253,-0.9253,-0.912,-0.912,-0.8851,-0.872,-0.872,-0.8587,-0.8587,-0.8587,-0.8587,-0.8587,-0.8587,-0.8587,-0.8587,-0.8587,-0.8571,-0.8387,-0.8296,-0.8269,-0.8218,-0.8119,-0.8205,-0.8304,-0.8395,-0.8419,-0.8522,-0.8432,-0.8508,-0.8571,-0.8587,-0.8587,-0.872,-0.9117,-0.9253,-0.9519,-1.019,-1.0323,-1.0323,-1.0585,-1.0721,-1.0721,-1.0721,-1.0721,-1.0721,-1.0721,-1.0721,-1.0853,-1.1115,-1.138,-1.178,-1.2704,-1.4015,-1.4931,-1.5318,-1.6353,-1.6985,-1.7356,-1.8022,-1.8565,-1.8699,-1.895,-1.9078,-1.9072,-1.9072,-1.9072,-1.9072,-1.9072,-1.9072,-1.9072,-1.9072,-1.9072,-1.9072,-1.9072,-1.9072,-1.9072,-1.9072,-1.9072,-2.0609,-2.0354,-2.0094,-1.9845,-1.9462,-1.8425,-1.7647,-1.6872,-1.6224,-1.5839,-1.5709,-1.4922,-1.4272,-1.3888,-1.3354,-1.2568,-1.1784,-1.1784,-1.1383,-1.0721,-1.0721,-1.0721,-1.0721,-1.0721,-1.0721,-1.0721,-1.0721,-1.0588,-1.0455,-1.0455,-1.0323,-0.9927,-0.9927,-0.9791,-0.9389,-0.9253,-0.8981,-0.8853,-0.8851,-0.8853,-0.8853,-0.872,-0.8587,-0.8587,-0.8587,-0.8587,-0.8587,-0.8587,-0.8587,-0.8587,-0.8587,-0.8587,-0.8587,-0.8587,-0.8565,-0.8513,-0.8511,-0.8486,-0.8429,-0.8478,-0.8532,-0.8584,-0.8587,-0.8565,-0.8516,-0.8554,-0.8587,-0.8587,-0.8587,-0.8717,-0.9117,-0.9117,-0.9383,-0.9924,-0.9927,-0.9927,-1.0193,-1.0323,-1.0455,-1.0455,-1.0588,-1.0717,-1.0721,-1.0721,-1.0721,-1.0982,-1.1115,-1.1516,-1.2177,-1.2968,-1.3884,-1.48,-1.5574,-1.6343,-1.685,-1.7518,-1.805,-1.8179,-1.8565,-1.8828,-1.8828,-1.895,-1.9072,-1.9072,-1.9072,-1.9072,-1.9072,-1.9072,-1.9072,-1.9072,-1.9072,-1.9072,-1.9072,-1.9072,-1.9072,-2.0227,-1.9973,-1.9584,-1.9194,-1.8553,-1.7518,-1.6877,-1.6359,-1.5318,-1.467,-1.4408,-1.4141,-1.3748,-1.3367,-1.296,-1.2301,-1.178,-1.1648,-1.1251,-1.0721,-1.0721,-1.0721,-1.0588,-1.0585,-1.0591,-1.0455,-1.0459,-1.0326,-1.006,-1.006,-0.9927,-0.9525,-0.9528,-0.9256,-0.8987,-0.8984,-0.8853,-0.8587,-0.8587,-0.8587,-0.8587,-0.8587,-0.8587,-0.8587,-0.8587,-0.8587,-0.8587,-0.8587,-0.8587,-0.8587,-0.8587,-0.8587,-0.8587,-0.8587,-0.8587,-0.8587,-0.8587,-0.8587,-0.8587,-0.8587,-0.8587,-0.8587,-0.8587,-0.8587,-0.8587,-0.8587,-0.8587,-0.8587,-0.8587,-0.872,-0.8851,-0.8984,-0.912,-0.9525,-0.9528,-0.9661,-0.9661,-0.9927,-1.006,-1.0057,-1.0326,-1.0455,-1.0455,-1.0455,-1.0455,-1.0455,-1.0721,-1.1118,-1.1383,-1.178,-1.27,-1.3752,-1.4791,-1.5438,-1.6359,-1.7007,-1.74,-1.7781,-1.8179,-1.8442,-1.8437,-1.8688,-1.8816,-1.8816,-1.895,-1.8944,-1.8938,-1.9066,-1.9072,-1.9072,-1.9072,-1.9072,-1.9072,-1.9072,-1.9072,-1.9973,-1.9577,-1.9328,-1.8431,-1.7265,-1.7007,-1.6224,-1.5192,-1.467,-1.3879,-1.3099,-1.3367,-1.3367,-1.3371,-1.2704,-1.2177,-1.178,-1.138,-1.0982,-1.0721,-1.0721,-1.0588,-1.0326,-1.0193,-1.006,-0.9794,-0.9797,-0.9794,-0.9794,-0.9794,-0.9528,-0.9117,-0.8853,-0.8723,-0.872,-0.872,-0.8587,-0.8587,-0.8587,-0.8587,-0.8587,-0.8587,-0.8587,-0.8587,-0.8587,-0.8587,-0.8587,-0.8587,-0.8587,-0.8587,-0.8587,-0.8587,-0.8587,-0.8587,-0.8587,-0.8587,-0.8587,-0.8587,-0.8587,-0.8587,-0.8587,-0.8587,-0.8587,-0.8587,-0.8587,-0.8587,-0.8587,-0.8587,-0.8587,-0.8587,-0.8587,-0.872,-0.8853,-0.9117,-0.912,-0.9256,-0.9528,-0.9664,-0.9797,-0.9797,-0.9794,-0.9794,-0.9927,-0.9927,-0.9794,-0.993,-1.0209,-1.0345,-1.0482,-1.0895,-1.1423,-1.234,-1.3371,-1.4557,-1.5221,-1.6234,-1.6925,-1.7168,-1.7669,-1.7967,-1.7995,-1.8102,-1.8045,-1.8248,-1.8466,-1.8594,-1.8664,-1.892,-1.9072,-1.9078,-1.9078,-1.9078,-1.9072,-1.9078,-1.9078,-1.9584,-1.9328,-1.895,-1.8179,-1.7001,-1.6353,-1.5578,-1.4534,-1.3748,-1.3095,-1.2572,-1.2177,-1.2177,-1.2441,-1.2177,-1.178,-1.1383,-1.1118,-1.0721,-1.0455,-1.0193,-1.006,-0.9927,-0.9927,-0.9794,-0.9664,-0.9664,-0.9528,-0.9389,-0.9123,-0.8989,-0.8853,-0.872,-0.8587,-0.8587,-0.8587,-0.8587,-0.8587,-0.8456,-0.8323,-0.8323,-0.8456,-0.8587,-0.8587,-0.8454,-0.8325,-0.8325,-0.8058,-0.7925,-0.7922,-0.7925,-0.7925,-0.7925,-0.7922,-0.7925,-0.7925,-0.7922,-0.7925,-0.7925,-0.7922,-0.8058,-0.8323,-0.8323,-0.8323,-0.8587,-0.8587,-0.8587,-0.8587,-0.8587,-0.8587,-0.8587,-0.8587,-0.872,-0.8851,-0.8853,-0.8853,-0.8989,-0.9259,-0.9389,-0.9389,-0.9528,-0.9664,-0.9664,-0.9664,-0.9664,-0.9673,-0.985,-0.9906,-0.9912,-1.0245,-1.0684,-1.1329,-1.2157,-1.3239,-1.4268,-1.5267,-1.5952,-1.644,-1.7023,-1.7432,-1.741,-1.7686,-1.7785,-1.7898,-1.8007,-1.8188,-1.8279,-1.8285,-1.8559,-1.8693,-1.895,-1.9078,-1.884,-1.8834,-1.8693,-1.9328,-1.9078,-1.8565,-1.7658,-1.6483,-1.5574,-1.466,-1.3879,-1.2832,-1.2177,-1.178,-1.1118,-1.0986,-1.1251,-1.1251,-1.1251,-1.0853,-1.0588,-1.0323,-1.006,-0.9794,-0.9661,-0.9528,-0.9525,-0.9528,-0.9392,-0.9395,-0.9256,-0.8984,-0.872,-0.8587,-0.8587,-0.8587,-0.8587,-0.8587,-0.8454,-0.8456,-0.8454,-0.8192,-0.7925,-0.7925,-0.8189,-0.8323,-0.8323,-0.8056,-0.7925,-0.7925,-0.766,-0.7529,-0.7529,-0.7529,-0.7529,-0.7529,-0.7529,-0.7529,-0.7529,-0.7529,-0.7529,-0.7529,-0.7529,-0.766,-0.7925,-0.7927,-0.8056,-0.8189,-0.8323,-0.832,-0.8454,-0.8456,-0.8456,-0.8587,-0.8587,-0.8587,-0.8587,-0.8587,-0.8587,-0.8587,-0.8851,-0.8987,-0.8984,-0.9123,-0.9413,-0.9445,-0.9487,-0.9388,-0.9396,-0.9446,-0.9496,-0.9644,-0.971,-1.0025,-1.0525,-1.098,-1.1956,-1.3427,-1.4436,-1.5143,-1.547,-1.6195,-1.6601,-1.6646,-1.6907,-1.7156,-1.6927,-1.7321,-1.7537,-1.779,-1.7842,-1.8029,-1.8477,-1.8747,-1.8776,-1.846,-1.8454,-1.8179,-1.9072,-1.8944,-1.8045,-1.6882,-1.5574,-1.4791,-1.3879,-1.2832,-1.1776,-1.1118,-1.0721,-1.0057,-0.9794,-0.9924,-1.019,-1.0193,-1.019,-0.9927,-0.9794,-0.9661,-0.9661,-0.9525,-0.9117,-0.9117,-0.8987,-0.8723,-0.872,-0.872,-0.8587,-0.8587,-0.8587,-0.8587,-0.8587,-0.8587,-0.8454,-0.8189,-0.8056,-0.8058,-0.7791,-0.7526,-0.7524,-0.7524,-0.7524,-0.7526,-0.7526,-0.7526,-0.7526,-0.7526,-0.7529,-0.7529,-0.7526,-0.7526,-0.7529,-0.7526,-0.7393,-0.7526,-0.7526,-0.7526,-0.7526,-0.7393,-0.7526,-0.7526,-0.7526,-0.7526,-0.766,-0.766,-0.7791,-0.8058,-0.8058,-0.8189,-0.8456,-0.8587,-0.8587,-0.8587,-0.8587,-0.8587,-0.8587,-0.8598,-0.859,-0.8598,-0.875,-0.88,-0.8889,-0.8864,-0.9038,-0.9049,-0.8932,-0.8943,-0.9085,-0.9371,-0.9527,-0.9805,-1.0222,-1.1057,-1.2519,-1.3559,-1.4177,-1.4662,-1.5133,-1.5607,-1.5569,-1.555,-1.5822,-1.6079,-1.6345,-1.671,-1.716,-1.7608,-1.7912,-1.825,-1.8359,-1.8205,-1.8069,-1.7742,-1.7477,-1.8431,-1.7781,-1.7394,-1.6359,-1.5057,-1.4403,-1.3358,-1.2045,-1.1247,-1.0588,-1.0057,-0.9525,-0.9256,-0.9256,-0.9256,-0.9392,-0.9794,-0.9525,-0.9389,-0.9256,-0.9123,-0.8853,-0.8851,-0.872,-0.872,-0.8587,-0.8587,-0.8587,-0.8587,-0.8587,-0.8454,-0.8323,-0.8323,-0.8189,-0.7925,-0.7794,-0.7658,-0.766,-0.7388,-0.7123,-0.7123,-0.6989,-0.6857,-0.6855,-0.7121,-0.7123,-0.7123,-0.6989,-0.6857,-0.6855,-0.6857,-0.6855,-0.6857,-0.6855,-0.6855,-0.6857,-0.6855,-0.6855,-0.6857,-0.6857,-0.6989,-0.7121,-0.7123,-0.7257,-0.7526,-0.7529,-0.7526,-0.766,-0.766,-0.7791,-0.7925,-0.832,-0.8587,-0.8587,-0.8587,-0.8592,-0.8603,-0.8652,-0.8704,-0.8715,-0.8766,-0.8842,-0.8875,-0.8927,-0.8948,-0.8959,-0.9019,-0.906,-0.9082,-0.9264,-0.9448,-0.9743,-1.0028,-1.0321,-1.1054,-1.2363,-1.3272,-1.3656,-1.4135,-1.4416,-1.4395,-1.4509,-1.4645,-1.5072,-1.5326,-1.5687,-1.6152,-1.6636,-1.7099,-1.7556,-1.7669,-1.7583,-1.7502,-1.7039,-1.6742,-1.7658,-1.6872,-1.6608,-1.5704,-1.4539,-1.3748,-1.2696,-1.1512,-1.0721,-1.0057,-0.9522,-0.912,-0.8987,-0.8853,-0.8717,-0.8856,-0.9259,-0.912,-0.8984,-0.8987,-0.872,-0.8587,-0.8587,-0.8587,-0.8587,-0.8587,-0.8454,-0.8456,-0.8456,-0.8323,-0.8189,-0.7927,-0.7925,-0.7791,-0.7526,-0.7393,-0.7393,-0.7257,-0.6987,-0.6853,-0.6851,-0.6587,-0.6453,-0.6589,-0.6719,-0.6851,-0.6851,-0.6585,-0.6453,-0.6453,-0.6453,-0.6453,-0.6453,-0.6453,-0.6453,-0.6453,-0.6453,-0.6453,-0.6453,-0.6453,-0.6587,-0.6853,-0.6853,-0.6987,-0.7123,-0.7125,-0.7257,-0.7257,-0.7393,-0.7393,-0.7534,-0.7955,-0.8362,-0.8472,-0.8622,-0.8644,-0.8652,-0.8758,-0.8818,-0.8842,-0.8932,-0.8997,-0.9014,-0.9049,-0.9071,-0.9065,-0.9141,-0.9182,-0.9201,-0.9247,-0.9304,-0.959,-0.9718,-0.9856,-1.0284,-1.1203,-1.1868,-1.2372,-1.2828,-1.3163,-1.3329,-1.3329,-1.3583,-1.4036,-1.4386,-1.4618,-1.5122,-1.5615,-1.6191,-1.653,-1.6711,-1.6737,-1.6601,-1.643,-1.6094,-1.7136,-1.6348,-1.5694,-1.4786,-1.3744,-1.2832,-1.1912,-1.1115,-1.019,-0.9525,-0.912,-0.8717,-0.872,-0.8587,-0.8587,-0.8587,-0.8723,-0.872,-0.872,-0.8587,-0.8587,-0.8587,-0.8587,-0.8587,-0.8587,-0.8587,-0.8192,-0.8058,-0.8058,-0.7791,-0.7526,-0.7526,-0.7526,-0.7526,-0.7526,-0.7121,-0.6987,-0.6985,-0.6721,-0.6589,-0.6453,-0.6453,-0.6453,-0.6453,-0.6453,-0.6453,-0.6455,-0.6453,-0.6453,-0.6453,-0.6453,-0.6453,-0.6453,-0.6453,-0.6453,-0.6453,-0.6453,-0.6453,-0.6453,-0.6453,-0.6453,-0.6587,-0.6589,-0.6587,-0.6587,-0.6587,-0.6719,-0.6987,-0.6996,-0.713,-0.7421,-0.7622,-0.791,-0.8094,-0.8433,-0.8769,-0.8791,-0.8878,-0.8957,-0.8978,-0.9068,-0.913,-0.9158,-0.9201,-0.9247,-0.9258,-0.9272,-0.928,-0.9277,-0.9291,-0.9302,-0.9302,-0.9446,-0.959,-0.9735,-1.002,-1.0443,-1.0878,-1.1446,-1.1893,-1.218,-1.218,-1.2466,-1.2817,-1.3385,-1.3625,-1.4326,-1.485,-1.5162,-1.5466,-1.5649,-1.5709,-1.5556,-1.5385,-1.516,-1.6488,-1.5448,-1.4922,-1.4141,-1.3095,-1.2305,-1.1383,-1.0455,-0.9927,-0.9392,-0.8853,-0.8587,-0.8587,-0.8587,-0.8587,-0.8587,-0.8587,-0.8587,-0.8587,-0.8587,-0.8587,-0.8587,-0.8587,-0.8587,-0.8456,-0.8189,-0.7927,-0.766,-0.766,-0.7524,-0.7393,-0.7257,-0.7121,-0.6989,-0.6855,-0.6721,-0.6585,-0.6585,-0.6587,-0.6453,-0.6453,-0.6453,-0.6319,-0.6182,-0.6048,-0.6049,-0.5783,-0.6185,-0.6453,-0.6453,-0.6183,-0.6048,-0.5781,-0.5915,-0.6048,-0.6048,-0.6319,-0.6453,-0.6453,-0.6453,-0.6453,-0.6453,-0.6453,-0.6453,-0.6453,-0.6457,-0.6589,-0.673,-0.6639,-0.6817,-0.6834,-0.7177,-0.7601,-0.8055,-0.8412,-0.8623,-0.8777,-0.9005,-0.9106,-0.9182,-0.9228,-0.925,-0.9253,-0.9294,-0.9299,-0.9304,-0.9304,-0.9304,-0.9304,-0.9304,-0.9304,-0.9304,-0.9304,-0.9304,-0.9446,-0.959,-0.9879,-1.0164,-1.0599,-1.0884,-1.1172,-1.1172,-1.1459,-1.1746,-1.2176,-1.2749,-1.3464,-1.3892,-1.403,-1.4319,-1.4381,-1.4493,-1.4356,-1.4301,-1.4212,-1.5574,-1.4534,-1.4015,-1.3227,-1.2173,-1.1648,-1.085,-1.0054,-0.9655,-0.9123,-0.872,-0.8587,-0.8587,-0.859,-0.8456,-0.8456,-0.8454,-0.8323,-0.8189,-0.8189,-0.832,-0.8454,-0.8454,-0.8189,-0.8058,-0.7791,-0.7524,-0.7257,-0.7257,-0.7123,-0.6989,-0.6853,-0.6853,-0.6719,-0.6453,-0.6453,-0.6453,-0.6453,-0.6319,-0.6183,-0.6183,-0.6183,-0.5915,-0.578,-0.5646,-0.5647,-0.5381,-0.5783,-0.6053,-0.6051,-0.5781,-0.5647,-0.5381,-0.5646,-0.578,-0.5781,-0.5917,-0.6187,-0.6051,-0.6049,-0.6183,-0.6183,-0.6183,-0.6317,-0.646,-0.6476,-0.6504,-0.6515,-0.6588,-0.6639,-0.6651,-0.6998,-0.7436,-0.7812,-0.8136,-0.8336,-0.8797,-0.9005,-0.9212,-0.9275,-0.9296,-0.9304,-0.9304,-0.9304,-0.9304,-0.9304,-0.9304,-0.9304,-0.9304,-0.9304,-0.9304,-0.9304,-0.9304,-0.9304,-0.9304,-0.9302,-0.9302,-0.9593,-0.9738,-1.0167,-1.0308,-1.0455,-1.0596,-1.0887,-1.1315,-1.1603,-1.2173,-1.2316,-1.2459,-1.2896,-1.3186,-1.3305,-1.3274,-1.3432,-1.3381,-1.4408,-1.3748,-1.2968,-1.2177,-1.1247,-1.0853,-1.0319,-0.9649,-0.925,-0.8853,-0.8587,-0.8454,-0.8454,-0.8454,-0.8189,-0.8056,-0.8056,-0.7791,-0.766,-0.7658,-0.7789,-0.8056,-0.8058,-0.7658,-0.7526,-0.739,-0.7123,-0.6985,-0.6987,-0.6719,-0.6453,-0.6587,-0.6587,-0.6453,-0.6453,-0.6453,-0.6453,-0.6319,-0.6048,-0.5778,-0.5644,-0.5513,-0.5381,-0.5379,-0.5381,-0.5381,-0.5247,-0.5247,-0.5381,-0.5381,-0.5381,-0.5379,-0.5381,-0.5381,-0.5379,-0.5381,-0.5515,-0.5649,-0.5515,-0.5515,-0.5647,-0.5914,-0.578,-0.5917,-0.6343,-0.6399,-0.6443,-0.6461,-0.6541,-0.6593,-0.6747,-0.6811,-0.7134,-0.7291,-0.7856,-0.8183,-0.8559,-0.9005,-0.9005,-0.9155,-0.916,-0.9304,-0.916,-0.9302,-0.9304,-0.9304,-0.9304,-0.9304,-0.9304,-0.9304,-0.9304,-0.9304,-0.9304,-0.9304,-0.9304,-0.9304,-0.9304,-0.9304,-0.9449,-0.959,-0.9879,-0.9879,-1.0023,-1.0311,-1.0599,-1.074,-1.0884,-1.1315,-1.1459,-1.189,-1.2036,-1.2033,-1.218,-1.2323,-1.261,-1.3752,-1.2964,-1.2045,-1.138,-1.0721,-1.0193,-0.9655,-0.925,-0.8851,-0.8454,-0.8189,-0.7925,-0.7794,-0.7791,-0.7658,-0.766,-0.766,-0.7526,-0.7529,-0.7526,-0.7388,-0.7388,-0.7522,-0.7254,-0.7121,-0.7121,-0.6855,-0.6585,-0.6587,-0.6587,-0.6453,-0.6453,-0.6453,-0.6317,-0.6048,-0.6048,-0.6049,-0.5919,-0.5647,-0.5377,-0.5242,-0.5379,-0.5245,-0.4975,-0.4975,-0.4842,-0.4575,-0.4575,-0.4708,-0.4975,-0.4975,-0.4842,-0.471,-0.4842,-0.4975,-0.4975,-0.5245,-0.5515,-0.5381,-0.5381,-0.5381,-0.5513,-0.5522,-0.5539,-0.5733,-0.5756,-0.5933,-0.6123,-0.6346,-0.654,-0.6833,-0.6896,-0.7087,-0.7098,-0.7668,-0.8114,-0.8283,-0.8295,-0.844,-0.8442,-0.8729,-0.8871,-0.8871,-0.9016,-0.9304,-0.9304,-0.9304,-0.9304,-0.9304,-0.9304,-0.9304,-0.9304,-0.9304,-0.9304,-0.9304,-0.9304,-0.9304,-0.9304,-0.9304,-0.9449,-0.9446,-0.9446,-0.9735,-1.0023,-1.0023,-1.0167,-1.0455,-1.0743,-1.0887,-1.1028,-1.1031,-1.1175,-1.1031,-1.1175,-1.1459,-1.2696,-1.2045,-1.1118,-1.0452,-0.9788,-0.9392,-0.8989,-0.8456,-0.8187,-0.8056,-0.7794,-0.766,-0.7529,-0.7529,-0.7393,-0.7257,-0.7257,-0.7125,-0.7123,-0.6989,-0.6853,-0.6855,-0.6989,-0.6855,-0.6853,-0.6719,-0.6587,-0.6453,-0.6453,-0.6453,-0.6453,-0.6183,-0.6317,-0.6048,-0.5781,-0.5646,-0.5647,-0.5515,-0.5245,-0.4975,-0.4705,-0.4842,-0.4842,-0.4572,-0.4572,-0.4441,-0.4307,-0.4307,-0.444,-0.4574,-0.4574,-0.4441,-0.4307,-0.444,-0.4574,-0.4574,-0.4842,-0.4978,-0.4978,-0.4978,-0.4992,-0.515,-0.5156,-0.5193,-0.5529,-0.5565,-0.5752,-0.593,-0.6149,-0.6474,-0.6632,-0.6817,-0.6984,-0.6984,-0.7425,-0.7713,-0.786,-0.8008,-0.8152,-0.8152,-0.8295,-0.844,-0.844,-0.8729,-0.8874,-0.9016,-0.9016,-0.916,-0.9304,-0.9304,-0.9302,-0.9302,-0.9302,-0.9304,-0.9304,-0.9304,-0.9304,-0.9304,-0.9304,-0.9304,-0.9304,-0.9304,-0.9446,-0.959,-0.959,-0.9735,-1.0023,-1.0167,-1.0167,-1.0167,-1.0167,-1.0311,-1.0311,-1.0311,-1.074,-1.1383,-1.0982,-1.0323,-0.9525,-0.872,-0.8456,-0.8189,-0.766,-0.7526,-0.7526,-0.7393,-0.7393,-0.7259,-0.7393,-0.7123,-0.6985,-0.6987,-0.6721,-0.6587,-0.6587,-0.6587,-0.6587,-0.6587,-0.6587,-0.6587,-0.6587,-0.6453,-0.6453,-0.6319,-0.6319,-0.6185,-0.5915,-0.5914,-0.5646,-0.5379,-0.5379,-0.5245,-0.5247,-0.4977,-0.4707,-0.4437,-0.444,-0.4441,-0.4441,-0.4305,-0.4307,-0.4307,-0.4307,-0.4307,-0.4307,-0.4307,-0.4307,-0.4307,-0.4307,-0.4307,-0.4307,-0.4441,-0.4441,-0.4311,-0.4452,-0.4475,-0.4789,-0.4531,-0.4706,-0.5186,-0.5378,-0.5557,-0.5582,-0.608,-0.625,-0.64,-0.67,-0.6845,-0.699,-0.699,-0.7133,-0.7421,-0.786,-0.8008,-0.8008,-0.8008,-0.8008,-0.8008,-0.8152,-0.8295,-0.8584,-0.8584,-0.8729,-0.8874,-0.9016,-0.9016,-0.9157,-0.9157,-0.9304,-0.9304,-0.9304,-0.9304,-0.9304,-0.9304,-0.9304,-0.9304,-0.9304,-0.9304,-0.9302,-0.9446,-0.9446,-0.9446,-0.959,-0.959,-0.9735,-0.9879,-0.9879,-0.9876,-1.0023,-1.0164,-1.0459,-1.0323,-0.9389,-0.8853,-0.8454,-0.7925,-0.7658,-0.7393,-0.7257,-0.7121,-0.6987,-0.6855,-0.6723,-0.6721,-0.6721,-0.6585,-0.6587,-0.6587,-0.6453,-0.6453,-0.6453,-0.6453,-0.6453,-0.6453,-0.6453,-0.6453,-0.6183,-0.6048,-0.6048,-0.5781,-0.5647,-0.5513,-0.5512,-0.5245,-0.4975,-0.4975,-0.4842,-0.4575,-0.444,-0.444,-0.4305,-0.4305,-0.4307,-0.4307,-0.4307,-0.4307,-0.4307,-0.4307,-0.4307,-0.4307,-0.4307,-0.4307,-0.4307,-0.4307,-0.4307,-0.4309,-0.4309,-0.4309,-0.4316,-0.4353,-0.4384,-0.4545,-0.4586,-0.4488,-0.4688,-0.485,-0.503,-0.521,-0.5386,-0.583,-0.6266,-0.6412,-0.6702,-0.6845,-0.6845,-0.6988,-0.7133,-0.7278,-0.728,-0.728,-0.7568,-0.7713,-0.7713,-0.786,-0.8005,-0.8152,-0.8297,-0.8297,-0.844,-0.8729,-0.8726,-0.8871,-0.9016,-0.916,-0.916,-0.916,-0.9304,-0.9304,-0.9304,-0.9304,-0.9304,-0.9304,-0.9304,-0.9304,-0.9302,-0.9304,-0.9304,-0.9302,-0.9446,-0.9446,-0.9446,-0.9446,-0.959,-0.9735,-0.9879,-0.9389,-0.9123,-0.8459,-0.8056,-0.7786,-0.7386,-0.7123,-0.6989,-0.6855,-0.6719,-0.6719,-0.6587,-0.6453,-0.6453,-0.6453,-0.6453,-0.6453,-0.6453,-0.6453,-0.6317,-0.6183,-0.6185,-0.6051,-0.6051,-0.6051,-0.6049,-0.5781,-0.5647,-0.5647,-0.5513,-0.5379,-0.5109,-0.5111,-0.4977,-0.4572,-0.4572,-0.4441,-0.4307,-0.4307,-0.4307,-0.4307,-0.4307,-0.4307,-0.4307,-0.4307,-0.4307,-0.4307,-0.4307,-0.4307,-0.4307,-0.4307,-0.4307,-0.4307,-0.4307,-0.4307,-0.4309,-0.4339,-0.4348,-0.4364,-0.4403,-0.4451,-0.4477,-0.4511,-0.4555,-0.4598,-0.4617,-0.4773,-0.4947,-0.5103,-0.5539,-0.5974,-0.6119,-0.6264,-0.641,-0.6408,-0.6553,-0.67,-0.6845,-0.699,-0.6988,-0.7133,-0.7278,-0.7423,-0.757,-0.7715,-0.786,-0.7858,-0.786,-0.8152,-0.8295,-0.844,-0.844,-0.8726,-0.9016,-0.9016,-0.916,-0.9304,-0.9304,-0.9304,-0.9304,-0.9304,-0.9304,-0.9304,-0.9304,-0.9304,-0.9304,-0.9304,-0.9304,-0.9304,-0.9302,-0.9302,-0.9304,-0.9302,-0.9446,-0.9879,-0.8323,-0.7925,-0.7524,-0.7257,-0.6987,-0.6985,-0.6721,-0.6587,-0.6453,-0.6587,-0.6453,-0.6453,-0.6453,-0.6453,-0.6453,-0.6453,-0.6319,-0.6319,-0.6049,-0.5914,-0.578,-0.5781,-0.5515,-0.5513,-0.5513,-0.578,-0.5513,-0.5379,-0.5379,-0.5245,-0.4978,-0.4707,-0.4707,-0.4574,-0.4307,-0.4307,-0.4307,-0.4307,-0.4307,-0.4307,-0.4307,-0.4307,-0.4307,-0.4307,-0.4307,-0.4307,-0.4307,-0.4307,-0.4307,-0.4307,-0.4307,-0.4312,-0.4319,-0.4309,-0.4318,-0.4322,-0.4369,-0.4394,-0.4418,-0.4463,-0.4518,-0.4571,-0.4585,-0.4751,-0.4647,-0.4657,-0.4658,-0.4806,-0.4957,-0.5248,-0.5682,-0.5682,-0.5683,-0.5827,-0.5827,-0.5972,-0.6264,-0.6555,-0.6698,-0.699,-0.6988,-0.7133,-0.7133,-0.7135,-0.7278,-0.7423,-0.7421,-0.7568,-0.786,-0.8008,-0.8005,-0.815,-0.844,-0.8726,-0.8874,-0.916,-0.9304,-0.9304,-0.9304,-0.9304,-0.9304,-0.9304,-0.9304,-0.9304,-0.9304,-0.9304,-0.9304,-0.9304,-0.9304,-0.9304,-0.9304,-0.9304,-0.9304,-0.9304,-0.9735,-0.766,-0.7526,-0.7254,-0.6987,-0.6985,-0.6719,-0.6587,-0.6453,-0.6453,-0.6453,-0.6453,-0.6453,-0.6453,-0.6319,-0.6048,-0.5914,-0.5783,-0.5649,-0.5647,-0.5513,-0.5513,-0.5381,-0.5247,-0.4977,-0.4975,-0.5109,-0.4975,-0.4975,-0.4977,-0.471,-0.4575,-0.4441,-0.4441,-0.4307,-0.4307,-0.4307,-0.4307,-0.4307,-0.4307,-0.4307,-0.4307,-0.4307,-0.4307,-0.4307,-0.4307,-0.4307,-0.4307,-0.4307,-0.4307,-0.4307,-0.4307,-0.4335,-0.4358,-0.4338,-0.4345,-0.4377,-0.4403,-0.4435,-0.447,-0.4525,-0.4557,-0.4582,-0.4615,-0.4643,-0.4662,-0.4665,-0.4665,-0.4665,-0.481,-0.4956,-0.5248,-0.5248,-0.5538,-0.5682,-0.568,-0.5827,-0.5827,-0.5972,-0.6263,-0.6698,-0.6843,-0.699,-0.6845,-0.699,-0.7133,-0.7133,-0.7278,-0.7278,-0.728,-0.7568,-0.7713,-0.7858,-0.8005,-0.8295,-0.8584,-0.9016,-0.9304,-0.9304,-0.9304,-0.9304,-0.9304,-0.9304,-0.9304,-0.9304,-0.9304,-0.9304,-0.9304,-0.9304,-0.9304,-0.9304,-0.9304,-0.9304,-0.9304,-0.9302,-0.9735,-0.7123,-0.6989,-0.6855,-0.6721,-0.6719,-0.6587,-0.6453,-0.6453,-0.6317,-0.6183,-0.6183,-0.6051,-0.5917,-0.5917,-0.5781,-0.5513,-0.5381,-0.5381,-0.5245,-0.5111,-0.5109,-0.4977,-0.4844,-0.4574,-0.4574,-0.4574,-0.4574,-0.4574,-0.4575,-0.4441,-0.4307,-0.4307,-0.4307,-0.4307,-0.4307,-0.4307,-0.4307,-0.4307,-0.4307,-0.4307,-0.4307,-0.4307,-0.4307,-0.4307,-0.4307,-0.4307,-0.4307,-0.4307,-0.4307,-0.4313,-0.4337,-0.4368,-0.4388,-0.4406,-0.441,-0.4442,-0.4469,-0.4496,-0.4533,-0.4585,-0.462,-0.4624,-0.465,-0.4662,-0.4665,-0.4665,-0.4665,-0.4665,-0.4665,-0.481,-0.4957,-0.4957,-0.5101,-0.51,-0.5245,-0.5391,-0.5392,-0.5538,-0.5829,-0.6408,-0.6555,-0.6557,-0.67,-0.6845,-0.699,-0.699,-0.699,-0.699,-0.699,-0.7133,-0.7421,-0.7568,-0.7715,-0.815,-0.8584,-0.8871,-0.9304,-0.9302,-0.9304,-0.9304,-0.9304,-0.9304,-0.9304,-0.9304,-0.9304,-0.9304,-0.9304,-0.9304,-0.9304,-0.9304,-0.9304,-0.9304,-0.9304,-0.9446,-0.9735,-0.6719,-0.6453,-0.6453,-0.6453,-0.6453,-0.6319,-0.6317,-0.6183,-0.5915,-0.578,-0.578,-0.5513,-0.5381,-0.5381,-0.5379,-0.5245,-0.5245,-0.5112,-0.4977,-0.4707,-0.4707,-0.4574,-0.4441,-0.4307,-0.4307,-0.4441,-0.4307,-0.4307,-0.4307,-0.4307,-0.4307,-0.4307,-0.4307,-0.4307,-0.4307,-0.4307,-0.4307,-0.4307,-0.4307,-0.4307,-0.4307,-0.4307,-0.4307,-0.4307,-0.4307,-0.4307,-0.4307,-0.4327,-0.4333,-0.4349,-0.438,-0.4422,-0.4439,-0.4476,-0.4504,-0.4522,-0.4556,-0.4574,-0.4602,-0.4627,-0.4655,-0.4655,-0.4662,-0.4665,-0.4665,-0.4665,-0.4665,-0.4665,-0.4665,-0.4665,-0.481,-0.4665,-0.4664,-0.481,-0.481,-0.481,-0.4957,-0.5103,-0.5247,-0.5683,-0.5976,-0.6121,-0.6264,-0.641,-0.6553,-0.67,-0.6702,-0.6845,-0.6845,-0.699,-0.7133,-0.7278,-0.757,-0.8005,-0.844,-0.8729,-0.916,-0.9302,-0.9302,-0.9304,-0.9304,-0.9304,-0.9304,-0.9304,-0.9304,-0.9304,-0.9304,-0.9304,-0.9304,-0.9304,-0.9304,-0.9304,-0.9304,-0.9446,-0.9735,-0.6589,-0.6453,-0.6453,-0.6317,-0.6048,-0.5914,-0.578,-0.5513,-0.5513,-0.5513,-0.5379,-0.5381,-0.5381,-0.5245,-0.4977,-0.4708,-0.4575,-0.4577,-0.4575,-0.444,-0.444,-0.444,-0.4307,-0.4307,-0.4307,-0.4307,-0.4307,-0.4307,-0.4307,-0.4307,-0.4307,-0.4307,-0.4307,-0.4307,-0.4307,-0.4307,-0.4307,-0.4307,-0.4307,-0.4307,-0.4307,-0.4307,-0.4307,-0.4307,-0.4311,-0.4315,-0.4326,-0.4358,-0.4387,-0.4395,-0.4443,-0.4497,-0.4542,-0.4557,-0.4594,-0.4609,-0.4612,-0.4597,-0.4639,-0.4658,-0.4665,-0.4665,-0.4665,-0.4665,-0.4665,-0.4665,-0.4665,-0.4665,-0.4665,-0.4665,-0.4665,-0.4665,-0.4665,-0.4665,-0.4665,-0.4665,-0.4812,-0.4957,-0.4956,-0.4956,-0.5394,-0.5683,-0.5827,-0.5827,-0.5972,-0.6266,-0.6557,-0.6702,-0.6845,-0.6845,-0.699,-0.7133,-0.7423,-0.786,-0.8295,-0.8729,-0.9016,-0.9302,-0.9302,-0.9304,-0.9304,-0.9304,-0.9304,-0.9304,-0.9304,-0.9304,-0.9304,-0.9304,-0.9304,-0.9304,-0.9304,-0.9304,-0.9304,-0.9446,-0.959,-0.6183,-0.6183,-0.6183,-0.5914,-0.5647,-0.5646,-0.5513,-0.5381,-0.5111,-0.5109,-0.4977,-0.4844,-0.4844,-0.4708,-0.4574,-0.4441,-0.4307,-0.4307,-0.4307,-0.4307,-0.4307,-0.4307,-0.4307,-0.4307,-0.4307,-0.4307,-0.4307,-0.4307,-0.4307,-0.4307,-0.4307,-0.4307,-0.4307,-0.4307,-0.4307,-0.4307,-0.4307,-0.4307,-0.4307,-0.4307,-0.4307,-0.4307,-0.4308,-0.4309,-0.4341,-0.4356,-0.4372,-0.4413,-0.4444,-0.4457,-0.4503,-0.4542,-0.4576,-0.4602,-0.4639,-0.4653,-0.4642,-0.4639,-0.4658,-0.4665,-0.4665,-0.4665,-0.4665,-0.4665,-0.4665,-0.4665,-0.4665,-0.4665,-0.4665,-0.4665,-0.4665,-0.4665,-0.4665,-0.4665,-0.4665,-0.4665,-0.4665,-0.4665,-0.481,-0.481,-0.4812,-0.5101,-0.5391,-0.5536,-0.5682,-0.5974,-0.6121,-0.6266,-0.6555,-0.6845,-0.6845,-0.699,-0.7278,-0.7713,-0.815,-0.8584,-0.8871,-0.9157,-0.9302,-0.9304,-0.9304,-0.9304,-0.9304,-0.9304,-0.9304,-0.9304,-0.9304,-0.9304,-0.9304,-0.9304,-0.9304,-0.9304,-0.9304,-0.9304,-0.959,-0.5778,-0.5644,-0.578,-0.5513,-0.5245,-0.5245,-0.5245,-0.5112,-0.4842,-0.4707,-0.4574,-0.4441,-0.4307,-0.4307,-0.4307,-0.4307,-0.4307,-0.4307,-0.4307,-0.4307,-0.4307,-0.4307,-0.4307,-0.4307,-0.4307,-0.4307,-0.4307,-0.4307,-0.4307,-0.4307,-0.4307,-0.4307,-0.4307,-0.4307,-0.4307,-0.4307,-0.4307,-0.4307,-0.4307,-0.4307,-0.4309,-0.4326,-0.4331,-0.435,-0.4382,-0.442,-0.4428,-0.4474,-0.4503,-0.4516,-0.4564,-0.46,-0.461,-0.4636,-0.4655,-0.4665,-0.4655,-0.4658,-0.4664,-0.4665,-0.4665,-0.4665,-0.4665,-0.4665,-0.4665,-0.4665,-0.4665,-0.4665,-0.4665,-0.4665,-0.4665,-0.4665,-0.4665,-0.4665,-0.4665,-0.4665,-0.4665,-0.4665,-0.4665,-0.4665,-0.481,-0.4665,-0.4956,-0.5247,-0.5391,-0.5536,-0.5683,-0.5974,-0.6264,-0.67,-0.6845,-0.699,-0.7133,-0.7568,-0.8005,-0.844,-0.8871,-0.9157,-0.9302,-0.9304,-0.9304,-0.9304,-0.9304,-0.9304,-0.9304,-0.9304,-0.9304,-0.9304,-0.9304,-0.9304,-0.9304,-0.9304,-0.9304,-0.9449,-0.9738,-0.5245,-0.4839,-0.5245,-0.5245,-0.4841,-0.4839,-0.4708,-0.4441,-0.4441,-0.4307,-0.444,-0.4307,-0.4307,-0.4307,-0.4307,-0.4307,-0.4307,-0.4307,-0.4307,-0.4307,-0.4307,-0.4307,-0.4307,-0.4307,-0.4307,-0.4307,-0.4307,-0.4307,-0.4307,-0.4307,-0.4307,-0.4307,-0.4307,-0.4307,-0.4307,-0.4307,-0.4315,-0.4318,-0.4322,-0.4323,-0.4338,-0.4364,-0.4391,-0.4405,-0.4443,-0.4478,-0.4478,-0.4534,-0.4567,-0.457,-0.4615,-0.4645,-0.4646,-0.4657,-0.4665,-0.4665,-0.4665,-0.4665,-0.4665,-0.4665,-0.4665,-0.4665,-0.4665,-0.4665,-0.4665,-0.4665,-0.4665,-0.4665,-0.4665,-0.4665,-0.4665,-0.4665,-0.4665,-0.4665,-0.4665,-0.4665,-0.4665,-0.4665,-0.4665,-0.4665,-0.4665,-0.4665,-0.4665,-0.4956,-0.5101,-0.5247,-0.5536,-0.5829,-0.6264,-0.6555,-0.6845,-0.699,-0.699,-0.7425,-0.8008,-0.8295,-0.8584,-0.9016,-0.9302,-0.9304,-0.9304,-0.9304,-0.9304,-0.9304,-0.9304,-0.9304,-0.9304,-0.9304,-0.9304,-0.9304,-0.9302,-0.9302,-0.959,-0.9879,-1.0167,-0.4975,-0.4839,-0.4708,-0.4575,-0.444,-0.444,-0.4441,-0.4307,-0.4307,-0.4307,-0.4307,-0.4307,-0.4307,-0.4307,-0.4307,-0.4307,-0.4307,-0.4307,-0.4307,-0.4307,-0.4307,-0.4307,-0.4307,-0.4307,-0.4307,-0.4307,-0.4307,-0.4307,-0.4307,-0.4307,-0.4307,-0.4307,-0.4309,-0.4307,-0.4307,-0.4313,-0.4331,-0.4358,-0.4368,-0.4375,-0.4418,-0.4432,-0.4451,-0.4455,-0.4508,-0.4534,-0.4546,-0.4598,-0.462,-0.4634,-0.4653,-0.4661,-0.4665,-0.4665,-0.4665,-0.4665,-0.4665,-0.4665,-0.4665,-0.4665,-0.4665,-0.4665,-0.4665,-0.4665,-0.4665,-0.4665,-0.4665,-0.4665,-0.4665,-0.4665,-0.4665,-0.4665,-0.4665,-0.4665,-0.4665,-0.4665,-0.4665,-0.4665,-0.4665,-0.4665,-0.4665,-0.4665,-0.4665,-0.4665,-0.481,-0.4956,-0.5247,-0.5682,-0.6119,-0.6555,-0.6845,-0.699,-0.699,-0.728,-0.8008,-0.8152,-0.844,-0.8871,-0.9304,-0.9304,-0.9304,-0.9304,-0.9304,-0.9304,-0.9304,-0.9304,-0.9304,-0.9304,-0.9304,-0.9304,-0.9302,-0.9446,-0.9735,-1.0164,-1.0599,-0.4707,-0.4574,-0.4441,-0.4307,-0.4307,-0.4307,-0.4307,-0.4307,-0.4307,-0.4307,-0.4307,-0.4307,-0.4307,-0.4307,-0.4307,-0.4307,-0.4307,-0.4307,-0.4307,-0.4307,-0.4307,-0.4307,-0.4307,-0.4307,-0.4307,-0.4307,-0.4307,-0.4307,-0.4307,-0.4307,-0.4307,-0.4312,-0.4324,-0.4328,-0.4311,-0.4331,-0.4364,-0.4409,-0.4428,-0.4439,-0.4478,-0.4501,-0.451,-0.4519,-0.4568,-0.4597,-0.4608,-0.4636,-0.4654,-0.4658,-0.4664,-0.4665,-0.4665,-0.4665,-0.4665,-0.4665,-0.4665,-0.4665,-0.4665,-0.4665,-0.4665,-0.4665,-0.4665,-0.4665,-0.4665,-0.4665,-0.4665,-0.4665,-0.4665,-0.4665,-0.4665,-0.4665,-0.4665,-0.4665,-0.4665,-0.4665,-0.4665,-0.4665,-0.4665,-0.4665,-0.4665,-0.4665,-0.4665,-0.4665,-0.4665,-0.4956,-0.5392,-0.5682,-0.5972,-0.6408,-0.6845,-0.699,-0.699,-0.7425,-0.8005,-0.815,-0.8295,-0.9016,-0.9304,-0.9304,-0.9304,-0.9304,-0.9304,-0.9304,-0.9304,-0.9304,-0.9304,-0.9304,-0.9304,-0.9304,-0.9446,-0.9446,-1.0026,-1.0314,-1.0746,-0.4307,-0.4307,-0.4307,-0.4307,-0.4307,-0.4307,-0.4307,-0.4307,-0.4307,-0.4307,-0.4307,-0.4307,-0.4307,-0.4307,-0.4307,-0.4307,-0.4307,-0.4307,-0.4307,-0.4307,-0.4307,-0.4307,-0.4307,-0.4307,-0.4307,-0.4307,-0.4307,-0.4307,-0.4307,-0.4322,-0.4318,-0.4334,-0.4365,-0.4375,-0.4322,-0.4368,-0.4424,-0.4471,-0.448,-0.4489,-0.4514,-0.4552,-0.4568,-0.4585,-0.4617,-0.4645,-0.465,-0.4654,-0.4665,-0.4665,-0.4665,-0.4665,-0.4665,-0.4665,-0.4665,-0.4665,-0.4665,-0.4665,-0.4665,-0.4665,-0.4665,-0.4665,-0.4665,-0.4665,-0.4665,-0.4665,-0.4665,-0.4665,-0.4665,-0.4665,-0.4665,-0.4665,-0.4665,-0.4665,-0.4665,-0.4665,-0.4665,-0.4665,-0.4665,-0.4665,-0.4665,-0.4665,-0.4665,-0.4665,-0.4665,-0.4956,-0.5391,-0.5682,-0.5827,-0.6408,-0.6845,-0.699,-0.699,-0.7425,-0.786,-0.8008,-0.8297,-0.9016,-0.9304,-0.9304,-0.9304,-0.9304,-0.9304,-0.9304,-0.9304,-0.9304,-0.9304,-0.9304,-0.9304,-0.9302,-0.9446,-0.959,-1.0173,-1.0609,-1.0897,-0.4307,-0.4307,-0.4307,-0.4307,-0.4307,-0.4307,-0.4307,-0.4307,-0.4307,-0.4307,-0.4307,-0.4307,-0.4307,-0.4307,-0.4307,-0.4307,-0.4307,-0.4307,-0.4307,-0.4307,-0.4307,-0.4307,-0.4307,-0.4307,-0.4307,-0.4308,-0.4308,-0.4312,-0.4308,-0.4345,-0.4367,-0.4383,-0.4424,-0.4442,-0.4432,-0.4454,-0.4484,-0.4531,-0.4546,-0.456,-0.4597,-0.462,-0.463,-0.4631,-0.4654,-0.4664,-0.4665,-0.4665,-0.4665,-0.4665,-0.4665,-0.4665,-0.4665,-0.4665,-0.4665,-0.4665,-0.4665,-0.4665,-0.4665,-0.4665,-0.4665,-0.4665,-0.4665,-0.4665,-0.4665,-0.4665,-0.4665,-0.4665,-0.4665,-0.4665,-0.4665,-0.4665,-0.4665,-0.4665,-0.4665,-0.4665,-0.4665,-0.4665,-0.4665,-0.4665,-0.4665,-0.4665,-0.4665,-0.4812,-0.4812,-0.5103,-0.5538,-0.5682,-0.5972,-0.6408,-0.699,-0.699,-0.7135,-0.7425,-0.7718,-0.8008,-0.844,-0.9016,-0.9304,-0.9304,-0.9304,-0.9304,-0.9304,-0.9304,-0.9304,-0.9304,-0.9304,-0.9304,-0.9304,-0.9302,-0.959,-0.9735,-1.0314,-1.0753,-1.1044,-0.4307,-0.4307,-0.4307,-0.4307,-0.4307,-0.4307,-0.4307,-0.4307,-0.4307,-0.4307,-0.4307,-0.4307,-0.4307,-0.4307,-0.4307,-0.4307,-0.4307,-0.4307,-0.4307,-0.4307,-0.4307,-0.4307,-0.4307,-0.4308,-0.4307,-0.4312,-0.4333,-0.4342,-0.4349,-0.4401,-0.4437,-0.4467,-0.4495,-0.4525,-0.453,-0.454,-0.4544,-0.4589,-0.4608,-0.4619,-0.4646,-0.4661,-0.4662,-0.4661,-0.4665,-0.4665,-0.4665,-0.4665,-0.4665,-0.4665,-0.4665,-0.4665,-0.4665,-0.4665,-0.4665,-0.4665,-0.4665,-0.4665,-0.4665,-0.4665,-0.4665,-0.4665,-0.4665,-0.4665,-0.4665,-0.4665,-0.4665,-0.4665,-0.4665,-0.4665,-0.4665,-0.4665,-0.4665,-0.4665,-0.4665,-0.4665,-0.4665,-0.4665,-0.4665,-0.4665,-0.4665,-0.4665,-0.481,-0.4812,-0.4957,-0.5394,-0.5685,-0.5829,-0.5972,-0.6553,-0.699,-0.699,-0.7133,-0.7425,-0.7715,-0.8008,-0.8584,-0.916,-0.9304,-0.9304,-0.9304,-0.9304,-0.9304,-0.9304,-0.9304,-0.9304,-0.9304,-0.9304,-0.9304,-0.9593,-0.9879,-1.0167,-1.0455,-1.075,-1.1188,-0.4307,-0.4307,-0.4307,-0.4307,-0.4307,-0.4307,-0.4307,-0.4307,-0.4307,-0.4307,-0.4307,-0.4307,-0.4307,-0.4307,-0.4307,-0.4307,-0.4307,-0.4307,-0.4307,-0.4307,-0.4307,-0.4307,-0.4311,-0.4315,-0.4326,-0.4339,-0.4364,-0.4401,-0.4407,-0.4458,-0.4512,-0.4556,-0.457,-0.4597,-0.4609,-0.4606,-0.4606,-0.4635,-0.4649,-0.4653,-0.4665,-0.4665,-0.4665,-0.4665,-0.4665,-0.4665,-0.4665,-0.4665,-0.4665,-0.4665,-0.4665,-0.4665,-0.4665,-0.4665,-0.4665,-0.4665,-0.4665,-0.4665,-0.4665,-0.4665,-0.4665,-0.4665,-0.4665,-0.4665,-0.4665,-0.4665,-0.4665,-0.4665,-0.4665,-0.4665,-0.4665,-0.4665,-0.4665,-0.4665,-0.4665,-0.4665,-0.4665,-0.4665,-0.4665,-0.4665,-0.4665,-0.4665,-0.4812,-0.4957,-0.525,-0.5685,-0.5976,-0.6266,-0.641,-0.6553,-0.699,-0.699,-0.7135,-0.7423,-0.7715,-0.815,-0.8584,-0.916,-0.9304,-0.9304,-0.9304,-0.9304,-0.9304,-0.9304,-0.9304,-0.9304,-0.9304,-0.9304,-0.9452,-0.9738,-1.0026,-1.0458,-1.0603,-1.0894,-1.1332,-0.4307,-0.4307,-0.4307,-0.4307,-0.4307,-0.4307,-0.4307,-0.4307,-0.4307,-0.4307,-0.4307,-0.4307,-0.4307,-0.4307,-0.4307,-0.4307,-0.4307,-0.4307,-0.4307,-0.4307,-0.4307,-0.4307,-0.4322,-0.4346,-0.4364,-0.4391,-0.4422,-0.4459,-0.4473,-0.4518,-0.4578,-0.4628,-0.4628,-0.465,-0.4651,-0.4646,-0.4653,-0.4658,-0.4665,-0.4665,-0.4665,-0.4665,-0.4665,-0.4665,-0.4665,-0.4665,-0.4665,-0.4665,-0.4665,-0.4665,-0.4665,-0.4665,-0.4665,-0.4665,-0.4665,-0.4665,-0.4665,-0.4665,-0.4665,-0.4665,-0.4665,-0.4665,-0.4665,-0.4665,-0.4665,-0.4665,-0.4665,-0.4665,-0.4665,-0.4665,-0.4665,-0.4665,-0.4665,-0.4665,-0.4665,-0.4665,-0.4665,-0.4665,-0.4665,-0.4665,-0.4665,-0.4812,-0.4957,-0.525,-0.5541,-0.5977,-0.6266,-0.6557,-0.67,-0.6845,-0.7133,-0.7133,-0.7278,-0.7568,-0.8,-0.829,-0.8726,-0.916,-0.9304,-0.9304,-0.9304,-0.9304,-0.9304,-0.9304,-0.9304,-0.9304,-0.9304,-0.9449,-0.9593,-0.9885,-1.0173,-1.0462,-1.0897,-1.1185,-1.1329,-0.4307,-0.4307,-0.4307,-0.4307,-0.4307,-0.4307,-0.4307,-0.4307,-0.4307,-0.4307,-0.4307,-0.4307,-0.4307,-0.4307,-0.4307,-0.4307,-0.4307,-0.4307,-0.4307,-0.4307,-0.4309,-0.4327,-0.435,-0.438,-0.4406,-0.444,-0.4482,-0.4519,-0.4534,-0.4576,-0.4636,-0.4657,-0.4665,-0.4665,-0.4664,-0.4661,-0.4662,-0.4664,-0.4665,-0.4665,-0.4665,-0.4665,-0.4665,-0.4665,-0.4665,-0.4665,-0.4665,-0.4665,-0.4665,-0.4665,-0.4665,-0.4665,-0.4665,-0.4665,-0.4665,-0.4665,-0.4665,-0.4665,-0.4665,-0.4665,-0.4665,-0.4665,-0.4665,-0.4665,-0.4665,-0.4665,-0.4665,-0.4665,-0.4665,-0.4665,-0.4665,-0.4665,-0.4665,-0.4665,-0.4665,-0.4665,-0.4665,-0.4665,-0.4665,-0.4665,-0.4812,-0.4957,-0.525,-0.5396,-0.5832,-0.6123,-0.6557,-0.67,-0.6845,-0.699,-0.7133,-0.7278,-0.7566,-0.7711,-0.8143,-0.8577,-0.8868,-0.916,-0.9304,-0.9304,-0.9304,-0.9304,-0.9304,-0.9304,-0.9304,-0.9304,-0.9302,-0.959,-0.9738,-1.0029,-1.032,-1.0753,-1.1041,-1.1329,-1.1472,-0.4307,-0.4307,-0.4307,-0.4307,-0.4307,-0.4307,-0.4307,-0.4307,-0.4307,-0.4307,-0.4307,-0.4307,-0.4307,-0.4307,-0.4307,-0.4307,-0.4307,-0.4307,-0.4307,-0.4309,-0.4327,-0.4348,-0.438,-0.4413,-0.4461,-0.4501,-0.4542,-0.4582,-0.4595,-0.4625,-0.4651,-0.4665,-0.4665,-0.4665,-0.4665,-0.4665,-0.4665,-0.4665,-0.4665,-0.4665,-0.4665,-0.4665,-0.4665,-0.4665,-0.4665,-0.4665,-0.4665,-0.4665,-0.4665,-0.4665,-0.4665,-0.4665,-0.4665,-0.4665,-0.4665,-0.4665,-0.4665,-0.4665,-0.4665,-0.4665,-0.4665,-0.4665,-0.4665,-0.4665,-0.4665,-0.4665,-0.4665,-0.4665,-0.4665,-0.4665,-0.4665,-0.4665,-0.4665,-0.4665,-0.4665,-0.4665,-0.4665,-0.481,-0.4812,-0.4957,-0.5101,-0.5394,-0.5539,-0.5832,-0.6121,-0.6413,-0.6702,-0.699,-0.7133,-0.7133,-0.7278,-0.7568,-0.7858,-0.8145,-0.8435,-0.8724,-0.9013,-0.916,-0.9304,-0.9304,-0.9304,-0.9304,-0.9304,-0.9304,-0.9304,-0.9304,-0.9302,-0.959,-0.9882,-1.0323,-1.0612,-1.1044,-1.1329,-1.1472,-1.1616,-0.4307,-0.4307,-0.4307,-0.4307,-0.4307,-0.4307,-0.4307,-0.4307,-0.4307,-0.4307,-0.4307,-0.4307,-0.4307,-0.4307,-0.4307,-0.4307,-0.4307,-0.4307,-0.4307,-0.4328,-0.435,-0.4386,-0.4421,-0.4482,-0.4527,-0.4565,-0.4604,-0.4636,-0.4639,-0.4655,-0.4665,-0.4665,-0.4665,-0.4665,-0.4665,-0.4665,-0.4665,-0.4665,-0.4665,-0.4665,-0.4665,-0.4665,-0.4665,-0.4665,-0.4665,-0.4665,-0.4665,-0.4665,-0.4665,-0.4665,-0.4665,-0.4665,-0.4665,-0.4665,-0.4665,-0.4665,-0.4665,-0.4665,-0.4665,-0.4665,-0.4665,-0.4665,-0.4665,-0.4665,-0.4665,-0.4665,-0.4665,-0.4665,-0.4665,-0.4665,-0.4665,-0.4665,-0.4665,-0.4665,-0.4665,-0.4665,-0.4665,-0.4812,-0.4957,-0.5248,-0.5392,-0.5683,-0.5976,-0.6266,-0.6557,-0.6702,-0.6845,-0.6988,-0.7423,-0.7423,-0.7568,-0.7858,-0.8295,-0.8582,-0.8726,-0.8868,-0.9157,-0.916,-0.9304,-0.9304,-0.9304,-0.9304,-0.9304,-0.9304,-0.9304,-0.9304,-0.9446,-0.9735,-1.0026,-1.0468,-1.0903,-1.1188,-1.1472,-1.1616,-1.1616,-0.4307,-0.4307,-0.4307,-0.4307,-0.4307,-0.4307,-0.4307,-0.4307,-0.4307,-0.4307,-0.4307,-0.4307,-0.4307,-0.4307,-0.4307,-0.4309,-0.4309,-0.4307,-0.433,-0.4357,-0.4388,-0.4433,-0.4486,-0.4542,-0.458,-0.4616,-0.4642,-0.4662,-0.4665,-0.4665,-0.4665,-0.4665,-0.4665,-0.4665,-0.4665,-0.4665,-0.4665,-0.4665,-0.4665,-0.4665,-0.4665,-0.4665,-0.4665,-0.4665,-0.4665,-0.4665,-0.4665,-0.4665,-0.4665,-0.4665,-0.4665,-0.4665,-0.4665,-0.4665,-0.4665,-0.4665,-0.4665,-0.4665,-0.4665,-0.4665,-0.4665,-0.4665,-0.4665,-0.4665,-0.4665,-0.4665,-0.4665,-0.4665,-0.4665,-0.4665,-0.4665,-0.4665,-0.4665,-0.4665,-0.4665,-0.481,-0.4812,-0.5103,-0.5248,-0.5536,-0.5829,-0.6121,-0.6266,-0.6557,-0.6845,-0.6845,-0.6988,-0.7278,-0.7566,-0.7858,-0.8003,-0.8148,-0.8582,-0.8871,-0.9013,-0.9157,-0.9302,-0.9302,-0.9304,-0.9304,-0.9304,-0.9304,-0.9304,-0.9304,-0.9304,-0.9304,-0.9446,-0.9735,-1.0023,-1.0462,-1.0897,-1.1329,-1.1472,-1.1616,-1.1616,-0.4307,-0.4307,-0.4307,-0.4307,-0.4307,-0.4307,-0.4307,-0.4307,-0.4307,-0.4307,-0.4307,-0.4307,-0.4307,-0.4307,-0.4307,-0.4313,-0.4322,-0.4334,-0.4361,-0.4401,-0.4425,-0.448,-0.4533,-0.4585,-0.4619,-0.4642,-0.4661,-0.4665,-0.4665,-0.4665,-0.4665,-0.4665,-0.4665,-0.4665,-0.4665,-0.4665,-0.4665,-0.4665,-0.4665,-0.4665,-0.4665,-0.4665,-0.4665,-0.4665,-0.4665,-0.4665,-0.4665,-0.4665,-0.4665,-0.4665,-0.4665,-0.4665,-0.4665,-0.4665,-0.4665,-0.4665,-0.4665,-0.4665,-0.4665,-0.4665,-0.4665,-0.4665,-0.4665,-0.4665,-0.4665,-0.4665,-0.4665,-0.481,-0.481,-0.4665,-0.4665,-0.4665,-0.4665,-0.481,-0.481,-0.4956,-0.5103,-0.5396,-0.5538,-0.5827,-0.6117,-0.6412,-0.6557,-0.6845,-0.699,-0.7133,-0.7276,-0.7566,-0.7856,-0.8148,-0.8437,-0.8582,-0.8871,-0.916,-0.9302,-0.9302,-0.9304,-0.9304,-0.9304,-0.9304,-0.9304,-0.9304,-0.9304,-0.9304,-0.9304,-0.9302,-0.959,-1.0023,-1.0311,-1.0603,-1.1038,-1.1472,-1.1472,-1.1616,-1.1616,-0.4307,-0.4307,-0.4307,-0.4307,-0.4307,-0.4307,-0.4307,-0.4307,-0.4307,-0.4307,-0.4307,-0.4307,-0.4307,-0.4308,-0.4307,-0.4324,-0.4367,-0.4375,-0.4416,-0.4462,-0.4497,-0.4541,-0.458,-0.4617,-0.4647,-0.4661,-0.4665,-0.4665,-0.4665,-0.4665,-0.4665,-0.4665,-0.4665,-0.4665,-0.4665,-0.4665,-0.4665,-0.4665,-0.4665,-0.4665,-0.4665,-0.4665,-0.4665,-0.4665,-0.4665,-0.4665,-0.4665,-0.4665,-0.4665,-0.4665,-0.4665,-0.4665,-0.4665,-0.4665,-0.4665,-0.4665,-0.4665,-0.4665,-0.4665,-0.4665,-0.4665,-0.4665,-0.4665,-0.481,-0.481,-0.481,-0.4956,-0.5101,-0.5101,-0.481,-0.481,-0.481,-0.481,-0.5101,-0.5247,-0.5392,-0.5683,-0.583,-0.6121,-0.641,-0.6555,-0.67,-0.6845,-0.699,-0.7133,-0.7276,-0.7566,-0.7856,-0.829,-0.8582,-0.8874,-0.9016,-0.916,-0.916,-0.9302,-0.9302,-0.9304,-0.9304,-0.9304,-0.9304,-0.9304,-0.9304,-0.9304,-0.9304,-0.9302,-0.9446,-0.9735,-1.0167,-1.0462,-1.075,-1.1185,-1.1616,-1.1616,-1.1616,-1.1616]},{"header":{"parameterUnit":"m.s-1","parameterCategory":1,"la1":31.0,"la2":29.5877,"lo1":-88.7671,"lo2":-86.6584,"dy":0.0162,"dx":0.0185,"nx":115,"ny":88,"refTime":"2023-06-18T06:00:00:Z","depth":0,"parameterNumber":3,"parameterNumberName":"V-component_of_WINDS"},"data":[0.0,0.0,0.0,0.0,0.0,0.0,0.0,0.0,0.0,0.0,0.0,0.0,0.0,0.0,0.0,0.0,0.0,0.0,0.0,0.0,0.0,0.0,0.0,0.0,0.0,0.0,0.0,0.0,0.0,0.0,0.0,0.0,0.0,0.0,0.0,0.0,0.0,0.0,0.0,0.0,0.0,0.0,0.0,0.0,0.0,0.0,0.0,0.0,0.0,0.0,0.0,0.0,0.0,0.0,0.0,0.0,0.0,0.0,0.0,0.0,0.0,0.0,0.0,0.0,0.0,0.0,0.0,0.0,0.0,0.0,0.0,0.0,0.0,0.0,0.0,0.0,0.0,0.0,0.0,0.0,0.0,0.0,0.0,0.0,0.0,0.0,0.0,0.0,0.0,0.0,0.0,0.0,0.0,0.0,0.0,0.0,0.0,0.0,0.0,0.0,0.0,0.0,0.0,0.0,0.0,0.0,0.0,0.0,0.0,0.0,0.0,0.0,0.0,0.0,0.0,0.0,0.0,0.0,0.0,0.0,0.0,0.0,0.0,0.0,0.0,0.0,0.0,0.0,0.0,0.0,0.0,0.0,0.0,0.0,0.0,0.0,0.0,0.0,0.0,0.0,0.0,0.0,0.0,0.0,0.0,0.0,0.0,0.0,0.0,0.0,0.0,0.0,0.0,0.0,0.0,0.0,0.0,0.0,0.0,0.0,0.0,0.0,0.0,0.0,0.0,0.0,0.0,0.0,0.0,0.0,0.0,0.0,0.0,0.0,0.0,0.0,0.0,0.0,0.0,0.0,0.0,0.0,0.0,0.0,0.0,0.0,0.0,0.0,0.0,0.0,0.0,0.0,0.0,0.0,0.0,0.0,0.0,0.0,0.0,0.0,0.0,0.0,0.0,0.0,0.0,0.0,0.0,0.0,0.0,0.0,0.0,0.0,0.0,0.0,0.0,0.0,0.0,0.0,0.0,0.0,0.0,0.0,0.0,0.0,0.0,0.0,0.0,0.0,0.0,0.0,0.0,0.0,0.0,0.0,0.0,0.0,0.0,0.0,0.0,0.0,0.0,0.0,0.0,0.0,0.0,0.0,0.0,0.0,0.0,0.0,0.0,0.0,0.0,0.0,0.0,0.0,0.0,0.0,0.0,0.0,0.0,0.0,0.0,0.0,0.0,0.0,0.0,0.0,0.0,0.0,0.0,0.0,0.0,0.0,0.0,0.0,0.0,0.0,0.0,0.0,0.0,0.0,0.0,0.0,0.0,0.0,0.0,0.0,0.0,0.0,0.0,0.0,0.0,0.0,0.0,0.0,0.0,0.0,0.0,0.0,0.0,0.0,0.0,0.0,0.0,0.0,0.0,0.0,0.0,0.0,0.0,0.0,0.0,0.0,0.0,0.0,0.0,0.0,0.0,0.0,0.0,0.0,0.0,0.0,0.0,0.0,0.0,0.0,0.0,0.0,0.0,0.0,0.0,0.0,0.0,0.0,0.0,0.0,0.0,0.0,0.0,0.0,0.0,0.0,0.0,0.0,0.0,0.0,0.0,0.0,0.0,0.0,0.0,0.0,0.0,0.0,0.0,0.0,0.0,0.0,0.0,0.0,0.0,0.0,0.0,0.0,0.0,0.0,0.0,0.0,0.0,0.0,0.0,0.0,0.0,0.0,0.0,0.0,0.0,0.0,0.0,0.0,0.0,0.0,0.0,0.0,0.0,0.0,0.0,0.0,0.0,0.0,0.0,0.0,0.0,0.0,0.0,0.0,0.0,0.0,0.0,0.0,0.0,0.0,0.0,0.0,0.0,0.0,0.0,0.0,0.0,0.0,0.0,0.0,0.0,0.0,0.0,0.0,0.0,0.0,0.0,0.0,0.0,0.0,0.0,0.0,0.0,0.0,0.0,0.0,0.0,0.0,0.0,0.0,0.0,0.0,0.0,0.0,0.0,0.0,0.0,0.0,0.0,0.0,0.0,0.0,0.0,0.0,0.0,0.0,0.0,0.0,0.0,0.0,0.0,0.0,0.0,0.0,0.0,0.0,0.0,0.0,0.0,0.0,0.0,0.0,0.0,0.0,0.0,0.0,0.0,0.0,0.0,0.0,0.0,0.0,0.0,0.0,0.0,0.0,0.0,0.0,0.0,0.0,0.0,0.0,0.0,0.0,0.0,0.0,0.0,0.0,0.0,0.0,0.0,0.0,0.0,0.0,0.0,0.0,0.0,0.0,0.0,0.0,0.0,0.0,0.0,0.0,0.0,0.0,0.0,0.0,0.0,0.0,0.0,0.0,0.0,0.0,0.0,0.0,0.0,0.0,0.0,0.0,0.0,0.0,0.0,0.0,0.0,0.0,0.0,0.0,0.0,0.0,0.0,0.0,0.0,0.0,0.0,0.0,0.0,0.0,0.0,0.0,0.0,0.0,0.0,0.0,0.0,0.0,0.0,0.0,0.0,0.0,0.0,0.0,0.0,0.0,0.0,0.0,0.0,0.0,0.0,0.0,0.0,0.0,0.0,0.0,0.0,0.0,0.0,0.0,0.0,0.0,0.0,0.0,0.0,0.0,0.0,0.0,0.0,0.0,0.0,0.0,0.0,0.0,0.0,0.0,0.0,0.0,0.0,0.0,0.0,0.0,0.0,0.0,0.0,0.0,0.0,0.0,0.0,0.0,0.0,0.0,0.0,0.0,0.0,0.0,0.0,0.0,0.0,0.0,0.0,0.0,0.0,0.0,0.0,0.0,0.0,0.0,0.0,0.0,0.0,0.0,0.0,0.0,0.0,0.0,0.0,0.0,0.0,0.0,0.0,0.0,0.0,0.0,0.0,0.0,0.0,0.0,0.0,0.0,0.0,0.0,0.0,0.0,0.0,0.0,0.0,0.0,0.0,0.0,0.0,0.0,0.0,0.0,0.0,0.0,0.0,0.0,0.0,0.0,0.0,0.0,0.0,0.0,0.0,0.0,0.0,0.0,0.0,0.0,0.0,0.0,0.0,0.0,0.0,0.0,0.0,0.0,0.0,0.0,0.0,0.0,0.0,0.0,0.0,0.0,0.0,0.0,0.0,0.0,0.0,0.0,0.0,0.0,0.0,0.0,0.0,0.0,0.0,0.0,0.0,0.0,0.0,0.0,0.0,0.0,0.0,0.0,0.0,0.0,0.0,0.0,0.0,0.0,0.0,0.0,0.0,0.0,0.0,0.0,0.0,0.0,0.0,0.0,0.0,0.0,0.0,0.0,0.0,0.0,0.0,0.0,0.0,0.0,0.0,0.0,0.0,0.0,0.0,0.0,0.0,0.0,0.0,0.0,0.0,0.0,0.0,0.0,0.0,0.0,0.0,0.0,0.0,0.0,0.0,0.0,0.0,0.0,0.0,0.0,0.0,0.0,0.0,0.0,0.0,0.0,0.0,0.0,0.0,0.0,0.0,0.0,0.0,0.0,0.0,0.0,0.0,0.0,0.0,0.0,0.0,0.0,0.0,0.0,0.0,0.0,0.0,0.0,0.0,0.0,0.0,0.0,0.0,0.0,0.0,0.0,0.0,0.0,0.0,0.0,0.0,0.0,0.0,0.0,0.0,0.0,0.0,0.0,0.0,0.0,0.0,0.0,0.0,0.0,0.0,0.0,0.0,0.0,0.0,0.0,0.0,0.0,0.0,0.0,0.0,0.0,0.0,0.0,0.0,0.0,0.0,0.0,0.0,0.0,0.0,0.0,0.0,0.0,0.0,0.0,0.0,0.0,0.0,0.0,0.0,0.0,0.0,0.0,0.0,0.0,0.0,0.0,0.0,0.0,0.0,0.0,0.0,0.0,0.0,0.0,0.0,0.0,0.0,0.0,0.0,0.0,0.0,0.0,0.0,0.0,0.0,0.0,0.0,0.0,0.0,0.0,0.0,0.0,0.0,0.0,0.0,0.0,0.0,0.0,0.0,0.0,0.0,0.0,0.0,0.0,0.0,0.0,0.0,0.0,0.0,0.0,0.0,0.0,0.0,0.0,0.0,0.0,0.0,0.0,0.0,0.0,0.0,0.0,0.0,0.0,0.0,0.0,0.0,0.0,0.0,0.0,0.0,0.0,0.0,0.0,0.0,0.0,0.0,0.0,0.0,0.0,0.0,0.0,0.0,0.0,0.0,0.0,0.0,0.0,0.0,0.0,0.0,0.0,0.0,0.0,0.0,0.0,0.0,0.0,0.0,0.0,0.0,0.0,0.0,0.0,0.0,0.0,0.0,0.0,0.0,0.0,0.0,0.0,0.0,0.0,0.0,0.0,0.0,0.0,-1.836,0.0,0.0,0.0,0.0,0.0,0.0,0.0,0.0,0.0,0.0,0.0,0.0,0.0,0.0,0.0,0.0,0.0,0.0,0.0,0.0,0.0,0.0,0.0,0.0,0.0,0.0,0.0,0.0,0.0,0.0,0.0,0.0,0.0,0.0,0.0,0.0,0.0,0.0,0.0,0.0,0.0,0.0,0.0,0.0,0.0,0.0,0.0,0.0,0.0,0.0,0.0,0.0,0.0,0.0,0.0,0.0,0.0,0.0,0.0,0.0,0.0,0.0,0.0,0.0,0.0,0.0,0.0,0.0,0.0,0.0,0.0,0.0,0.0,0.0,0.0,0.0,0.0,0.0,0.0,0.0,0.0,0.0,0.0,0.0,0.0,0.0,0.0,0.0,0.0,0.0,0.0,0.0,0.0,0.0,0.0,0.0,0.0,0.0,0.0,0.0,0.0,0.0,0.0,0.0,0.0,0.0,0.0,0.0,0.0,0.0,-1.9747,-1.9696,-1.9559,-1.9362,-1.9097,0.0,0.0,0.0,0.0,0.0,0.0,0.0,0.0,0.0,0.0,0.0,0.0,0.0,0.0,0.0,0.0,0.0,0.0,0.0,0.0,0.0,0.0,0.0,0.0,0.0,0.0,0.0,0.0,0.0,0.0,0.0,0.0,0.0,0.0,0.0,0.0,0.0,0.0,0.0,0.0,0.0,0.0,0.0,0.0,0.0,0.0,0.0,0.0,0.0,0.0,0.0,0.0,0.0,0.0,0.0,0.0,0.0,0.0,0.0,0.0,0.0,0.0,0.0,0.0,0.0,0.0,0.0,0.0,0.0,0.0,0.0,0.0,0.0,0.0,0.0,0.0,0.0,0.0,0.0,0.0,0.0,0.0,0.0,0.0,0.0,0.0,0.0,0.0,0.0,0.0,0.0,0.0,0.0,0.0,0.0,0.0,0.0,0.0,0.0,0.0,0.0,0.0,0.0,0.0,0.0,0.0,0.0,0.0,0.0,0.0,0.0,0.0,-1.999,-1.9727,-1.9703,0.0,0.0,0.0,0.0,0.0,0.0,0.0,0.0,0.0,0.0,0.0,0.0,0.0,0.0,0.0,0.0,0.0,0.0,0.0,0.0,0.0,0.0,0.0,0.0,0.0,0.0,0.0,0.0,0.0,0.0,0.0,0.0,0.0,0.0,0.0,0.0,0.0,0.0,0.0,0.0,0.0,0.0,0.0,0.0,0.0,0.0,0.0,0.0,0.0,0.0,0.0,0.0,0.0,0.0,0.0,0.0,0.0,0.0,0.0,0.0,0.0,0.0,0.0,0.0,0.0,0.0,0.0,0.0,0.0,0.0,0.0,0.0,0.0,0.0,0.0,0.0,0.0,0.0,0.0,0.0,0.0,0.0,0.0,0.0,0.0,0.0,0.0,0.0,0.0,0.0,0.0,0.0,0.0,0.0,0.0,0.0,0.0,0.0,0.0,0.0,0.0,0.0,0.0,0.0,0.0,0.0,0.0,0.0,0.0,0.0,-2.0954,-2.0731,-2.0503,0.0,-1.9972,0.0,0.0,0.0,0.0,0.0,0.0,0.0,0.0,0.0,0.0,0.0,0.0,0.0,0.0,0.0,0.0,0.0,0.0,0.0,0.0,0.0,0.0,0.0,0.0,0.0,0.0,0.0,0.0,0.0,0.0,0.0,0.0,0.0,0.0,0.0,0.0,0.0,0.0,0.0,0.0,0.0,0.0,0.0,0.0,0.0,0.0,0.0,0.0,0.0,0.0,0.0,0.0,0.0,0.0,0.0,0.0,0.0,0.0,0.0,0.0,0.0,0.0,0.0,0.0,0.0,0.0,0.0,0.0,0.0,0.0,0.0,0.0,0.0,0.0,0.0,0.0,0.0,0.0,0.0,0.0,0.0,0.0,0.0,0.0,0.0,0.0,0.0,0.0,0.0,0.0,0.0,0.0,0.0,0.0,0.0,0.0,0.0,0.0,0.0,0.0,0.0,0.0,0.0,0.0,0.0,0.0,0.0,0.0,0.0,0.0,-2.1632,-2.1334,-2.1069,-2.0815,0.0,0.0,0.0,0.0,0.0,0.0,0.0,0.0,0.0,0.0,0.0,0.0,0.0,0.0,0.0,0.0,0.0,0.0,0.0,0.0,0.0,0.0,0.0,0.0,0.0,0.0,0.0,0.0,0.0,0.0,0.0,0.0,0.0,0.0,0.0,0.0,0.0,0.0,0.0,0.0,0.0,0.0,0.0,0.0,0.0,0.0,0.0,0.0,0.0,0.0,0.0,0.0,0.0,0.0,0.0,0.0,0.0,0.0,0.0,0.0,0.0,0.0,0.0,0.0,0.0,0.0,0.0,0.0,0.0,0.0,0.0,0.0,0.0,0.0,0.0,0.0,0.0,0.0,0.0,0.0,0.0,0.0,0.0,0.0,0.0,0.0,0.0,0.0,0.0,0.0,0.0,0.0,0.0,0.0,0.0,0.0,0.0,0.0,0.0,0.0,0.0,0.0,0.0,0.0,0.0,0.0,0.0,0.0,0.0,0.0,-2.2084,-2.2034,-2.1775,-2.1624,-2.1491,-2.1325,0.0,0.0,0.0,0.0,0.0,0.0,0.0,0.0,0.0,0.0,0.0,0.0,0.0,0.0,0.0,0.0,0.0,0.0,0.0,0.0,0.0,0.0,0.0,0.0,0.0,0.0,0.0,0.0,0.0,0.0,0.0,0.0,0.0,0.0,0.0,0.0,0.0,0.0,0.0,0.0,0.0,0.0,0.0,0.0,0.0,0.0,0.0,0.0,0.0,0.0,0.0,0.0,0.0,0.0,0.0,0.0,0.0,0.0,0.0,0.0,0.0,0.0,0.0,0.0,0.0,0.0,0.0,0.0,0.0,0.0,0.0,0.0,0.0,0.0,0.0,0.0,0.0,0.0,0.0,0.0,0.0,0.0,0.0,0.0,0.0,0.0,0.0,0.0,0.0,0.0,0.0,0.0,0.0,0.0,0.0,0.0,0.0,0.0,0.0,0.0,0.0,0.0,0.0,0.0,0.0,0.0,0.0,0.0,-2.2297,-2.2147,-2.2034,-2.1898,-2.2025,-2.2187,0.0,0.0,0.0,0.0,0.0,0.0,0.0,0.0,0.0,0.0,0.0,0.0,0.0,0.0,0.0,0.0,0.0,0.0,0.0,0.0,0.0,0.0,0.0,0.0,0.0,0.0,0.0,0.0,0.0,0.0,0.0,0.0,0.0,0.0,0.0,0.0,0.0,0.0,0.0,0.0,0.0,0.0,0.0,0.0,0.0,0.0,0.0,0.0,0.0,0.0,0.0,0.0,0.0,0.0,0.0,0.0,0.0,0.0,0.0,0.0,0.0,0.0,0.0,0.0,0.0,0.0,0.0,0.0,0.0,0.0,0.0,0.0,0.0,0.0,0.0,0.0,0.0,0.0,0.0,0.0,0.0,0.0,0.0,0.0,0.0,0.0,0.0,0.0,0.0,0.0,0.0,0.0,0.0,0.0,0.0,0.0,0.0,0.0,0.0,0.0,0.0,0.0,0.0,0.0,0.0,0.0,0.0,0.0,0.0,-2.2683,-2.2744,-2.2824,-2.2967,-2.3135,-2.3374,0.0,0.0,0.0,0.0,0.0,0.0,0.0,0.0,0.0,0.0,0.0,0.0,0.0,0.0,0.0,0.0,0.0,0.0,0.0,0.0,0.0,0.0,0.0,0.0,0.0,0.0,0.0,0.0,0.0,0.0,0.0,0.0,0.0,0.0,0.0,0.0,0.0,0.0,0.0,0.0,0.0,0.0,0.0,0.0,0.0,0.0,0.0,0.0,0.0,0.0,0.0,0.0,0.0,0.0,0.0,0.0,0.0,0.0,0.0,0.0,0.0,0.0,0.0,0.0,0.0,0.0,0.0,0.0,0.0,0.0,0.0,0.0,0.0,0.0,0.0,0.0,0.0,0.0,0.0,0.0,0.0,0.0,0.0,0.0,0.0,0.0,0.0,0.0,0.0,0.0,0.0,0.0,0.0,0.0,0.0,0.0,0.0,0.0,0.0,0.0,0.0,0.0,0.0,0.0,0.0,0.0,0.0,0.0,0.0,-2.3367,0.0,-2.3787,-2.4137,-2.431,-2.4597,0.0,0.0,0.0,0.0,0.0,0.0,0.0,0.0,0.0,0.0,0.0,0.0,0.0,0.0,0.0,0.0,0.0,0.0,0.0,0.0,0.0,0.0,0.0,0.0,0.0,0.0,0.0,0.0,0.0,0.0,0.0,0.0,0.0,0.0,0.0,0.0,0.0,0.0,0.0,0.0,0.0,0.0,0.0,0.0,0.0,0.0,0.0,0.0,0.0,0.0,0.0,0.0,0.0,0.0,0.0,0.0,0.0,0.0,0.0,0.0,0.0,0.0,0.0,0.0,0.0,0.0,0.0,0.0,0.0,0.0,0.0,0.0,0.0,0.0,0.0,0.0,0.0,0.0,0.0,0.0,0.0,0.0,0.0,0.0,0.0,0.0,0.0,0.0,0.0,0.0,0.0,0.0,0.0,0.0,0.0,0.0,0.0,0.0,0.0,0.0,0.0,0.0,0.0,0.0,0.0,0.0,0.0,0.0,-2.4106,-2.4345,-2.4624,-2.509,-2.5412,-2.5591,-2.5797,0.0,0.0,0.0,0.0,0.0,0.0,0.0,0.0,0.0,0.0,0.0,0.0,0.0,0.0,0.0,0.0,0.0,0.0,0.0,0.0,0.0,0.0,0.0,0.0,0.0,0.0,0.0,0.0,0.0,0.0,0.0,0.0,0.0,0.0,0.0,0.0,0.0,0.0,0.0,0.0,0.0,0.0,0.0,0.0,0.0,0.0,0.0,0.0,0.0,0.0,0.0,0.0,0.0,0.0,0.0,0.0,0.0,0.0,0.0,0.0,0.0,0.0,0.0,0.0,0.0,0.0,0.0,0.0,0.0,0.0,0.0,0.0,0.0,0.0,0.0,0.0,0.0,0.0,0.0,0.0,0.0,0.0,0.0,0.0,0.0,0.0,0.0,0.0,0.0,0.0,0.0,0.0,0.0,0.0,0.0,0.0,0.0,0.0,0.0,0.0,0.0,0.0,0.0,0.0,0.0,0.0,0.0,0.0,0.0,-2.6524,-2.7391,-2.7856,-2.7832,-2.7958,-2.7919,0.0,0.0,0.0,0.0,0.0,0.0,0.0,0.0,0.0,0.0,0.0,0.0,0.0,0.0,0.0,0.0,0.0,0.0,0.0,0.0,0.0,0.0,0.0,0.0,0.0,0.0,0.0,0.0,0.0,0.0,0.0,0.0,0.0,0.0,0.0,0.0,0.0,0.0,0.0,0.0,0.0,0.0,0.0,0.0,0.0,0.0,0.0,0.0,0.0,0.0,0.0,0.0,0.0,0.0,0.0,0.0,0.0,0.0,0.0,0.0,0.0,0.0,0.0,0.0,0.0,0.0,0.0,0.0,0.0,0.0,0.0,0.0,0.0,0.0,0.0,0.0,0.0,0.0,0.0,0.0,0.0,0.0,0.0,0.0,0.0,0.0,0.0,0.0,0.0,0.0,0.0,0.0,0.0,0.0,0.0,0.0,0.0,0.0,0.0,0.0,0.0,0.0,0.0,0.0,0.0,0.0,0.0,0.0,0.0,-3.0033,-3.0165,-3.0188,-3.0129,-2.9974,-2.9675,-2.9297,0.0,0.0,0.0,0.0,0.0,0.0,0.0,0.0,0.0,0.0,0.0,0.0,0.0,0.0,0.0,0.0,0.0,0.0,0.0,0.0,0.0,0.0,0.0,0.0,0.0,0.0,0.0,0.0,0.0,0.0,0.0,0.0,0.0,0.0,0.0,0.0,0.0,0.0,0.0,0.0,0.0,0.0,0.0,0.0,0.0,0.0,0.0,0.0,0.0,0.0,0.0,0.0,0.0,0.0,0.0,0.0,0.0,0.0,0.0,0.0,0.0,0.0,0.0,0.0,0.0,0.0,0.0,0.0,0.0,0.0,0.0,0.0,0.0,0.0,0.0,0.0,0.0,0.0,0.0,0.0,0.0,0.0,0.0,0.0,0.0,0.0,0.0,0.0,0.0,0.0,0.0,0.0,0.0,0.0,0.0,0.0,0.0,0.0,0.0,0.0,0.0,0.0,0.0,0.0,0.0,0.0,0.0,0.0,-3.4517,-3.2956,-3.2278,-3.237,-3.1682,-3.1232,0.0,0.0,0.0,0.0,0.0,0.0,0.0,0.0,0.0,0.0,0.0,0.0,0.0,0.0,0.0,0.0,0.0,0.0,0.0,0.0,0.0,0.0,0.0,0.0,0.0,0.0,0.0,0.0,0.0,0.0,0.0,0.0,0.0,0.0,0.0,0.0,0.0,0.0,0.0,0.0,0.0,0.0,0.0,0.0,0.0,0.0,0.0,0.0,0.0,0.0,0.0,0.0,0.0,0.0,0.0,0.0,0.0,0.0,0.0,0.0,0.0,0.0,0.0,0.0,0.0,0.0,0.0,0.0,0.0,0.0,0.0,0.0,0.0,0.0,0.0,0.0,0.0,0.0,0.0,0.0,0.0,0.0,0.0,0.0,0.0,0.0,0.0,0.0,0.0,0.0,0.0,0.0,0.0,0.0,0.0,0.0,0.0,0.0,0.0,0.0,0.0,0.0,0.0,0.0,0.0,0.0,0.0,0.0,0.0,-3.7518,-3.7506,-3.6609,-3.4792,-3.4106,-3.3387,0.0,0.0,0.0,0.0,0.0,0.0,0.0,0.0,0.0,0.0,0.0,0.0,0.0,0.0,0.0,0.0,0.0,0.0,0.0,0.0,0.0,0.0,0.0,0.0,0.0,0.0,0.0,0.0,0.0,0.0,0.0,0.0,0.0,0.0,0.0,0.0,0.0,0.0,0.0,0.0,0.0,0.0,0.0,0.0,0.0,0.0,0.0,0.0,0.0,0.0,0.0,0.0,0.0,0.0,0.0,0.0,0.0,0.0,0.0,0.0,0.0,0.0,0.0,0.0,0.0,0.0,0.0,0.0,0.0,0.0,0.0,0.0,0.0,0.0,0.0,0.0,0.0,0.0,0.0,0.0,0.0,0.0,0.0,0.0,0.0,0.0,0.0,0.0,0.0,0.0,0.0,0.0,0.0,0.0,0.0,0.0,0.0,0.0,0.0,0.0,0.0,0.0,0.0,0.0,0.0,0.0,0.0,0.0,-3.7546,-3.9423,-4.028,-3.9964,-3.8499,-3.7121,-3.575,0.0,0.0,0.0,0.0,0.0,0.0,0.0,0.0,0.0,0.0,0.0,0.0,0.0,0.0,0.0,0.0,0.0,0.0,0.0,0.0,0.0,0.0,0.0,0.0,0.0,0.0,0.0,0.0,0.0,0.0,0.0,0.0,0.0,0.0,0.0,0.0,0.0,0.0,0.0,0.0,0.0,0.0,0.0,0.0,0.0,0.0,0.0,0.0,0.0,0.0,0.0,0.0,0.0,0.0,0.0,0.0,0.0,0.0,0.0,0.0,0.0,0.0,0.0,0.0,0.0,0.0,0.0,0.0,0.0,0.0,0.0,0.0,0.0,0.0,0.0,0.0,0.0,0.0,0.0,0.0,0.0,0.0,0.0,0.0,0.0,0.0,0.0,0.0,0.0,0.0,0.0,0.0,0.0,0.0,0.0,0.0,0.0,0.0,0.0,0.0,0.0,0.0,0.0,0.0,0.0,0.0,0.0,0.0,-3.9351,-4.076,-4.1908,-4.254,-4.2545,-4.0152,-3.8016,0.0,0.0,0.0,0.0,0.0,0.0,0.0,0.0,0.0,0.0,0.0,0.0,0.0,0.0,0.0,0.0,0.0,0.0,0.0,0.0,0.0,0.0,0.0,0.0,0.0,0.0,0.0,0.0,0.0,0.0,0.0,0.0,0.0,0.0,0.0,0.0,0.0,0.0,0.0,0.0,0.0,0.0,0.0,0.0,0.0,0.0,0.0,0.0,0.0,0.0,0.0,0.0,0.0,0.0,0.0,0.0,0.0,0.0,0.0,0.0,0.0,0.0,0.0,0.0,0.0,0.0,0.0,0.0,0.0,0.0,0.0,0.0,0.0,0.0,0.0,0.0,0.0,0.0,0.0,0.0,0.0,0.0,0.0,0.0,0.0,0.0,0.0,0.0,0.0,0.0,0.0,0.0,0.0,0.0,0.0,0.0,0.0,0.0,0.0,0.0,0.0,0.0,0.0,0.0,0.0,0.0,0.0,0.0,-4.1181,-4.3178,-4.3656,-4.3932,-4.4045,-4.13,-3.9216,0.0,0.0,0.0,0.0,0.0,0.0,0.0,0.0,0.0,0.0,0.0,0.0,0.0,0.0,0.0,0.0,0.0,0.0,0.0,0.0,0.0,0.0,0.0,0.0,0.0,0.0,0.0,0.0,0.0,0.0,0.0,0.0,0.0,0.0,0.0,0.0,0.0,0.0,0.0,0.0,0.0,0.0,0.0,0.0,0.0,0.0,0.0,0.0,-4.102,0.0,0.0,0.0,0.0,0.0,0.0,0.0,0.0,0.0,0.0,0.0,0.0,0.0,0.0,0.0,0.0,0.0,0.0,0.0,0.0,0.0,0.0,0.0,0.0,0.0,0.0,0.0,0.0,0.0,0.0,0.0,0.0,0.0,0.0,0.0,0.0,0.0,0.0,0.0,0.0,0.0,0.0,0.0,0.0,0.0,0.0,0.0,0.0,0.0,0.0,0.0,0.0,0.0,0.0,0.0,0.0,0.0,0.0,0.0,-4.302,-4.4241,-4.4831,-4.5182,-4.5153,-4.2976,-4.1023,0.0,0.0,0.0,0.0,0.0,0.0,0.0,0.0,0.0,0.0,0.0,0.0,0.0,0.0,0.0,0.0,0.0,0.0,0.0,0.0,0.0,0.0,0.0,0.0,0.0,0.0,0.0,0.0,0.0,0.0,0.0,0.0,0.0,0.0,0.0,0.0,0.0,0.0,0.0,0.0,0.0,0.0,0.0,0.0,0.0,0.0,0.0,0.0,0.0,0.0,0.0,0.0,0.0,0.0,0.0,0.0,0.0,0.0,0.0,0.0,0.0,0.0,0.0,0.0,0.0,0.0,0.0,0.0,0.0,0.0,0.0,0.0,0.0,0.0,0.0,0.0,0.0,0.0,0.0,0.0,0.0,0.0,0.0,0.0,0.0,0.0,0.0,0.0,0.0,0.0,0.0,0.0,0.0,0.0,0.0,0.0,0.0,0.0,0.0,0.0,0.0,0.0,0.0,0.0,0.0,0.0,0.0,-4.3085,-4.4712,-4.5051,-4.6,-4.6436,-4.6282,-4.4813,-4.3027,-4.1024,0.0,0.0,0.0,0.0,0.0,0.0,0.0,0.0,0.0,0.0,0.0,0.0,0.0,0.0,0.0,0.0,0.0,0.0,0.0,0.0,0.0,0.0,0.0,0.0,0.0,0.0,0.0,0.0,0.0,0.0,0.0,0.0,0.0,0.0,0.0,0.0,0.0,0.0,-3.8206,-3.982,0.0,0.0,0.0,0.0,0.0,0.0,0.0,0.0,-4.495,0.0,0.0,0.0,0.0,0.0,0.0,0.0,0.0,0.0,0.0,0.0,0.0,0.0,0.0,0.0,0.0,0.0,0.0,0.0,0.0,0.0,0.0,0.0,0.0,0.0,0.0,0.0,0.0,0.0,0.0,0.0,0.0,0.0,0.0,0.0,0.0,0.0,0.0,0.0,0.0,0.0,0.0,0.0,0.0,0.0,0.0,0.0,0.0,0.0,0.0,0.0,0.0,0.0,0.0,0.0,0.0,-4.1487,-4.4275,-4.6117,-4.6942,-4.7825,-4.7923,-4.721,-4.6201,-4.4875,-4.3082,0.0,0.0,0.0,0.0,0.0,0.0,0.0,0.0,0.0,0.0,0.0,0.0,0.0,0.0,0.0,0.0,0.0,0.0,0.0,0.0,0.0,0.0,0.0,0.0,0.0,0.0,0.0,0.0,0.0,0.0,0.0,0.0,0.0,0.0,0.0,0.0,0.0,0.0,0.0,-4.1675,-4.2796,0.0,0.0,0.0,0.0,0.0,0.0,0.0,0.0,-4.7138,0.0,0.0,0.0,0.0,0.0,0.0,0.0,0.0,0.0,0.0,0.0,0.0,0.0,0.0,0.0,0.0,0.0,0.0,0.0,0.0,0.0,0.0,0.0,0.0,0.0,0.0,0.0,0.0,0.0,0.0,0.0,0.0,0.0,0.0,0.0,0.0,0.0,0.0,0.0,0.0,0.0,0.0,0.0,0.0,0.0,0.0,0.0,0.0,0.0,0.0,0.0,0.0,0.0,0.0,0.0,-4.3294,-4.5553,-4.7148,-4.8008,-4.8397,-4.8185,-4.7298,-4.6482,-4.5044,0.0,0.0,0.0,0.0,0.0,0.0,0.0,0.0,0.0,0.0,0.0,0.0,0.0,0.0,0.0,0.0,0.0,0.0,0.0,0.0,0.0,0.0,0.0,0.0,0.0,0.0,0.0,0.0,0.0,0.0,0.0,0.0,0.0,0.0,0.0,0.0,0.0,0.0,0.0,0.0,-4.3767,-4.5187,-4.5381,0.0,0.0,0.0,0.0,0.0,0.0,-4.9029,-4.8621,0.0,0.0,0.0,0.0,0.0,0.0,0.0,0.0,0.0,0.0,0.0,0.0,0.0,0.0,0.0,0.0,0.0,0.0,0.0,0.0,0.0,0.0,0.0,0.0,0.0,0.0,0.0,0.0,0.0,0.0,0.0,0.0,0.0,0.0,0.0,0.0,0.0,0.0,0.0,0.0,0.0,0.0,0.0,0.0,0.0,0.0,0.0,0.0,0.0,0.0,0.0,0.0,0.0,0.0,0.0,-4.4965,-4.6737,-4.8016,-4.8777,-4.8916,-4.8474,-4.7442,-4.679,-4.5179,0.0,0.0,0.0,0.0,0.0,0.0,0.0,0.0,0.0,0.0,0.0,0.0,0.0,0.0,0.0,0.0,0.0,0.0,0.0,0.0,0.0,0.0,0.0,0.0,0.0,0.0,0.0,0.0,0.0,0.0,0.0,0.0,0.0,0.0,0.0,0.0,0.0,0.0,0.0,0.0,0.0,-4.7298,-4.8149,-4.7933,0.0,0.0,0.0,0.0,-4.9932,-5.0264,0.0,0.0,0.0,0.0,0.0,0.0,0.0,0.0,0.0,0.0,0.0,0.0,0.0,0.0,0.0,0.0,0.0,0.0,0.0,0.0,0.0,0.0,0.0,0.0,0.0,0.0,0.0,0.0,0.0,0.0,0.0,0.0,0.0,0.0,0.0,0.0,0.0,0.0,0.0,0.0,0.0,0.0,0.0,0.0,0.0,0.0,0.0,0.0,0.0,0.0,0.0,0.0,0.0,0.0,0.0,0.0,-4.5897,-4.7606,-4.8837,-4.9552,-5.0182,-4.976,-4.8144,-4.7989,-4.6424,0.0,0.0,0.0,0.0,0.0,0.0,0.0,0.0,0.0,0.0,0.0,0.0,0.0,0.0,0.0,0.0,0.0,0.0,0.0,0.0,0.0,0.0,0.0,0.0,0.0,0.0,0.0,0.0,0.0,0.0,0.0,0.0,0.0,0.0,0.0,0.0,0.0,0.0,0.0,0.0,0.0,-4.834,-4.8522,-4.919,-4.968,0.0,0.0,-5.0792,-5.0777,-5.148,0.0,0.0,0.0,0.0,0.0,0.0,0.0,0.0,0.0,0.0,0.0,0.0,0.0,0.0,0.0,0.0,0.0,0.0,0.0,0.0,0.0,0.0,0.0,0.0,0.0,0.0,0.0,0.0,0.0,0.0,0.0,0.0,0.0,0.0,0.0,0.0,0.0,0.0,0.0,0.0,0.0,0.0,0.0,0.0,0.0,0.0,0.0,0.0,0.0,0.0,0.0,0.0,0.0,0.0,0.0,-4.4707,-4.6757,-4.8379,-4.9563,-5.0231,-5.0508,-5.0029,-4.8817,-4.8336,-4.6538,0.0,0.0,0.0,0.0,0.0,0.0,0.0,0.0,0.0,0.0,0.0,0.0,0.0,0.0,0.0,0.0,0.0,0.0,0.0,0.0,0.0,0.0,0.0,0.0,0.0,0.0,0.0,0.0,0.0,0.0,0.0,0.0,0.0,0.0,0.0,0.0,0.0,0.0,0.0,0.0,0.0,0.0,-4.998,-5.0832,0.0,0.0,0.0,-5.2395,-5.2665,0.0,0.0,0.0,0.0,0.0,0.0,0.0,0.0,0.0,0.0,0.0,0.0,0.0,0.0,0.0,0.0,0.0,0.0,0.0,0.0,0.0,0.0,0.0,0.0,0.0,0.0,0.0,0.0,0.0,0.0,0.0,0.0,0.0,0.0,0.0,0.0,0.0,0.0,0.0,0.0,0.0,0.0,0.0,0.0,0.0,0.0,0.0,0.0,0.0,0.0,0.0,0.0,0.0,0.0,0.0,0.0,0.0,-4.7553,-4.8923,-4.9946,-5.0624,-5.0485,-5.0033,-4.9149,-4.8541,0.0,0.0,0.0,0.0,0.0,0.0,0.0,0.0,0.0,0.0,0.0,0.0,0.0,0.0,0.0,0.0,0.0,0.0,0.0,0.0,0.0,0.0,0.0,0.0,0.0,0.0,0.0,-4.2162,0.0,0.0,0.0,0.0,0.0,0.0,0.0,0.0,0.0,0.0,0.0,0.0,0.0,0.0,-4.9352,-5.1333,-5.2035,-5.2363,0.0,0.0,-5.3488,-5.3685,-5.2778,-5.1823,0.0,0.0,0.0,0.0,0.0,0.0,0.0,0.0,0.0,0.0,0.0,0.0,0.0,0.0,0.0,0.0,0.0,0.0,0.0,0.0,0.0,0.0,0.0,0.0,0.0,0.0,0.0,0.0,0.0,0.0,0.0,0.0,0.0,0.0,0.0,0.0,0.0,0.0,0.0,0.0,0.0,0.0,0.0,0.0,0.0,0.0,0.0,0.0,0.0,0.0,0.0,0.0,0.0,0.0,-4.5957,-4.8253,-4.9035,-4.9759,-5.038,-5.0302,-4.9806,-4.8952,-4.8938,-4.7769,0.0,0.0,0.0,0.0,0.0,0.0,0.0,0.0,0.0,0.0,0.0,0.0,0.0,0.0,0.0,0.0,0.0,0.0,0.0,0.0,0.0,0.0,0.0,0.0,0.0,0.0,0.0,0.0,0.0,0.0,0.0,0.0,0.0,0.0,0.0,0.0,0.0,0.0,0.0,0.0,0.0,-4.9599,-5.2083,-5.2298,-5.2442,0.0,-5.3654,-5.3733,-5.2863,-5.2679,-5.205,-5.0316,0.0,0.0,0.0,0.0,0.0,0.0,0.0,0.0,0.0,0.0,0.0,0.0,0.0,0.0,0.0,0.0,0.0,0.0,0.0,0.0,0.0,0.0,0.0,0.0,0.0,0.0,0.0,0.0,0.0,0.0,0.0,0.0,0.0,0.0,0.0,0.0,0.0,0.0,0.0,0.0,0.0,0.0,0.0,0.0,0.0,0.0,0.0,0.0,0.0,0.0,0.0,0.0,0.0,-4.6423,-4.8195,-4.987,-5.0816,-5.0956,-5.1307,-5.1087,-5.0282,-4.9873,-4.8781,0.0,0.0,0.0,0.0,0.0,0.0,0.0,0.0,0.0,0.0,0.0,0.0,0.0,0.0,0.0,0.0,0.0,0.0,0.0,0.0,0.0,0.0,0.0,0.0,0.0,0.0,0.0,0.0,-4.7079,-4.7318,-4.627,0.0,0.0,0.0,0.0,0.0,0.0,0.0,0.0,0.0,0.0,-5.0764,-5.2193,-5.3096,0.0,0.0,-5.4276,-5.4457,-5.3905,-5.3461,-5.2911,-5.2111,-5.0468,0.0,0.0,0.0,0.0,0.0,0.0,0.0,0.0,0.0,0.0,0.0,0.0,0.0,0.0,0.0,0.0,0.0,0.0,0.0,0.0,0.0,0.0,0.0,0.0,0.0,0.0,0.0,0.0,0.0,0.0,0.0,0.0,0.0,0.0,0.0,0.0,0.0,0.0,0.0,0.0,0.0,0.0,0.0,0.0,0.0,0.0,0.0,0.0,0.0,0.0,0.0,0.0,-4.7117,-4.8779,-5.0625,-5.1568,-5.1608,-5.2068,-5.2001,-5.1481,-5.1041,-5.0095,0.0,0.0,0.0,0.0,0.0,0.0,0.0,0.0,0.0,0.0,0.0,0.0,0.0,0.0,0.0,0.0,0.0,0.0,0.0,0.0,0.0,0.0,0.0,0.0,0.0,0.0,0.0,0.0,-4.8203,-4.8007,-4.6061,0.0,0.0,0.0,0.0,0.0,0.0,0.0,0.0,0.0,0.0,-5.1521,-5.2471,-5.3662,-5.4432,-5.4426,-5.4713,-5.4833,-5.4597,-5.3918,-5.3409,-5.3268,0.0,0.0,0.0,0.0,0.0,0.0,0.0,0.0,0.0,0.0,0.0,0.0,0.0,0.0,0.0,0.0,0.0,0.0,0.0,0.0,0.0,0.0,0.0,0.0,0.0,0.0,0.0,-4.3453,0.0,0.0,-4.2259,0.0,0.0,0.0,0.0,0.0,0.0,0.0,0.0,0.0,0.0,0.0,0.0,0.0,0.0,0.0,0.0,0.0,0.0,0.0,0.0,0.0,0.0,-4.8077,-5.0287,-5.1047,-5.1744,-5.2362,-5.2292,-5.2251,-5.2265,-5.2371,-5.1737,-5.024,0.0,0.0,0.0,0.0,0.0,0.0,0.0,0.0,0.0,0.0,0.0,0.0,0.0,0.0,0.0,0.0,0.0,0.0,0.0,0.0,0.0,0.0,0.0,0.0,0.0,0.0,-4.9661,-4.9235,-4.7822,0.0,0.0,0.0,0.0,0.0,0.0,0.0,0.0,0.0,-4.8399,-5.0056,-5.1672,-5.3169,-5.3918,-5.4545,-5.5084,-5.4952,-5.4736,-5.4538,-5.3828,-5.3268,0.0,0.0,0.0,0.0,0.0,0.0,0.0,0.0,0.0,0.0,0.0,0.0,0.0,0.0,0.0,0.0,0.0,0.0,0.0,0.0,0.0,0.0,0.0,0.0,0.0,0.0,0.0,-4.5199,-4.5234,0.0,0.0,0.0,0.0,0.0,0.0,0.0,0.0,0.0,0.0,0.0,-4.9536,-4.951,0.0,0.0,0.0,0.0,0.0,0.0,0.0,0.0,0.0,0.0,0.0,0.0,-4.803,-5.0206,-5.1466,-5.238,-5.3048,-5.3446,-5.3451,-5.3,-5.3127,-5.2372,-5.0476,0.0,0.0,0.0,0.0,0.0,0.0,0.0,0.0,0.0,0.0,0.0,0.0,0.0,0.0,0.0,0.0,0.0,0.0,0.0,0.0,0.0,0.0,0.0,0.0,0.0,-4.8767,0.0,0.0,0.0,0.0,0.0,0.0,0.0,0.0,0.0,0.0,0.0,-4.9051,-5.013,-5.2155,-5.3691,-5.4072,-5.4682,-5.5107,0.0,0.0,0.0,0.0,0.0,0.0,0.0,0.0,0.0,0.0,0.0,0.0,0.0,0.0,-4.9068,-4.9324,-4.9324,-4.9296,-4.9291,0.0,0.0,0.0,0.0,0.0,0.0,0.0,0.0,0.0,0.0,0.0,0.0,0.0,0.0,-4.7699,0.0,-4.7859,0.0,0.0,0.0,0.0,0.0,0.0,0.0,0.0,-5.1732,-5.2107,-5.2072,-5.2072,-5.2065,0.0,-5.1457,-5.0331,0.0,0.0,0.0,0.0,0.0,0.0,0.0,0.0,-4.91,-5.0977,-5.2216,-5.3148,-5.3836,-5.4223,-5.4213,-5.379,-5.3743,-5.3129,-5.1864,-5.0605,-4.9235,0.0,0.0,0.0,0.0,0.0,0.0,0.0,0.0,0.0,0.0,0.0,0.0,0.0,0.0,0.0,0.0,0.0,0.0,0.0,0.0,0.0,0.0,0.0,-4.9523,0.0,0.0,0.0,0.0,0.0,0.0,0.0,0.0,0.0,-4.7934,-4.9323,-5.0714,-5.1793,-5.3526,-5.4648,-5.4456,0.0,0.0,0.0,0.0,0.0,0.0,0.0,-5.4798,-5.5212,-5.4988,-5.482,-5.495,-5.3746,-5.278,-5.2827,0.0,0.0,-5.097,-5.0657,-5.0714,-5.0979,-5.1026,-5.1082,-5.1385,-5.1363,-5.1447,0.0,0.0,0.0,0.0,0.0,0.0,0.0,0.0,-5.0573,-5.0898,0.0,-5.1069,0.0,0.0,0.0,0.0,0.0,-5.1742,0.0,0.0,-5.3475,-5.3852,-5.387,-5.3909,-5.3825,-5.376,-5.3737,-5.363,-5.3309,-4.9497,0.0,0.0,0.0,0.0,0.0,0.0,-5.1235,-5.2601,-5.3262,-5.3951,-5.4654,-5.4584,-5.4576,-5.4665,-5.4259,-5.4123,-5.42,-5.2107,-5.0906,-5.0851,-4.8638,0.0,0.0,0.0,0.0,0.0,0.0,0.0,0.0,0.0,0.0,0.0,0.0,0.0,0.0,0.0,0.0,0.0,0.0,0.0,0.0,-5.0218,0.0,0.0,0.0,0.0,0.0,0.0,0.0,0.0,0.0,-5.1132,-5.1245,-5.1263,-5.1784,-5.3323,0.0,0.0,0.0,0.0,-5.5104,-5.4867,-5.4613,-5.4415,-5.4239,-5.4838,-5.5342,-5.5398,0.0,0.0,-5.6402,-5.648,-5.6463,-5.6556,-5.6388,-5.564,-5.2696,-5.2123,-5.2267,-5.2944,-5.3059,-5.325,-5.3924,-5.4071,-5.4278,-5.3101,0.0,0.0,0.0,0.0,-5.0646,-5.1109,-5.1752,-5.2711,-5.2813,-5.2415,-5.3124,0.0,0.0,0.0,0.0,0.0,0.0,-5.5036,-5.5118,-5.6459,-5.7124,-5.7132,-5.7112,-5.7076,-5.7018,-5.6384,-5.5787,-5.5148,-5.3406,-5.178,-5.0349,0.0,0.0,0.0,0.0,-5.2097,-5.3499,-5.3641,-5.404,-5.4803,-5.4717,-5.4736,-5.492,-5.4966,-5.4771,-5.4315,-5.3782,-5.2682,-5.0899,-5.0292,0.0,0.0,0.0,0.0,0.0,0.0,0.0,0.0,0.0,0.0,0.0,0.0,0.0,0.0,0.0,0.0,0.0,0.0,0.0,-5.2053,-5.2059,-5.1528,0.0,0.0,0.0,0.0,0.0,0.0,0.0,0.0,0.0,-5.3538,-5.3677,-5.3807,0.0,0.0,-5.6049,-5.583,-5.6359,-5.6694,-5.6394,-5.6206,0.0,-5.5902,-5.592,-5.6158,-5.6753,-5.6889,-5.6895,-5.6847,-5.6492,-5.6225,-5.6262,-5.6323,-5.6067,-5.5342,-5.51,-5.51,-5.5247,-5.504,-5.5022,-5.5468,-5.5749,-5.5858,-5.5268,-5.3057,-5.3333,-5.3467,-5.3518,-5.3526,-5.384,-5.4382,-5.5037,-5.5088,-5.4753,-5.5474,-5.559,-5.521,-5.4837,0.0,0.0,0.0,-5.7018,-5.704,-5.8007,-5.8452,-5.8471,-5.8471,-5.8452,-5.8394,-5.7872,-5.7351,-5.685,-5.6329,-5.5557,-5.4497,0.0,0.0,-5.2269,-5.2571,-5.3302,-5.4421,-5.4675,-5.5161,-5.592,-5.583,-5.5738,-5.5654,-5.5778,-5.5547,-5.4882,-5.4667,-5.386,-5.2423,-5.2182,-5.1095,0.0,0.0,0.0,0.0,0.0,0.0,0.0,0.0,0.0,0.0,0.0,-4.4328,-4.5323,0.0,0.0,0.0,-5.0948,-5.2569,-5.3485,-5.3073,0.0,0.0,0.0,0.0,0.0,0.0,0.0,-5.2211,-5.317,-5.413,-5.5033,-5.571,-5.5962,-5.5554,-5.6499,-5.7155,-5.691,0.0,-5.7205,-5.6939,-5.6686,-5.6519,-5.6422,-5.6484,-5.6867,-5.7719,-5.7746,-5.7642,-5.7599,-5.7339,-5.7126,-5.7149,-5.7208,-5.7249,-5.7208,-5.723,-5.71,-5.6803,-5.6447,-5.6407,-5.7041,-5.7268,-5.7264,-5.6932,-5.6288,-5.6667,-5.6817,-5.6829,-5.6845,-5.688,-5.6983,-5.7224,-5.7321,-5.7296,-5.7758,-5.7946,-5.7991,-5.8267,0.0,-5.8491,-5.847,-5.8488,-5.8488,-5.8546,-5.8585,-5.8585,-5.8604,-5.8604,-5.8604,-5.8585,-5.8545,-5.8406,-5.8406,-5.8344,-5.8204,-5.5226,-5.3587,-5.3475,-5.42,-5.4872,-5.542,-5.6139,-5.6825,-5.7481,-5.752,-5.7281,-5.6721,-5.6728,-5.6452,-5.5838,-5.5111,-5.4728,-5.468,-5.4061,-5.297,-5.1385,0.0,0.0,0.0,0.0,0.0,0.0,0.0,0.0,0.0,0.0,0.0,0.0,0.0,0.0,-5.1483,-5.2984,0.0,-5.3807,-5.379,0.0,0.0,0.0,-5.2313,-5.1576,-5.2196,-5.269,-5.2688,0.0,0.0,-5.6018,-5.7405,-5.8094,-5.7277,-5.7651,-5.7932,-5.7701,-5.7472,-5.7212,-5.7023,-5.6647,-5.641,-5.6555,-5.6913,-5.7494,-5.8215,-5.8462,-5.8431,-5.8431,-5.8516,-5.8638,-5.8563,-5.8679,-5.86,-5.8535,-5.8442,-5.8331,-5.7672,-5.7375,-5.7483,-5.8322,-5.841,-5.8354,-5.7925,-5.7864,-5.7974,-5.7357,-5.6385,-5.6385,-5.6423,-5.6613,-5.7361,-5.7467,-5.7129,-5.7983,-5.8196,-5.796,-5.8135,-5.8269,-5.8371,-5.9025,-5.9314,-5.9372,-5.9964,-6.023,-6.023,-6.023,-6.023,-6.023,-6.023,-5.9884,-5.9226,-5.9207,-5.8896,-5.828,-5.7492,-5.7066,-5.6975,-5.7119,-5.7238,-5.7328,-5.7404,-5.752,-5.7634,-5.7747,-5.7772,-5.7685,-5.7834,-5.7505,-5.6722,-5.6618,-5.5981,-5.478,-5.4626,-5.4105,-5.3067,-5.168,0.0,0.0,0.0,0.0,0.0,0.0,0.0,0.0,0.0,-4.7938,-4.9845,0.0,-5.2511,0.0,-5.549,-5.6416,-5.6418,-5.6308,0.0,0.0,-5.5421,-5.5226,-5.565,-5.5883,-5.6212,-5.685,-5.7468,-5.7795,-5.7713,-5.8638,-5.9149,-5.8793,-5.8757,-5.872,-5.8425,-5.8703,-5.8819,-5.8484,-5.825,-5.8223,-5.8044,-5.8127,-5.8184,-5.8356,-5.8437,-5.8437,-5.8418,-5.8505,-5.8553,-5.8553,-5.8614,-5.8675,-5.8656,-5.8656,-5.86,-5.8415,-5.8257,-5.8166,-5.8443,-5.8536,-5.8573,-5.8152,-5.8197,-5.8242,-5.7752,-5.7008,-5.7135,-5.7237,-5.736,-5.7947,-5.8127,-5.805,-5.8816,-5.9076,-5.9029,-5.9166,-5.9288,-5.9396,-5.9922,-6.0115,-6.0153,-6.0593,-6.08,-6.08,-6.08,-6.08,-6.08,-6.08,-6.055,-6.0089,-6.0069,-5.9858,-5.9415,-5.9415,-5.9392,-5.9331,-5.8549,-5.8284,-5.8579,-5.8884,-5.9029,-5.8991,-5.9082,-5.9007,-5.8678,-5.8816,-5.8501,-5.7697,-5.7738,-5.735,-5.6515,-5.6504,-5.6164,-5.5327,-5.4149,-5.2935,0.0,0.0,0.0,0.0,0.0,0.0,0.0,0.0,0.0,0.0,0.0,-5.4815,-5.6412,-5.7379,-5.7851,-5.7776,-5.7718,-5.7679,-5.7699,-5.7294,-5.7197,-5.768,-5.7699,-5.7833,-5.8314,-5.8699,-5.8909,-5.8844,-5.9576,-6.0089,-5.9901,-5.9745,-5.9531,-5.9235,-5.9386,-5.9365,-5.9063,-5.8902,-5.8758,-5.859,-5.8505,-5.8443,-5.8443,-5.8462,-5.8462,-5.8505,-5.8572,-5.8596,-5.8614,-5.8656,-5.8698,-5.8698,-5.8698,-5.8698,-5.8656,-5.8633,-5.8548,-5.8548,-5.864,-5.8659,-5.7978,-5.7978,-5.7978,-5.7978,-5.7997,-5.8242,-5.8418,-5.8486,-5.8633,-5.8862,-5.9234,-5.9685,-6.0045,-6.0361,-6.0444,-6.0559,-6.0685,-6.0753,-6.08,-6.08,-6.08,-6.08,-6.08,-6.08,-6.08,-6.08,-6.08,-6.08,-6.08,-6.08,-6.08,-6.08,-6.08,-6.08,-6.0723,-5.9292,-5.8837,-5.9453,-6.022,-6.0629,-6.0629,-6.0704,-6.0411,-5.9727,-5.9733,-5.9433,-5.8703,-5.8684,-5.8644,-5.8598,-5.8596,-5.8264,-5.7579,-5.6859,-5.5708,0.0,-5.3246,0.0,0.0,0.0,0.0,0.0,0.0,0.0,0.0,-5.5225,-5.7207,-5.8499,-5.8776,-5.8819,-5.8586,-5.8662,-5.868,-5.8638,-5.8659,-5.872,-5.872,-5.872,-5.868,-5.8616,-5.929,-5.9711,-5.9704,-6.0339,-6.0753,-6.0572,-6.0384,-6.017,-5.9912,-5.9666,-5.9401,-5.9081,-5.8843,-5.8735,-5.8566,-5.848,-5.8462,-5.8511,-5.8511,-5.8553,-5.8675,-5.8698,-5.8698,-5.8698,-5.8698,-5.8698,-5.8698,-5.8698,-5.8698,-5.8698,-5.8675,-5.8656,-5.8656,-5.8675,-5.8698,-5.7978,-5.7978,-5.7978,-5.7978,-5.7997,-5.8133,-5.8305,-5.8437,-5.8437,-5.8758,-5.9215,-5.9578,-5.9866,-6.0087,-6.0332,-6.0499,-6.0629,-6.0685,-6.0734,-6.08,-6.08,-6.08,-6.08,-6.08,-6.08,-6.08,-6.08,-6.08,-6.08,-6.08,-6.08,-6.08,-6.08,-6.08,-6.0781,0.0,0.0,0.0,-6.0559,-6.0685,-6.0777,-6.0823,-6.0814,-6.0704,-6.0729,0.0,-5.9592,-5.9611,-5.9319,-5.8641,-5.8598,0.0,0.0,0.0,0.0,0.0,0.0,0.0,0.0,0.0,0.0,0.0,-5.5947,-5.6009,-5.5598,-5.7763,-5.9045,-5.8679,-5.9766,-6.0229,-5.9531,-6.0049,-6.041,-6.0323,-6.0342,-6.0365,-6.0342,-6.0327,-6.0342,-6.0323,-6.0458,-6.0554,-6.0531,-6.0704,-6.0753,-6.0629,-6.0525,-6.0323,-6.0026,-5.9767,-5.9491,-5.9272,-5.9003,-5.8877,-5.8818,-5.8675,-5.8633,-5.8656,-5.8656,-5.8656,-5.8698,-5.8698,-5.8698,-5.8698,-5.8698,-5.8698,-5.8698,-5.8698,-5.8698,-5.8698,-5.8698,-5.8698,-5.8698,-5.8698,-5.8698,-5.7978,-5.7997,-5.8106,-5.8088,0.0,-5.8242,-5.8393,-5.8548,-5.8548,-5.884,-5.9347,-5.9634,-5.9853,-6.0057,-6.0226,-6.0398,-6.0604,-6.068,-6.0734,-6.08,-6.08,-6.08,-6.08,-6.08,-6.08,-6.08,-6.08,-6.08,-6.08,-6.08,-6.08,-6.08,-6.08,-6.08,-6.0781,-6.0823,-6.0823,-6.0753,-6.0823,-6.0869,-6.0911,-6.0916,-6.098,-6.1,-6.1041,0.0,0.0,0.0,0.0,0.0,0.0,0.0,0.0,-5.9061,0.0,-5.8025,-5.7246,-5.6582,-5.6175,-5.6543,-5.697,-5.7401,-5.8167,-5.846,-5.8054,-5.92,-5.988,-5.9861,-6.0596,-6.0848,-6.0419,-6.0725,-6.0911,-6.0823,-6.08,-6.08,-6.08,-6.08,-6.08,-6.08,-6.08,-6.08,-6.08,-6.08,-6.0757,-6.066,-6.0559,-6.0444,-6.0226,-5.9931,-5.965,-5.9327,-5.9081,-5.8884,-5.8843,-5.8739,-5.8698,-5.8698,-5.8698,-5.8698,-5.8698,-5.8698,-5.8698,-5.8698,-5.8698,-5.8698,-5.8698,-5.8698,-5.8698,-5.8698,-5.8698,-5.8698,-5.8698,-5.8698,-5.8698,-5.7997,-5.8042,-5.8152,-5.8197,-5.8242,-5.8393,-5.859,-5.8821,0.0,0.0,0.0,-5.9688,-5.9923,-6.0087,-6.0178,-6.037,-6.0604,-6.0655,-6.0729,-6.08,-6.08,-6.08,-6.08,-6.08,-6.08,-6.08,-6.08,-6.08,-6.08,-6.08,-6.08,-6.0823,-6.0823,-6.0823,-6.0846,-6.0891,-6.0914,-6.0914,-6.0957,-6.1018,-6.1018,-6.1001,-6.1022,-6.1022,-6.108,-6.1099,-6.1099,-6.1099,-6.1099,-6.1099,-6.1099,-6.1099,-6.1079,-6.0478,-6.005,-5.9876,-5.9271,-5.8842,-5.8687,-5.8823,-5.8978,-5.9113,-5.9738,-6.0052,-5.9919,-6.0035,-6.0383,-6.1041,-6.1099,-6.1061,-6.0999,-6.0997,-6.0935,-6.0823,-6.0823,-6.0804,-6.0781,-6.08,-6.08,-6.08,-6.08,-6.08,-6.08,-6.08,-6.0777,-6.0685,-6.0629,-6.048,-6.0389,-6.0106,-5.9767,-5.9491,-5.9253,-5.9005,-5.8831,-5.8784,-5.8758,-5.8739,-5.8698,-5.8698,-5.8698,-5.8698,-5.8698,-5.8698,-5.8698,-5.8698,-5.8698,-5.8698,-5.8698,-5.8698,-5.8698,-5.8698,-5.8698,-5.8698,-5.8698,-5.8061,-5.8197,-5.8197,-5.8242,-5.8393,-5.859,-5.8843,-5.9234,-5.9234,-5.9253,-5.9346,-5.9719,-5.9918,-6.0045,-6.0216,-6.0389,-6.0604,-6.0604,-6.068,-6.08,-6.08,-6.08,-6.08,-6.08,-6.08,-6.08,-6.08,-6.08,-6.08,-6.0781,-6.0823,-6.0869,-6.0869,-6.0891,-6.0976,-6.098,-6.0982,-6.1001,-6.1001,-6.1021,-6.1021,-6.1041,-6.108,-6.108,-6.1099,-6.1099,-6.1099,-6.1099,-6.1099,-6.1099,-6.1099,-6.1099,-6.1099,-6.0983,-6.0634,-5.9976,-5.9782,-5.9415,-5.8699,-5.9318,-6.0034,-6.0692,-6.0866,-6.0634,-5.9996,-6.0538,-6.0983,-6.1099,-6.1099,-6.108,-6.1002,-6.1001,-6.096,-6.0891,-6.0869,-6.0869,-6.0804,-6.08,-6.08,-6.08,-6.08,-6.08,-6.08,-6.08,-6.0777,-6.071,-6.066,-6.0604,-6.0417,-6.0106,-5.9885,-5.9767,-5.9472,-5.9234,-5.9065,-5.8947,-5.8881,-5.8859,-5.8758,-5.8716,-5.8698,-5.8698,-5.8698,-5.8698,-5.8698,-5.8698,-5.8698,-5.8698,-5.8698,-5.8698,-5.8698,-5.8698,-5.8698,-5.8698,-5.8698,-5.8197,-5.8286,-5.8356,-5.8462,-5.859,-5.8884,-5.9101,-5.9327,-5.9508,-5.9631,-5.9666,-5.9847,-6.0026,-6.0156,-6.0237,-6.0425,-6.0623,-6.0623,-6.068,-6.08,-6.08,-6.08,-6.08,-6.08,-6.08,-6.08,-6.08,-6.0823,-6.0846,-6.0846,-6.0869,-6.0955,-6.0955,-6.0957,-6.1,-6.1001,-6.1002,-6.1061,-6.1041,-6.1061,-6.1061,-6.108,-6.1099,-6.1099,-6.1099,-6.1099,-6.1099,-6.1099,-6.1099,-6.1099,-6.1099,-6.1099,-6.1099,-6.1099,-6.0944,-6.0576,-6.0557,-6.0383,-5.9977,-6.0325,-6.0712,-6.1079,-6.1099,-6.0944,-6.0596,-6.0867,-6.1099,-6.1099,-6.1099,-6.106,-6.1002,-6.1002,-6.0962,-6.0935,-6.0955,-6.0955,-6.0911,-6.0869,-6.0846,-6.0846,-6.0823,-6.0781,-6.08,-6.08,-6.08,-6.0734,-6.071,-6.0655,-6.0525,-6.0361,-6.0137,-5.9918,-5.9681,-5.9434,-5.9252,-5.914,-5.904,-5.9001,-5.8881,-5.8818,-5.8818,-5.8758,-5.8698,-5.8698,-5.8698,-5.8698,-5.8698,-5.8698,-5.8698,-5.8698,-5.8698,-5.8698,-5.8698,-5.8698,-5.8698,-5.8331,-5.8418,-5.8529,-5.8638,-5.8843,-5.914,-5.9346,-5.9491,-5.9767,-5.995,-6.0013,-6.0057,-6.0148,-6.0294,-6.0323,-6.046,-6.0604,-6.0629,-6.0704,-6.08,-6.08,-6.08,-6.0823,-6.0804,-6.0843,-6.0846,-6.0866,-6.0888,-6.0933,-6.0933,-6.0955,-6.0999,-6.1018,-6.1021,-6.1041,-6.1022,-6.1061,-6.1099,-6.1099,-6.1099,-6.1099,-6.1099,-6.1099,-6.1099,-6.1099,-6.1099,-6.1099,-6.1099,-6.1099,-6.1099,-6.1099,-6.1099,-6.1099,-6.1099,-6.1099,-6.1099,-6.1099,-6.1099,-6.1099,-6.1099,-6.1099,-6.1099,-6.1099,-6.1099,-6.1099,-6.1099,-6.1099,-6.1099,-6.1099,-6.108,-6.1041,-6.1022,-6.1021,-6.0999,-6.1018,-6.0997,-6.0997,-6.0955,-6.0933,-6.0914,-6.0888,-6.0846,-6.0846,-6.0846,-6.0846,-6.0846,-6.08,-6.0729,-6.068,-6.0604,-6.0398,-6.0167,-5.988,-5.9696,-5.9491,-5.9309,-5.9215,-5.9081,-5.9001,-5.894,-5.8921,-5.8821,-5.8781,-5.8781,-5.8758,-5.8739,-5.8721,-5.8679,-5.8698,-5.8698,-5.8698,-5.8698,-5.8698,-5.8698,-5.8698,-5.8418,-5.8511,-5.8614,-5.8902,-5.9234,-5.9309,-5.9508,-5.982,-5.995,-6.0118,-6.0332,-6.0294,-6.0294,-6.0313,-6.0417,-6.0525,-6.0604,-6.066,-6.0734,-6.08,-6.08,-6.0823,-6.0888,-6.0911,-6.0933,-6.0976,-6.0995,-6.0976,-6.0976,-6.0976,-6.1018,-6.1002,-6.1061,-6.1099,-6.108,-6.108,-6.1099,-6.1099,-6.1099,-6.1099,-6.1099,-6.1099,-6.1099,-6.1099,-6.1099,-6.1099,-6.1099,-6.1099,-6.1099,-6.1099,-6.1099,-6.1099,-6.1099,-6.1099,-6.1099,-6.1099,-6.1099,-6.1099,-6.1099,-6.1099,-6.1099,-6.1099,-6.1099,-6.1099,-6.1099,-6.1099,-6.1099,-6.1099,-6.1099,-6.1099,-6.1099,-6.108,-6.1061,-6.1002,-6.1021,-6.1021,-6.1018,-6.1017,-6.0995,-6.0995,-6.0976,-6.0976,-6.0955,-6.0955,-6.0976,-6.0974,-6.1007,-6.1004,-6.1,-6.1007,-6.0891,-6.0652,-6.0313,-6.0058,-5.9933,-5.9545,-5.9515,-5.9384,-5.9176,-5.9229,-5.9323,-5.9209,-5.9022,-5.9225,-5.9014,-5.8974,-5.8747,-5.8665,-5.8698,-5.8716,-5.8716,-5.8716,-5.8698,-5.8716,-5.8716,-5.8529,-5.8614,-5.8758,-5.9001,-5.929,-5.9472,-5.97,-5.9963,-6.0148,-6.0313,-6.0444,-6.0525,-6.0525,-6.0472,-6.0525,-6.0604,-6.068,-6.0729,-6.08,-6.0846,-6.0911,-6.0933,-6.0955,-6.0955,-6.0976,-6.1017,-6.1017,-6.1018,-6.1,-6.1041,-6.106,-6.1061,-6.108,-6.1099,-6.1099,-6.1099,-6.1099,-6.1099,-6.1137,-6.1155,-6.1155,-6.1137,-6.1099,-6.1099,-6.1117,-6.1174,-6.1174,-6.121,-6.1227,-6.1208,-6.1227,-6.1227,-6.1227,-6.1208,-6.1227,-6.1227,-6.1208,-6.1227,-6.1227,-6.1208,-6.121,-6.1155,-6.1155,-6.1155,-6.1099,-6.1099,-6.1099,-6.1099,-6.1099,-6.1099,-6.1099,-6.1099,-6.108,-6.1041,-6.1061,-6.1061,-6.106,-6.104,-6.1,-6.1,-6.1018,-6.1017,-6.1017,-6.1017,-6.1017,-6.1074,-6.1323,-6.167,-6.1709,-6.205,-6.2175,-6.1881,-6.1824,-6.1621,-6.1191,-6.0667,-6.0591,-6.0825,-6.0867,-6.0792,-6.0717,-6.0678,-6.0527,-5.9943,-5.9829,-5.9489,-5.8868,-5.8887,-5.8862,-5.884,-5.8758,-5.8716,-5.8855,-5.8836,-5.884,-5.8614,-5.8716,-5.8881,-5.9139,-5.9436,-5.9681,-5.9912,-6.0118,-6.037,-6.0525,-6.0604,-6.0729,-6.0753,-6.0704,-6.0704,-6.0704,-6.0777,-6.0823,-6.0869,-6.0933,-6.0976,-6.0997,-6.1018,-6.0999,-6.1018,-6.102,-6.1039,-6.1021,-6.1022,-6.108,-6.1099,-6.1099,-6.1099,-6.1099,-6.1099,-6.1117,-6.1137,-6.1117,-6.1192,-6.1227,-6.1227,-6.1173,-6.1155,-6.1155,-6.1191,-6.1227,-6.1227,-6.1281,-6.1317,-6.1317,-6.1317,-6.1317,-6.1317,-6.1317,-6.1317,-6.1317,-6.1317,-6.1317,-6.1317,-6.1317,-6.1281,-6.1227,-6.1247,-6.1191,-6.1173,-6.1155,-6.1136,-6.1117,-6.1137,-6.1137,-6.1099,-6.1099,-6.1099,-6.1099,-6.1099,-6.1099,-6.1099,-6.1041,-6.1041,-6.1022,-6.1041,-6.1155,-6.1367,-6.1637,-6.189,-6.1948,-6.2276,-6.2604,-6.266,-6.3085,-6.3293,-6.2895,-6.3075,-6.2976,-6.25,-6.1913,-6.1885,-6.2046,-6.2062,-6.1955,-6.2125,-6.2014,-6.1864,-6.1036,-6.0905,-6.066,-6.0057,-5.9756,-5.9435,-5.9052,-5.9008,-5.9101,-5.8996,-5.8977,-5.9001,-5.8698,-5.8739,-5.9022,-5.9365,-5.9681,-5.988,-6.0118,-6.037,-6.0585,-6.0729,-6.08,-6.0914,-6.0976,-6.0935,-6.0891,-6.0911,-6.0891,-6.0955,-6.0976,-6.0997,-6.0997,-6.0999,-6.1002,-6.1002,-6.1041,-6.1099,-6.108,-6.108,-6.1099,-6.1099,-6.1099,-6.1099,-6.1099,-6.1099,-6.1117,-6.1173,-6.1191,-6.121,-6.1245,-6.1297,-6.1278,-6.1278,-6.1278,-6.1297,-6.1297,-6.1297,-6.1297,-6.1297,-6.1317,-6.1317,-6.1297,-6.1297,-6.1317,-6.1297,-6.1314,-6.1297,-6.1297,-6.1297,-6.1297,-6.1314,-6.1297,-6.1297,-6.1297,-6.1297,-6.1281,-6.1281,-6.1245,-6.121,-6.121,-6.1173,-6.1137,-6.1099,-6.1099,-6.1099,-6.1099,-6.1099,-6.1099,-6.1176,-6.1118,-6.1176,-6.1292,-6.164,-6.2259,-6.3071,-6.3303,-6.3381,-6.3555,-6.3632,-6.3632,-6.365,-6.3745,-6.3703,-6.3637,-6.3517,-6.3663,-6.3111,-6.2654,-6.2883,-6.3033,-6.2595,-6.2444,-6.2368,-6.2299,-6.2173,-6.2083,-6.1824,-6.1356,-6.0904,-6.0469,-6.0164,-6.0049,-6.0014,-6.0035,-5.9419,-5.9477,-5.8902,-5.9081,-5.9196,-5.9491,-5.9834,-5.9994,-6.0256,-6.0552,-6.0685,-6.0823,-6.0914,-6.0999,-6.1021,-6.1021,-6.1021,-6.102,-6.0976,-6.0999,-6.1,-6.1021,-6.1041,-6.1061,-6.1041,-6.108,-6.108,-6.1099,-6.1099,-6.1099,-6.1099,-6.1099,-6.1117,-6.1155,-6.1155,-6.1173,-6.1227,-6.1264,-6.1261,-6.1281,-6.1275,-6.1326,-6.1326,-6.1341,-6.1376,-6.1356,-6.1306,-6.1326,-6.1326,-6.1341,-6.1376,-6.1356,-6.1376,-6.1356,-6.1376,-6.1356,-6.1356,-6.1376,-6.1356,-6.1356,-6.1376,-6.1376,-6.1341,-6.1306,-6.1326,-6.131,-6.1297,-6.1317,-6.1297,-6.1281,-6.1281,-6.1245,-6.1227,-6.1136,-6.1099,-6.1099,-6.1099,-6.1137,-6.1215,-6.1563,-6.193,-6.2008,-6.2375,-6.2917,-6.3149,-6.3516,-6.3671,-6.3748,-6.4174,-6.4464,-6.4619,-6.4889,-6.5158,-6.5194,-6.5151,-6.5164,-6.5182,-6.435,-6.381,-6.4248,-6.4424,-6.4362,-6.4267,-6.4121,-6.407,-6.3389,-6.3228,-6.2917,-6.2457,-6.2087,-6.1657,-6.1732,-6.1618,-6.1318,-6.1544,-6.0924,-6.0885,-5.9139,-5.9327,-5.9381,-5.9647,-5.9982,-6.0148,-6.0379,-6.0635,-6.08,-6.0914,-6.098,-6.1021,-6.1041,-6.1061,-6.106,-6.108,-6.104,-6.1021,-6.1022,-6.1041,-6.108,-6.1099,-6.1099,-6.1099,-6.1099,-6.1099,-6.1117,-6.1137,-6.1137,-6.1155,-6.1173,-6.1247,-6.1227,-6.1245,-6.1297,-6.1314,-6.1314,-6.131,-6.1322,-6.1337,-6.1318,-6.1386,-6.14,-6.1405,-6.1352,-6.1318,-6.1318,-6.1366,-6.14,-6.14,-6.14,-6.14,-6.14,-6.14,-6.14,-6.14,-6.14,-6.14,-6.14,-6.14,-6.1386,-6.1337,-6.1337,-6.1322,-6.1326,-6.1345,-6.131,-6.131,-6.1314,-6.1314,-6.1355,-6.146,-6.1445,-6.1253,-6.135,-6.1505,-6.1563,-6.2317,-6.2743,-6.2917,-6.3555,-6.4019,-6.4135,-6.4387,-6.4541,-6.4503,-6.5044,-6.5334,-6.547,-6.5799,-6.6205,-6.6144,-6.6007,-6.5947,-6.5862,-6.5197,-6.4821,-6.5164,-6.5235,-6.5427,-6.5513,-6.5513,-6.5301,-6.4646,-6.4229,-6.3956,-6.3598,-6.3217,-6.3173,-6.3347,-6.2916,-6.2464,-6.2501,-6.2405,-6.223,-5.9272,-5.9453,-5.9609,-5.9861,-6.0129,-6.037,-6.0578,-6.071,-6.0891,-6.0999,-6.1021,-6.106,-6.108,-6.1099,-6.1099,-6.1099,-6.1099,-6.108,-6.108,-6.1099,-6.1099,-6.1099,-6.1099,-6.1099,-6.1099,-6.1099,-6.1192,-6.121,-6.121,-6.1245,-6.1297,-6.1297,-6.1297,-6.1297,-6.1297,-6.1306,-6.1322,-6.1302,-6.1371,-6.1405,-6.14,-6.14,-6.14,-6.14,-6.14,-6.14,-6.1419,-6.14,-6.14,-6.14,-6.14,-6.14,-6.14,-6.14,-6.14,-6.14,-6.14,-6.14,-6.14,-6.14,-6.14,-6.1386,-6.1405,-6.1386,-6.1386,-6.1386,-6.1352,-6.1322,-6.1399,-6.1384,-6.1546,-6.2073,-6.2175,-6.1481,-6.1968,-6.2394,-6.2549,-6.3168,-6.3729,-6.3884,-6.4522,-6.4967,-6.516,-6.547,-6.5799,-6.5876,-6.5973,-6.6031,-6.6011,-6.6108,-6.6185,-6.6185,-6.6165,-6.6144,-6.6123,-6.6061,-6.5936,-6.5885,-6.5749,-6.5769,-6.5717,-6.5717,-6.5663,-6.5177,-6.5063,-6.4794,-6.4622,-6.4324,-6.4391,-6.4419,-6.3953,-6.3596,-6.3573,-6.3474,-6.3147,-5.9455,-5.9734,-5.9847,-6.0057,-6.0313,-6.048,-6.068,-6.0846,-6.0955,-6.102,-6.1061,-6.1099,-6.1099,-6.1099,-6.1099,-6.1099,-6.1099,-6.1099,-6.1099,-6.1099,-6.1099,-6.1099,-6.1099,-6.1099,-6.1137,-6.1173,-6.1247,-6.1281,-6.1281,-6.1278,-6.1314,-6.131,-6.1306,-6.1341,-6.1356,-6.1371,-6.1366,-6.1366,-6.1386,-6.14,-6.14,-6.14,-6.1414,-6.1389,-6.1402,-6.1421,-6.1467,-6.1428,-6.14,-6.14,-6.1408,-6.1402,-6.1447,-6.1434,-6.1402,-6.1402,-6.1414,-6.14,-6.14,-6.14,-6.14,-6.14,-6.14,-6.14,-6.14,-6.1439,-6.1405,-6.1449,-6.1871,-6.2245,-6.24,-6.2991,-6.3039,-6.2235,-6.2838,-6.3361,-6.3458,-6.4077,-6.4793,-6.5334,-6.5663,-6.5818,-6.5837,-6.6127,-6.6166,-6.6205,-6.6205,-6.6205,-6.6205,-6.6205,-6.6205,-6.6205,-6.6205,-6.6205,-6.6165,-6.6144,-6.6102,-6.6039,-6.599,-6.5924,-6.5876,-6.5876,-6.5826,-6.5776,-6.5697,-6.5589,-6.5446,-6.5356,-6.5307,-6.5264,-6.487,-6.4705,-6.4756,-6.4508,-6.4107,-5.9681,-5.9963,-6.0106,-6.0285,-6.0506,-6.0629,-6.0757,-6.0894,-6.0959,-6.1041,-6.108,-6.1099,-6.1099,-6.1118,-6.1137,-6.1137,-6.1117,-6.1155,-6.1173,-6.1173,-6.1136,-6.1117,-6.1117,-6.1173,-6.121,-6.1245,-6.1278,-6.131,-6.131,-6.1326,-6.1341,-6.1337,-6.1337,-6.1352,-6.14,-6.14,-6.14,-6.14,-6.1414,-6.1408,-6.1408,-6.1408,-6.1434,-6.1428,-6.144,-6.146,-6.1503,-6.1467,-6.146,-6.1441,-6.1447,-6.146,-6.1503,-6.144,-6.1428,-6.1447,-6.1454,-6.1447,-6.1441,-6.1421,-6.1408,-6.1408,-6.1408,-6.1394,-6.1458,-6.1614,-6.1886,-6.1983,-6.2682,-6.3168,-6.3284,-6.3895,-6.4023,-6.3624,-6.3957,-6.4404,-6.4638,-6.5103,-6.5547,-6.5992,-6.6147,-6.6205,-6.6205,-6.6205,-6.6205,-6.6205,-6.6205,-6.6205,-6.6205,-6.6205,-6.6205,-6.6205,-6.6205,-6.6205,-6.6205,-6.6185,-6.6185,-6.6163,-6.6142,-6.6058,-6.6016,-6.6013,-6.5971,-6.5943,-6.5851,-6.5801,-6.5678,-6.5651,-6.5624,-6.558,-6.5542,-6.5398,-6.5245,-6.5293,-6.5044,-6.0013,-6.0148,-6.0361,-6.0525,-6.0685,-6.0777,-6.085,-6.092,-6.0982,-6.1061,-6.1099,-6.1117,-6.1117,-6.1117,-6.1173,-6.1191,-6.1191,-6.1245,-6.1281,-6.1261,-6.1225,-6.1191,-6.121,-6.1261,-6.1297,-6.1294,-6.1326,-6.1302,-6.1322,-6.1352,-6.14,-6.1386,-6.1386,-6.14,-6.14,-6.14,-6.14,-6.1414,-6.1402,-6.1408,-6.1421,-6.1472,-6.1503,-6.1484,-6.1503,-6.1503,-6.1515,-6.1515,-6.1503,-6.1503,-6.1503,-6.1484,-6.1503,-6.1503,-6.1484,-6.1503,-6.1491,-6.1479,-6.1491,-6.1491,-6.146,-6.1415,-6.1428,-6.1454,-6.1647,-6.2191,-6.2618,-6.2793,-6.357,-6.4076,-6.4197,-6.4799,-6.5138,-6.5258,-6.5153,-6.5467,-6.6128,-6.6167,-6.6167,-6.6186,-6.6225,-6.6205,-6.6225,-6.6185,-6.6205,-6.6205,-6.6205,-6.6205,-6.6205,-6.6205,-6.6205,-6.6205,-6.6205,-6.6205,-6.6205,-6.6205,-6.6205,-6.6205,-6.6184,-6.6144,-6.6102,-6.6102,-6.608,-6.6036,-6.599,-6.5947,-6.5924,-6.5851,-6.5826,-6.575,-6.5743,-6.5724,-6.5717,-6.569,-6.5635,-6.0167,-6.0342,-6.0552,-6.066,-6.08,-6.0911,-6.0959,-6.0982,-6.1041,-6.1117,-6.1173,-6.1227,-6.1264,-6.1245,-6.1261,-6.1281,-6.1281,-6.1297,-6.1317,-6.1297,-6.1275,-6.1275,-6.1259,-6.1291,-6.1306,-6.1306,-6.1356,-6.1366,-6.1386,-6.1386,-6.14,-6.14,-6.14,-6.1394,-6.1402,-6.1402,-6.1421,-6.1473,-6.146,-6.1464,-6.1456,-6.1484,-6.1495,-6.1498,-6.1498,-6.1528,-6.1568,-6.1568,-6.1539,-6.1498,-6.1498,-6.1528,-6.1558,-6.1528,-6.1498,-6.1498,-6.1495,-6.1491,-6.1503,-6.1503,-6.1503,-6.1472,-6.1569,-6.1764,-6.2393,-6.2646,-6.3061,-6.3592,-6.4434,-6.4945,-6.5013,-6.5615,-6.6046,-6.6144,-6.6021,-6.6086,-6.6262,-6.6358,-6.634,-6.636,-6.6303,-6.6264,-6.6264,-6.6245,-6.6205,-6.6205,-6.6205,-6.6205,-6.6205,-6.6205,-6.6205,-6.6205,-6.6205,-6.6205,-6.6205,-6.6205,-6.6205,-6.6205,-6.6205,-6.6184,-6.6165,-6.6165,-6.6123,-6.608,-6.608,-6.6058,-6.6013,-6.5967,-6.5943,-6.59,-6.5919,-6.5895,-6.5919,-6.5895,-6.5826,-6.0379,-6.0552,-6.0729,-6.0827,-6.0938,-6.102,-6.106,-6.1137,-6.1154,-6.1191,-6.1264,-6.1281,-6.1317,-6.1317,-6.1314,-6.131,-6.131,-6.1345,-6.1326,-6.1341,-6.1337,-6.1356,-6.1341,-6.1356,-6.1337,-6.1352,-6.1386,-6.14,-6.14,-6.14,-6.14,-6.1408,-6.1394,-6.1402,-6.1447,-6.144,-6.146,-6.1491,-6.1495,-6.1498,-6.15,-6.1528,-6.1528,-6.1529,-6.1529,-6.1578,-6.1588,-6.1588,-6.1559,-6.1549,-6.1549,-6.1578,-6.1588,-6.1559,-6.1549,-6.1549,-6.1528,-6.1537,-6.1537,-6.1537,-6.1712,-6.1974,-6.2052,-6.2499,-6.3196,-6.3605,-6.4137,-6.4533,-6.5356,-6.5736,-6.5858,-6.6252,-6.645,-6.645,-6.6461,-6.6409,-6.6411,-6.6413,-6.6396,-6.6396,-6.6358,-6.634,-6.634,-6.6303,-6.6284,-6.6245,-6.6245,-6.6225,-6.6205,-6.6205,-6.6185,-6.6185,-6.6185,-6.6205,-6.6205,-6.6205,-6.6205,-6.6205,-6.6205,-6.6205,-6.6205,-6.6205,-6.6165,-6.6144,-6.6144,-6.6123,-6.608,-6.6058,-6.6058,-6.6058,-6.6058,-6.6036,-6.6036,-6.6036,-6.5947,-6.068,-6.0734,-6.0869,-6.0999,-6.108,-6.1137,-6.1173,-6.1281,-6.1297,-6.1297,-6.1314,-6.1314,-6.133,-6.1314,-6.1326,-6.1302,-6.1322,-6.1371,-6.1386,-6.1386,-6.1386,-6.1386,-6.1386,-6.1386,-6.1386,-6.1386,-6.14,-6.14,-6.1414,-6.1414,-6.1428,-6.1434,-6.1415,-6.144,-6.1484,-6.1484,-6.1495,-6.1515,-6.1518,-6.1519,-6.152,-6.1559,-6.1578,-6.1578,-6.1568,-6.1588,-6.1588,-6.1588,-6.1588,-6.1588,-6.1588,-6.1588,-6.1588,-6.1588,-6.1588,-6.1588,-6.1578,-6.1578,-6.1646,-6.1734,-6.2046,-6.259,-6.2825,-6.3321,-6.4107,-6.4718,-6.5154,-6.5446,-6.6166,-6.6425,-6.647,-6.6538,-6.6524,-6.6508,-6.6508,-6.6474,-6.6422,-6.6411,-6.6413,-6.6413,-6.6413,-6.6413,-6.6413,-6.6396,-6.6358,-6.6322,-6.6322,-6.6303,-6.6284,-6.6245,-6.6245,-6.6205,-6.6205,-6.6205,-6.6205,-6.6205,-6.6205,-6.6205,-6.6205,-6.6205,-6.6205,-6.6205,-6.6205,-6.6185,-6.6165,-6.6165,-6.6165,-6.6144,-6.6144,-6.6123,-6.6102,-6.6102,-6.6082,-6.608,-6.6039,-6.0866,-6.0869,-6.1,-6.1061,-6.1117,-6.1227,-6.1261,-6.1314,-6.131,-6.1306,-6.1322,-6.1356,-6.1391,-6.1371,-6.1371,-6.1366,-6.1386,-6.1386,-6.14,-6.14,-6.14,-6.14,-6.14,-6.14,-6.14,-6.14,-6.1408,-6.1402,-6.1402,-6.1447,-6.146,-6.1472,-6.1452,-6.1495,-6.1498,-6.1498,-6.1528,-6.1568,-6.1559,-6.1559,-6.1568,-6.1568,-6.1588,-6.1588,-6.1588,-6.1588,-6.1588,-6.1588,-6.1588,-6.1588,-6.1588,-6.1588,-6.1588,-6.1588,-6.1588,-6.1627,-6.1627,-6.1627,-6.1724,-6.225,-6.2698,-6.302,-6.3585,-6.4179,-6.5007,-6.5269,-6.5745,-6.6201,-6.6579,-6.664,-6.66,-6.6586,-6.6558,-6.6524,-6.6524,-6.6489,-6.6474,-6.6458,-6.6477,-6.6477,-6.6426,-6.6409,-6.6409,-6.6411,-6.6394,-6.6396,-6.6378,-6.6378,-6.634,-6.6303,-6.6283,-6.6264,-6.6245,-6.6225,-6.6225,-6.6225,-6.6205,-6.6205,-6.6205,-6.6205,-6.6205,-6.6205,-6.6205,-6.6205,-6.6185,-6.6205,-6.6205,-6.6185,-6.6165,-6.6165,-6.6165,-6.6165,-6.6144,-6.6123,-6.6102,-6.1,-6.1041,-6.1156,-6.1191,-6.1206,-6.1255,-6.1326,-6.1341,-6.1356,-6.1352,-6.1352,-6.1386,-6.14,-6.14,-6.14,-6.14,-6.14,-6.14,-6.14,-6.1394,-6.1408,-6.1428,-6.1441,-6.1441,-6.1441,-6.1421,-6.1447,-6.146,-6.146,-6.1472,-6.1484,-6.1487,-6.1507,-6.1518,-6.1529,-6.1529,-6.1578,-6.1588,-6.1588,-6.1588,-6.1588,-6.1588,-6.1588,-6.1588,-6.1588,-6.1588,-6.1588,-6.1588,-6.1588,-6.1588,-6.1588,-6.1588,-6.1588,-6.1588,-6.1588,-6.1627,-6.2055,-6.2172,-6.2406,-6.2971,-6.3653,-6.4023,-6.451,-6.5134,-6.5757,-6.603,-6.6176,-6.6574,-6.6699,-6.6665,-6.6607,-6.6594,-6.6581,-6.6567,-6.6548,-6.6533,-6.6538,-6.6524,-6.6508,-6.6489,-6.6474,-6.6458,-6.6442,-6.6445,-6.6428,-6.6411,-6.6392,-6.6411,-6.6396,-6.6358,-6.634,-6.634,-6.6283,-6.6245,-6.6245,-6.6225,-6.6205,-6.6205,-6.6205,-6.6205,-6.6205,-6.6205,-6.6205,-6.6205,-6.6205,-6.6205,-6.6205,-6.6205,-6.6205,-6.6185,-6.6185,-6.6205,-6.6185,-6.6165,-6.6102,-6.1155,-6.1227,-6.1278,-6.131,-6.1322,-6.1302,-6.1371,-6.1386,-6.14,-6.1386,-6.14,-6.14,-6.14,-6.14,-6.14,-6.14,-6.1414,-6.1414,-6.1421,-6.1415,-6.1428,-6.1447,-6.1491,-6.1472,-6.1472,-6.1428,-6.1472,-6.1484,-6.1484,-6.1495,-6.1537,-6.1519,-6.1519,-6.1549,-6.1588,-6.1588,-6.1588,-6.1588,-6.1588,-6.1588,-6.1588,-6.1588,-6.1588,-6.1588,-6.1588,-6.1588,-6.1588,-6.1588,-6.1588,-6.1588,-6.1588,-6.1666,-6.1763,-6.1627,-6.1744,-6.1802,-6.2484,-6.2835,-6.3185,-6.3828,-6.4608,-6.5368,-6.5562,-6.5883,-6.6459,-6.6595,-6.6615,-6.6643,-6.671,-6.6688,-6.6613,-6.6613,-6.6633,-6.6601,-6.6601,-6.6588,-6.6581,-6.6553,-6.6519,-6.6508,-6.6489,-6.6474,-6.6474,-6.6493,-6.6458,-6.6442,-6.6422,-6.6426,-6.6411,-6.6413,-6.6394,-6.6376,-6.634,-6.6283,-6.6284,-6.6225,-6.6205,-6.6205,-6.6205,-6.6205,-6.6205,-6.6205,-6.6205,-6.6205,-6.6205,-6.6205,-6.6205,-6.6205,-6.6205,-6.6205,-6.6205,-6.6205,-6.6205,-6.6205,-6.6123,-6.1281,-6.1297,-6.1291,-6.1322,-6.1302,-6.1352,-6.1386,-6.14,-6.14,-6.14,-6.14,-6.14,-6.14,-6.1414,-6.1402,-6.1415,-6.1467,-6.1479,-6.146,-6.1472,-6.1472,-6.1503,-6.1515,-6.1518,-6.1498,-6.1487,-6.1498,-6.1498,-6.1518,-6.1558,-6.1568,-6.1578,-6.1578,-6.1588,-6.1588,-6.1588,-6.1588,-6.1588,-6.1588,-6.1588,-6.1588,-6.1588,-6.1588,-6.1588,-6.1588,-6.1588,-6.1588,-6.1588,-6.1588,-6.1588,-6.1588,-6.1997,-6.2328,-6.2036,-6.2133,-6.2601,-6.2971,-6.3419,-6.3926,-6.4705,-6.5173,-6.5523,-6.5991,-6.64,-6.6673,-6.6712,-6.6712,-6.6712,-6.6702,-6.6691,-6.6688,-6.6688,-6.6645,-6.6613,-6.6594,-6.6601,-6.6601,-6.6588,-6.6561,-6.6519,-6.6504,-6.6508,-6.6524,-6.6508,-6.6474,-6.6474,-6.6458,-6.6458,-6.6477,-6.6426,-6.6409,-6.6392,-6.6394,-6.6358,-6.6322,-6.6245,-6.6205,-6.6205,-6.6205,-6.6205,-6.6205,-6.6205,-6.6205,-6.6205,-6.6205,-6.6205,-6.6205,-6.6205,-6.6205,-6.6205,-6.6205,-6.6205,-6.6205,-6.6185,-6.6123,-6.1326,-6.1341,-6.1356,-6.1371,-6.1352,-6.1386,-6.14,-6.14,-6.1394,-6.1408,-6.1408,-6.1441,-6.1454,-6.1454,-6.1447,-6.1472,-6.1503,-6.1503,-6.1495,-6.1507,-6.1487,-6.1518,-6.1548,-6.1549,-6.1549,-6.1549,-6.1549,-6.1549,-6.1568,-6.1578,-6.1588,-6.1588,-6.1588,-6.1588,-6.1588,-6.1588,-6.1588,-6.1588,-6.1588,-6.1588,-6.1588,-6.1588,-6.1588,-6.1588,-6.1588,-6.1588,-6.1588,-6.1588,-6.1588,-6.1685,-6.2016,-6.2465,-6.2757,-6.301,-6.3069,-6.3517,-6.3906,-6.4296,-6.4822,-6.5562,-6.6069,-6.6127,-6.6498,-6.6673,-6.6712,-6.6712,-6.6712,-6.6712,-6.6712,-6.6702,-6.671,-6.671,-6.668,-6.6661,-6.6649,-6.6638,-6.6657,-6.6645,-6.662,-6.6548,-6.6553,-6.6572,-6.6538,-6.6524,-6.6508,-6.6508,-6.6508,-6.6508,-6.6508,-6.6474,-6.6422,-6.6426,-6.6428,-6.6376,-6.6322,-6.6264,-6.6205,-6.6185,-6.6205,-6.6205,-6.6205,-6.6205,-6.6205,-6.6205,-6.6205,-6.6205,-6.6205,-6.6205,-6.6205,-6.6205,-6.6205,-6.6205,-6.6205,-6.6165,-6.6123,-6.1352,-6.14,-6.14,-6.14,-6.14,-6.1414,-6.1394,-6.1408,-6.1434,-6.1428,-6.1428,-6.1472,-6.1503,-6.1503,-6.1484,-6.1495,-6.1495,-6.1526,-6.1518,-6.1519,-6.1519,-6.1549,-6.1578,-6.1588,-6.1588,-6.1578,-6.1588,-6.1588,-6.1588,-6.1588,-6.1588,-6.1588,-6.1588,-6.1588,-6.1588,-6.1588,-6.1588,-6.1588,-6.1588,-6.1588,-6.1588,-6.1588,-6.1588,-6.1588,-6.1588,-6.1588,-6.1588,-6.188,-6.1958,-6.2192,-6.264,-6.3244,-6.3478,-6.4004,-6.4413,-6.4666,-6.5153,-6.5407,-6.5816,-6.6166,-6.6576,-6.6576,-6.6673,-6.6712,-6.6712,-6.6712,-6.6712,-6.6712,-6.6712,-6.6712,-6.6702,-6.6712,-6.6692,-6.6702,-6.6702,-6.6702,-6.671,-6.6699,-6.6669,-6.6633,-6.6627,-6.6614,-6.6581,-6.6567,-6.6533,-6.6538,-6.6558,-6.6524,-6.6524,-6.6508,-6.6474,-6.6458,-6.6445,-6.6394,-6.634,-6.6303,-6.6225,-6.6185,-6.6185,-6.6205,-6.6205,-6.6205,-6.6205,-6.6205,-6.6205,-6.6205,-6.6205,-6.6205,-6.6205,-6.6205,-6.6205,-6.6205,-6.6205,-6.6165,-6.6123,-6.1405,-6.14,-6.14,-6.1394,-6.1402,-6.1415,-6.1428,-6.1472,-6.1472,-6.1472,-6.1484,-6.1503,-6.1503,-6.1495,-6.1518,-6.1539,-6.1568,-6.1588,-6.1568,-6.1559,-6.1559,-6.1559,-6.1588,-6.1588,-6.1588,-6.1588,-6.1588,-6.1588,-6.1588,-6.1588,-6.1588,-6.1588,-6.1588,-6.1588,-6.1588,-6.1588,-6.1588,-6.1588,-6.1588,-6.1588,-6.1588,-6.1588,-6.1588,-6.1588,-6.1646,-6.1705,-6.1861,-6.2328,-6.2737,-6.2854,-6.3536,-6.4315,-6.4958,-6.5173,-6.5699,-6.5913,-6.5952,-6.5738,-6.6342,-6.6615,-6.6712,-6.6712,-6.6712,-6.6712,-6.6712,-6.6712,-6.6712,-6.6712,-6.6712,-6.6712,-6.6712,-6.6712,-6.6712,-6.6712,-6.6712,-6.6712,-6.6721,-6.671,-6.6691,-6.6691,-6.6677,-6.6633,-6.6601,-6.6601,-6.6588,-6.66,-6.6572,-6.6558,-6.6524,-6.6524,-6.6508,-6.6474,-6.6442,-6.6411,-6.6358,-6.6303,-6.6245,-6.6185,-6.6185,-6.6205,-6.6205,-6.6205,-6.6205,-6.6205,-6.6205,-6.6205,-6.6205,-6.6205,-6.6205,-6.6205,-6.6205,-6.6205,-6.6205,-6.6165,-6.6144,-6.1408,-6.1408,-6.1408,-6.1415,-6.146,-6.144,-6.1472,-6.1503,-6.1507,-6.1487,-6.1518,-6.1548,-6.1548,-6.1539,-6.1549,-6.1578,-6.1588,-6.1588,-6.1588,-6.1588,-6.1588,-6.1588,-6.1588,-6.1588,-6.1588,-6.1588,-6.1588,-6.1588,-6.1588,-6.1588,-6.1588,-6.1588,-6.1588,-6.1588,-6.1588,-6.1588,-6.1588,-6.1588,-6.1588,-6.1588,-6.1588,-6.1588,-6.1607,-6.1627,-6.2075,-6.2289,-6.2523,-6.3107,-6.3556,-6.3731,-6.4393,-6.4958,-6.5446,-6.5816,-6.6342,-6.6537,-6.6381,-6.6342,-6.6615,-6.6712,-6.6712,-6.6712,-6.6712,-6.6712,-6.6712,-6.6712,-6.6712,-6.6712,-6.6712,-6.6712,-6.6712,-6.6712,-6.6712,-6.6712,-6.6712,-6.6712,-6.6712,-6.6712,-6.6702,-6.6702,-6.6721,-6.668,-6.6638,-6.6626,-6.6613,-6.6607,-6.6614,-6.66,-6.6553,-6.6524,-6.6524,-6.6508,-6.6458,-6.6409,-6.6376,-6.6322,-6.6264,-6.6205,-6.6185,-6.6205,-6.6205,-6.6205,-6.6205,-6.6205,-6.6205,-6.6205,-6.6205,-6.6205,-6.6205,-6.6205,-6.6205,-6.6205,-6.6205,-6.6205,-6.6144,-6.1408,-6.1421,-6.1428,-6.1472,-6.1495,-6.1495,-6.1495,-6.1526,-6.1528,-6.1519,-6.1549,-6.1578,-6.1588,-6.1588,-6.1588,-6.1588,-6.1588,-6.1588,-6.1588,-6.1588,-6.1588,-6.1588,-6.1588,-6.1588,-6.1588,-6.1588,-6.1588,-6.1588,-6.1588,-6.1588,-6.1588,-6.1588,-6.1588,-6.1588,-6.1588,-6.1588,-6.1588,-6.1588,-6.1588,-6.1588,-6.1627,-6.1861,-6.1938,-6.2211,-6.2659,-6.3205,-6.3322,-6.3984,-6.4393,-6.4588,-6.527,-6.5777,-6.5933,-6.6303,-6.6576,-6.6712,-6.6576,-6.6615,-6.6692,-6.6712,-6.6712,-6.6712,-6.6712,-6.6712,-6.6712,-6.6712,-6.6712,-6.6712,-6.6712,-6.6712,-6.6712,-6.6712,-6.6712,-6.6712,-6.6712,-6.6712,-6.6712,-6.6712,-6.6712,-6.6712,-6.6702,-6.6712,-6.6691,-6.6669,-6.6638,-6.6626,-6.6633,-6.6607,-6.6581,-6.6538,-6.6524,-6.6508,-6.6474,-6.6426,-6.6394,-6.634,-6.6264,-6.6205,-6.6185,-6.6205,-6.6205,-6.6205,-6.6205,-6.6205,-6.6205,-6.6205,-6.6205,-6.6205,-6.6205,-6.6205,-6.6205,-6.6205,-6.6205,-6.6184,-6.6142,-6.1495,-6.1489,-6.1495,-6.1495,-6.1509,-6.1489,-6.1539,-6.1578,-6.1578,-6.1588,-6.1559,-6.1588,-6.1588,-6.1588,-6.1588,-6.1588,-6.1588,-6.1588,-6.1588,-6.1588,-6.1588,-6.1588,-6.1588,-6.1588,-6.1588,-6.1588,-6.1588,-6.1588,-6.1588,-6.1588,-6.1588,-6.1588,-6.1588,-6.1588,-6.1588,-6.1588,-6.1705,-6.1744,-6.1802,-6.1822,-6.2036,-6.2406,-6.2796,-6.2991,-6.3536,-6.4043,-6.4043,-6.4842,-6.5309,-6.5348,-6.5991,-6.642,-6.6439,-6.6595,-6.6712,-6.6712,-6.6712,-6.6712,-6.6712,-6.6712,-6.6712,-6.6712,-6.6712,-6.6712,-6.6712,-6.6712,-6.6712,-6.6712,-6.6712,-6.6712,-6.6712,-6.6712,-6.6712,-6.6712,-6.6712,-6.6712,-6.6712,-6.6712,-6.6712,-6.6712,-6.6712,-6.6712,-6.6712,-6.6691,-6.668,-6.6669,-6.6626,-6.662,-6.6581,-6.6553,-6.6524,-6.6508,-6.6508,-6.6461,-6.6413,-6.6358,-6.6322,-6.6245,-6.6185,-6.6205,-6.6205,-6.6205,-6.6205,-6.6205,-6.6205,-6.6205,-6.6205,-6.6205,-6.6205,-6.6205,-6.6185,-6.6185,-6.6144,-6.6102,-6.6058,-6.1498,-6.1489,-6.1539,-6.1568,-6.1559,-6.1559,-6.1578,-6.1588,-6.1588,-6.1588,-6.1588,-6.1588,-6.1588,-6.1588,-6.1588,-6.1588,-6.1588,-6.1588,-6.1588,-6.1588,-6.1588,-6.1588,-6.1588,-6.1588,-6.1588,-6.1588,-6.1588,-6.1588,-6.1588,-6.1588,-6.1588,-6.1588,-6.1627,-6.1588,-6.1588,-6.1685,-6.1938,-6.2328,-6.2465,-6.2562,-6.3185,-6.338,-6.3653,-6.3711,-6.4471,-6.4842,-6.5017,-6.5757,-6.6069,-6.6264,-6.6537,-6.6653,-6.6712,-6.6712,-6.6712,-6.6712,-6.6712,-6.6712,-6.6712,-6.6712,-6.6712,-6.6712,-6.6712,-6.6712,-6.6712,-6.6712,-6.6712,-6.6712,-6.6712,-6.6712,-6.6712,-6.6712,-6.6712,-6.6712,-6.6712,-6.6712,-6.6712,-6.6712,-6.6712,-6.6712,-6.6712,-6.6712,-6.6712,-6.6712,-6.6702,-6.6691,-6.6669,-6.6613,-6.6594,-6.6553,-6.6524,-6.6508,-6.6508,-6.6477,-6.6413,-6.6396,-6.634,-6.6264,-6.6205,-6.6205,-6.6205,-6.6205,-6.6205,-6.6205,-6.6205,-6.6205,-6.6205,-6.6205,-6.6205,-6.6205,-6.6185,-6.6165,-6.6123,-6.6039,-6.599,-6.1519,-6.1549,-6.1578,-6.1588,-6.1588,-6.1588,-6.1588,-6.1588,-6.1588,-6.1588,-6.1588,-6.1588,-6.1588,-6.1588,-6.1588,-6.1588,-6.1588,-6.1588,-6.1588,-6.1588,-6.1588,-6.1588,-6.1588,-6.1588,-6.1588,-6.1588,-6.1588,-6.1588,-6.1588,-6.1588,-6.1588,-6.1666,-6.1841,-6.1899,-6.1646,-6.1938,-6.2406,-6.3049,-6.3322,-6.3478,-6.4043,-6.4374,-6.4491,-6.4627,-6.5329,-6.5738,-6.5894,-6.6303,-6.6556,-6.6615,-6.6692,-6.6712,-6.6712,-6.6712,-6.6712,-6.6712,-6.6712,-6.6712,-6.6712,-6.6712,-6.6712,-6.6712,-6.6712,-6.6712,-6.6712,-6.6712,-6.6712,-6.6712,-6.6712,-6.6712,-6.6712,-6.6712,-6.6712,-6.6712,-6.6712,-6.6712,-6.6712,-6.6712,-6.6712,-6.6712,-6.6712,-6.6712,-6.6712,-6.6712,-6.6712,-6.6691,-6.6657,-6.6613,-6.6588,-6.6548,-6.6524,-6.6508,-6.6508,-6.6461,-6.6394,-6.6376,-6.6358,-6.6245,-6.6205,-6.6205,-6.6205,-6.6205,-6.6205,-6.6205,-6.6205,-6.6205,-6.6205,-6.6205,-6.6205,-6.6205,-6.6165,-6.6165,-6.6099,-6.6055,-6.5986,-6.1588,-6.1588,-6.1588,-6.1588,-6.1588,-6.1588,-6.1588,-6.1588,-6.1588,-6.1588,-6.1588,-6.1588,-6.1588,-6.1588,-6.1588,-6.1588,-6.1588,-6.1588,-6.1588,-6.1588,-6.1588,-6.1588,-6.1588,-6.1588,-6.1588,-6.1588,-6.1588,-6.1588,-6.1588,-6.1802,-6.1744,-6.1977,-6.2426,-6.2562,-6.1802,-6.2465,-6.3263,-6.3945,-6.4062,-6.4199,-6.4549,-6.5095,-6.5329,-6.5562,-6.603,-6.642,-6.6498,-6.6556,-6.6712,-6.6712,-6.6712,-6.6712,-6.6712,-6.6712,-6.6712,-6.6712,-6.6712,-6.6712,-6.6712,-6.6712,-6.6712,-6.6712,-6.6712,-6.6712,-6.6712,-6.6712,-6.6712,-6.6712,-6.6712,-6.6712,-6.6712,-6.6712,-6.6712,-6.6712,-6.6712,-6.6712,-6.6712,-6.6712,-6.6712,-6.6712,-6.6712,-6.6712,-6.6712,-6.6712,-6.6712,-6.6691,-6.6638,-6.6613,-6.6601,-6.6548,-6.6524,-6.6508,-6.6508,-6.6461,-6.6411,-6.6413,-6.6378,-6.6245,-6.6205,-6.6205,-6.6205,-6.6205,-6.6205,-6.6205,-6.6205,-6.6205,-6.6205,-6.6205,-6.6205,-6.6185,-6.6165,-6.6144,-6.6097,-6.6048,-6.6001,-6.1588,-6.1588,-6.1588,-6.1588,-6.1588,-6.1588,-6.1588,-6.1588,-6.1588,-6.1588,-6.1588,-6.1588,-6.1588,-6.1588,-6.1588,-6.1588,-6.1588,-6.1588,-6.1588,-6.1588,-6.1588,-6.1588,-6.1588,-6.1588,-6.1588,-6.1607,-6.1607,-6.1666,-6.1607,-6.2133,-6.2445,-6.2679,-6.3263,-6.3517,-6.338,-6.3692,-6.4121,-6.4803,-6.5017,-6.5212,-6.5738,-6.6069,-6.6205,-6.6225,-6.6556,-6.6692,-6.6712,-6.6712,-6.6712,-6.6712,-6.6712,-6.6712,-6.6712,-6.6712,-6.6712,-6.6712,-6.6712,-6.6712,-6.6712,-6.6712,-6.6712,-6.6712,-6.6712,-6.6712,-6.6712,-6.6712,-6.6712,-6.6712,-6.6712,-6.6712,-6.6712,-6.6712,-6.6712,-6.6712,-6.6712,-6.6712,-6.6712,-6.6712,-6.6712,-6.6712,-6.6712,-6.6712,-6.6712,-6.6721,-6.6721,-6.6699,-6.6645,-6.6613,-6.6588,-6.6548,-6.6508,-6.6508,-6.6493,-6.6461,-6.6448,-6.6413,-6.634,-6.6245,-6.6205,-6.6205,-6.6205,-6.6205,-6.6205,-6.6205,-6.6205,-6.6205,-6.6205,-6.6205,-6.6205,-6.6185,-6.6144,-6.6123,-6.6055,-6.6025,-6.5996,-6.1588,-6.1588,-6.1588,-6.1588,-6.1588,-6.1588,-6.1588,-6.1588,-6.1588,-6.1588,-6.1588,-6.1588,-6.1588,-6.1588,-6.1588,-6.1588,-6.1588,-6.1588,-6.1588,-6.1588,-6.1588,-6.1588,-6.1588,-6.1607,-6.1588,-6.1666,-6.1958,-6.2094,-6.2192,-6.2932,-6.3458,-6.3887,-6.4276,-6.4705,-6.4783,-6.4919,-6.4978,-6.5621,-6.5894,-6.605,-6.6439,-6.6653,-6.6673,-6.6653,-6.6712,-6.6712,-6.6712,-6.6712,-6.6712,-6.6712,-6.6712,-6.6712,-6.6712,-6.6712,-6.6712,-6.6712,-6.6712,-6.6712,-6.6712,-6.6712,-6.6712,-6.6712,-6.6712,-6.6712,-6.6712,-6.6712,-6.6712,-6.6712,-6.6712,-6.6712,-6.6712,-6.6712,-6.6712,-6.6712,-6.6712,-6.6712,-6.6712,-6.6712,-6.6712,-6.6712,-6.6712,-6.6712,-6.6702,-6.6721,-6.671,-6.6677,-6.6652,-6.662,-6.6588,-6.6533,-6.6508,-6.6508,-6.6474,-6.6461,-6.6428,-6.6413,-6.6322,-6.6225,-6.6205,-6.6205,-6.6205,-6.6205,-6.6205,-6.6205,-6.6205,-6.6205,-6.6205,-6.6205,-6.6205,-6.6163,-6.6102,-6.6058,-6.6013,-6.6005,-6.5972,-6.1588,-6.1588,-6.1588,-6.1588,-6.1588,-6.1588,-6.1588,-6.1588,-6.1588,-6.1588,-6.1588,-6.1588,-6.1588,-6.1588,-6.1588,-6.1588,-6.1588,-6.1588,-6.1588,-6.1588,-6.1588,-6.1588,-6.1646,-6.1705,-6.1861,-6.2055,-6.2406,-6.2932,-6.303,-6.375,-6.453,-6.5153,-6.5348,-6.5738,-6.5913,-6.5874,-6.5874,-6.6283,-6.6478,-6.6537,-6.6712,-6.6712,-6.6712,-6.6712,-6.6712,-6.6712,-6.6712,-6.6712,-6.6712,-6.6712,-6.6712,-6.6712,-6.6712,-6.6712,-6.6712,-6.6712,-6.6712,-6.6712,-6.6712,-6.6712,-6.6712,-6.6712,-6.6712,-6.6712,-6.6712,-6.6712,-6.6712,-6.6712,-6.6712,-6.6712,-6.6712,-6.6712,-6.6712,-6.6712,-6.6712,-6.6712,-6.6712,-6.6712,-6.6712,-6.6712,-6.6712,-6.6712,-6.6721,-6.671,-6.6708,-6.6652,-6.6627,-6.66,-6.6567,-6.6533,-6.6508,-6.6508,-6.6493,-6.6442,-6.6428,-6.6376,-6.6322,-6.6225,-6.6205,-6.6205,-6.6205,-6.6205,-6.6205,-6.6205,-6.6205,-6.6205,-6.6205,-6.6205,-6.6204,-6.6142,-6.6099,-6.6032,-6.6009,-6.5982,-6.5947,-6.1588,-6.1588,-6.1588,-6.1588,-6.1588,-6.1588,-6.1588,-6.1588,-6.1588,-6.1588,-6.1588,-6.1588,-6.1588,-6.1588,-6.1588,-6.1588,-6.1588,-6.1588,-6.1588,-6.1588,-6.1588,-6.1588,-6.1802,-6.2153,-6.2406,-6.2796,-6.3244,-6.377,-6.3965,-6.4608,-6.5465,-6.6186,-6.6186,-6.6498,-6.6517,-6.6439,-6.6537,-6.6615,-6.6712,-6.6712,-6.6712,-6.6712,-6.6712,-6.6712,-6.6712,-6.6712,-6.6712,-6.6712,-6.6712,-6.6712,-6.6712,-6.6712,-6.6712,-6.6712,-6.6712,-6.6712,-6.6712,-6.6712,-6.6712,-6.6712,-6.6712,-6.6712,-6.6712,-6.6712,-6.6712,-6.6712,-6.6712,-6.6712,-6.6712,-6.6712,-6.6712,-6.6712,-6.6712,-6.6712,-6.6712,-6.6712,-6.6712,-6.6712,-6.6712,-6.6712,-6.6712,-6.6721,-6.671,-6.6708,-6.6684,-6.6646,-6.66,-6.6572,-6.6538,-6.6524,-6.6474,-6.6474,-6.6458,-6.6426,-6.6355,-6.632,-6.6283,-6.6225,-6.6205,-6.6205,-6.6205,-6.6205,-6.6205,-6.6205,-6.6205,-6.6205,-6.6205,-6.6184,-6.6163,-6.614,-6.6097,-6.6052,-6.6001,-6.5953,-6.5928,-6.1588,-6.1588,-6.1588,-6.1588,-6.1588,-6.1588,-6.1588,-6.1588,-6.1588,-6.1588,-6.1588,-6.1588,-6.1588,-6.1588,-6.1588,-6.1588,-6.1588,-6.1588,-6.1588,-6.1588,-6.1627,-6.188,-6.2211,-6.264,-6.301,-6.3497,-6.4101,-6.4627,-6.4842,-6.5446,-6.6303,-6.6595,-6.6712,-6.6712,-6.6692,-6.6653,-6.6673,-6.6692,-6.6712,-6.6712,-6.6712,-6.6712,-6.6712,-6.6712,-6.6712,-6.6712,-6.6712,-6.6712,-6.6712,-6.6712,-6.6712,-6.6712,-6.6712,-6.6712,-6.6712,-6.6712,-6.6712,-6.6712,-6.6712,-6.6712,-6.6712,-6.6712,-6.6712,-6.6712,-6.6712,-6.6712,-6.6712,-6.6712,-6.6712,-6.6712,-6.6712,-6.6712,-6.6712,-6.6712,-6.6712,-6.6712,-6.6712,-6.6712,-6.6712,-6.6712,-6.6721,-6.671,-6.6708,-6.6696,-6.6659,-6.6633,-6.6572,-6.6538,-6.6524,-6.6508,-6.6474,-6.6458,-6.6406,-6.6389,-6.6318,-6.6263,-6.6245,-6.6225,-6.6205,-6.6205,-6.6205,-6.6205,-6.6205,-6.6205,-6.6205,-6.6205,-6.6185,-6.6144,-6.6142,-6.6119,-6.6093,-6.6025,-6.5977,-6.5928,-6.5903,-6.1588,-6.1588,-6.1588,-6.1588,-6.1588,-6.1588,-6.1588,-6.1588,-6.1588,-6.1588,-6.1588,-6.1588,-6.1588,-6.1588,-6.1588,-6.1588,-6.1588,-6.1588,-6.1588,-6.1627,-6.188,-6.2172,-6.264,-6.3107,-6.3789,-6.4374,-6.4958,-6.5523,-6.5718,-6.6147,-6.6517,-6.6712,-6.6712,-6.6712,-6.6712,-6.6712,-6.6712,-6.6712,-6.6712,-6.6712,-6.6712,-6.6712,-6.6712,-6.6712,-6.6712,-6.6712,-6.6712,-6.6712,-6.6712,-6.6712,-6.6712,-6.6712,-6.6712,-6.6712,-6.6712,-6.6712,-6.6712,-6.6712,-6.6712,-6.6712,-6.6712,-6.6712,-6.6712,-6.6712,-6.6712,-6.6712,-6.6712,-6.6712,-6.6712,-6.6712,-6.6712,-6.6712,-6.6712,-6.6712,-6.6712,-6.6712,-6.6712,-6.6702,-6.6721,-6.671,-6.668,-6.6677,-6.6665,-6.6659,-6.6614,-6.6606,-6.6558,-6.6508,-6.6474,-6.6474,-6.6458,-6.6426,-6.6392,-6.6338,-6.6301,-6.6264,-6.6225,-6.6225,-6.6205,-6.6205,-6.6205,-6.6205,-6.6205,-6.6205,-6.6205,-6.6205,-6.6185,-6.6144,-6.6121,-6.6113,-6.6067,-6.5996,-6.5928,-6.5903,-6.5878,-6.1588,-6.1588,-6.1588,-6.1588,-6.1588,-6.1588,-6.1588,-6.1588,-6.1588,-6.1588,-6.1588,-6.1588,-6.1588,-6.1588,-6.1588,-6.1588,-6.1588,-6.1588,-6.1588,-6.1899,-6.2211,-6.2718,-6.3224,-6.4101,-6.4744,-6.529,-6.5835,-6.6303,-6.6342,-6.6576,-6.6712,-6.6712,-6.6712,-6.6712,-6.6712,-6.6712,-6.6712,-6.6712,-6.6712,-6.6712,-6.6712,-6.6712,-6.6712,-6.6712,-6.6712,-6.6712,-6.6712,-6.6712,-6.6712,-6.6712,-6.6712,-6.6712,-6.6712,-6.6712,-6.6712,-6.6712,-6.6712,-6.6712,-6.6712,-6.6712,-6.6712,-6.6712,-6.6712,-6.6712,-6.6712,-6.6712,-6.6712,-6.6712,-6.6712,-6.6712,-6.6712,-6.6712,-6.6712,-6.6712,-6.6712,-6.6712,-6.6712,-6.6721,-6.671,-6.6688,-6.6657,-6.6633,-6.6627,-6.66,-6.6572,-6.6558,-6.6524,-6.6489,-6.6442,-6.6442,-6.6426,-6.6392,-6.6358,-6.6302,-6.6283,-6.6245,-6.6205,-6.6225,-6.6205,-6.6205,-6.6205,-6.6205,-6.6205,-6.6205,-6.6205,-6.6205,-6.6165,-6.6123,-6.6099,-6.609,-6.6039,-6.5972,-6.5903,-6.5878,-6.5878,-6.1588,-6.1588,-6.1588,-6.1588,-6.1588,-6.1588,-6.1588,-6.1588,-6.1588,-6.1588,-6.1588,-6.1588,-6.1588,-6.1588,-6.1588,-6.1627,-6.1627,-6.1588,-6.1919,-6.2309,-6.2757,-6.34,-6.416,-6.4958,-6.5504,-6.6011,-6.6381,-6.6673,-6.6712,-6.6712,-6.6712,-6.6712,-6.6712,-6.6712,-6.6712,-6.6712,-6.6712,-6.6712,-6.6712,-6.6712,-6.6712,-6.6712,-6.6712,-6.6712,-6.6712,-6.6712,-6.6712,-6.6712,-6.6712,-6.6712,-6.6712,-6.6712,-6.6712,-6.6712,-6.6712,-6.6712,-6.6712,-6.6712,-6.6712,-6.6712,-6.6712,-6.6712,-6.6712,-6.6712,-6.6712,-6.6712,-6.6712,-6.6712,-6.6712,-6.6712,-6.6712,-6.6712,-6.6712,-6.6712,-6.6712,-6.6702,-6.6721,-6.6699,-6.6688,-6.6626,-6.662,-6.6614,-6.66,-6.6572,-6.6524,-6.6524,-6.6489,-6.6458,-6.6406,-6.6392,-6.6375,-6.6357,-6.6302,-6.6264,-6.6225,-6.6205,-6.6185,-6.6185,-6.6205,-6.6205,-6.6205,-6.6205,-6.6205,-6.6205,-6.6205,-6.6205,-6.6165,-6.6123,-6.608,-6.6052,-6.6001,-6.5928,-6.5903,-6.5878,-6.5878,-6.1588,-6.1588,-6.1588,-6.1588,-6.1588,-6.1588,-6.1588,-6.1588,-6.1588,-6.1588,-6.1588,-6.1588,-6.1588,-6.1588,-6.1588,-6.1685,-6.1802,-6.1977,-6.2367,-6.2932,-6.3283,-6.4062,-6.4822,-6.5562,-6.605,-6.6381,-6.6653,-6.6712,-6.6712,-6.6712,-6.6712,-6.6712,-6.6712,-6.6712,-6.6712,-6.6712,-6.6712,-6.6712,-6.6712,-6.6712,-6.6712,-6.6712,-6.6712,-6.6712,-6.6712,-6.6712,-6.6712,-6.6712,-6.6712,-6.6712,-6.6712,-6.6712,-6.6712,-6.6712,-6.6712,-6.6712,-6.6712,-6.6712,-6.6712,-6.6712,-6.6712,-6.6712,-6.6712,-6.6712,-6.6712,-6.6712,-6.6712,-6.6702,-6.6702,-6.6712,-6.6712,-6.6712,-6.6712,-6.6702,-6.6702,-6.6691,-6.6699,-6.6696,-6.6645,-6.6601,-6.6575,-6.6586,-6.6572,-6.6524,-6.6508,-6.6474,-6.6439,-6.6406,-6.6373,-6.6357,-6.6321,-6.6302,-6.6264,-6.6225,-6.6185,-6.6185,-6.6205,-6.6205,-6.6205,-6.6205,-6.6205,-6.6205,-6.6205,-6.6205,-6.6205,-6.6185,-6.6144,-6.608,-6.6036,-6.6009,-6.5958,-6.5903,-6.5903,-6.5878,-6.5878,-6.1588,-6.1588,-6.1588,-6.1588,-6.1588,-6.1588,-6.1588,-6.1588,-6.1588,-6.1588,-6.1588,-6.1588,-6.1588,-6.1607,-6.1588,-6.1841,-6.2445,-6.2562,-6.3146,-6.3809,-6.4315,-6.4939,-6.5504,-6.603,-6.6459,-6.6653,-6.6712,-6.6712,-6.6712,-6.6712,-6.6712,-6.6712,-6.6712,-6.6712,-6.6712,-6.6712,-6.6712,-6.6712,-6.6712,-6.6712,-6.6712,-6.6712,-6.6712,-6.6712,-6.6712,-6.6712,-6.6712,-6.6712,-6.6712,-6.6712,-6.6712,-6.6712,-6.6712,-6.6712,-6.6712,-6.6712,-6.6712,-6.6712,-6.6712,-6.6712,-6.6712,-6.6712,-6.6712,-6.6702,-6.6702,-6.6702,-6.6691,-6.668,-6.668,-6.6702,-6.6702,-6.6702,-6.6702,-6.668,-6.6669,-6.6657,-6.6633,-6.664,-6.6614,-6.6567,-6.6553,-6.6538,-6.6524,-6.6508,-6.6474,-6.6439,-6.6406,-6.6373,-6.632,-6.6302,-6.6284,-6.6245,-6.6225,-6.6225,-6.6185,-6.6185,-6.6205,-6.6205,-6.6205,-6.6205,-6.6205,-6.6205,-6.6205,-6.6205,-6.6185,-6.6165,-6.6123,-6.6058,-6.6052,-6.6005,-6.5953,-6.5878,-6.5878,-6.5878,-6.5878]}]]